     2.11           OBSERVATION DATA    G (GPS)             RINEX VERSION / TYPE
teqc 2010Oct21 OPUS Account 20111027 17:21:38UTC            PGM / RUN BY / DATE
W 1525                                                      MARKER NAME
3031                                                        MARKER NUMBER
CSMIDDLETON NGS                                             OBSERVER / AGENCY
0440103897 TRIMBLE 5700 1.04                                REC # / TYPE / VERS
12299603 TRM41249.00 NONE                                   ANT # / TYPE
  -759269.3699 -5557613.0969  3025898.2195                  APPROX POSITION XYZ
        1.9990        0.0000        0.0000                  ANTENNA: DELTA H/E/N
     1     1                                                WAVELENGTH FACT L1/2
     5    L1    L2    C1    P1    P2                        # / TYPES OF OBSERV
    15                                                      LEAP SECONDS
  2011     8    17    16    54   30.0000000     GPS         TIME OF FIRST OBS
                                                            END OF HEADER
 11  8 17 16 54 30.0000000  0 11G03G06G07G08G10G11G13G16G19G23G28
     -7146.60057     -9362.92654  21844860.0634                   21844858.0744
     51468.63956     34506.71854  23791232.1644                   23791231.7304
   -608675.38058   -454873.28156  21489298.4454                   21489295.7074
   -695344.70257   -520600.89154  23241196.4454                   23241193.7974
   -163843.99257   -124575.38053  24254057.1804                   24254057.9064
   -722841.65956   -523646.24453  23873307.9844                   23873308.3444
   -213925.80358   -162733.47756  20204471.3524                   20204468.0204
     48704.47256     32978.27352  24396991.5864                   24396989.7344
   -334425.92758   -252055.39556  20947184.5554                   20947180.1484
     24975.28958     14567.82856  21273336.7664                   21273332.5824
   -638527.34056   -462914.91554  23851527.6024                   23851526.2464
 11  8 17 16 55  0.0000000  0 11G03G06G07G08G10G11G13G16G19G23G28
     -5722.64047     -8253.38145  21845131.8594                   21845128.8794
     64993.36346     45045.39844  23793806.2814                   23793804.3594
   -735657.13248   -553820.10946  21465134.7664                   21465131.6024
   -841511.38847   -634496.95244  23213381.2114                   23213379.2894
   -198645.24346   -151693.29043  24247435.2974                   24247433.6804
   -876704.28346   -643539.14843  23844028.6564                   23844029.6414
   -255975.73948   -195499.68446  20196469.7664                   20196466.6764
     61234.32246     42741.72342  24399375.5944                   24399374.9884
   -401817.02048   -304567.94046  20934360.6174                   20934356.0514
     33128.61748     20921.01146  21274888.4534                   21274884.1294
   -773612.25047   -568175.85344  23825821.3594                   23825820.9884
 11  8 17 16 55 30.0000000  0 11G03G06G07G08G10G11G13G16G19G23G28
     -3179.17547     -6271.51445  21845616.0704                   21845613.1484
     79477.04546     56331.32143  23796562.6804                   23796561.2274
   -861862.15348   -652161.72246  21441118.9064                   21441115.6214
   -987044.75447   -747899.58844  23185686.4384                   23185685.1724
   -232458.78246   -178041.61343  24241000.1024                   24240999.8794
  -1029885.81746   -762901.42343  23814879.6334                   23814878.8444
   -296762.39448   -227281.54646  20188708.1884                   20188704.8954
     74367.28246     52975.06643  24401875.5474                   24401874.1134
   -467909.60448   -356068.68946  20921783.2504                   20921778.8404
     42372.36948     28123.83346  21276647.7974                   21276643.4344
   -907794.46646   -672733.38944  23800287.5314                   23800286.6524
 11  8 17 16 56  0.0000000  0 11G03G06G07G08G10G11G13G16G19G23G28
       365.70247     -3509.30145  21846290.2974                   21846287.9454
     94801.61446     68272.49243  23799478.8134                   23799477.3054
   -987404.34147   -749986.79246  21417228.8524                   21417226.2464
  -1132059.37247   -860898.00044  23158090.5864                   23158089.8834
   -265402.27146   -203711.94044  24234731.6174                   24234732.1254
  -1182499.19146   -881820.87743  23785838.3364                   23785838.1374
   -336402.04948   -258169.61846  20181165.1724                   20181161.5084
     87987.05346     63587.86743  24404467.0234                   24404465.5634
   -532819.30848   -406647.68346  20909431.2894                   20909427.2384
     52588.50448     36084.39046  21278591.7974                   21278587.3284
  -1041189.65246   -776677.61544  23774903.0394                   23774902.1684
 11  8 17 16 56 30.0000000  0 11G03G06G07G08G10G11G13G16G19G23G28
      4800.11047       -53.97545  21847133.8594                   21847132.1884
    110855.18446     80781.71743  23802533.2344                   23802532.7344
  -1112391.73948   -847379.57146  21393444.9924                   21393442.4184
  -1276663.66847   -973576.65944  23130574.2274                   23130572.7894
   -297587.28447   -228791.22944  24228607.0234                   24228607.0394
  -1334650.71547  -1000380.46443  23756884.7274                   23756884.2074
   -375004.68548   -288249.62246  20173819.2424                   20173816.3284
    101983.87346     74494.31343  24407130.2034                   24407128.3524
   -596655.64348   -456390.28346  20897283.8754                   20897279.9494
     63665.55448     44715.79945  21280699.7814                   21280695.0824
  -1173906.90446   -880093.62843  23749647.4144                   23749646.4774
 11  8 17 16 57  0.0000000  0 11G03G06G07G08G10G11G13G16G19G23G28
     10073.56147      4055.15345  21848137.2194                   21848135.1764
    127587.73446     93820.00743  23805718.1174                   23805716.9774
  -1236870.40747   -944375.94246  21369757.3134                   21369755.1804
  -1420904.75747  -1085972.29044  23103125.3444                   23103124.8484
   -329064.13246   -253318.71044  24222617.6724                   24222618.0274
  -1486384.89346  -1118614.86244  23728010.4844                   23728009.4924
   -412618.79148   -317559.33046  20166661.3594                   20166658.1374
    116307.95346     85655.91843  24409857.0314                   24409855.6214
   -659466.34947   -505333.69646  20885331.3914                   20885327.6524
     75553.78148     53979.27545  21282961.5944                   21282957.7194
  -1305994.22846   -983018.73044  23724512.3674                   23724510.2664
 11  8 17 16 57 30.0000000  0 11G03G06G07G08G10G11G13G16G19G23G28
     16161.65547      8799.11045  21849295.8594                   21849294.5514
    144974.73446    107368.28943  23809026.1254                   23809025.7584
  -1360860.96148  -1040991.96346  21346162.6804                   21346160.1724
  -1564803.45947  -1198101.13644  23075743.5084                   23075741.8484
   -359857.12546   -277313.36744  24216757.6484                   24216757.4614
  -1637720.92046  -1236539.00744  23699212.0314                   23699211.6844
   -449267.02448   -346116.42146  20159687.8834                   20159684.8164
    130937.21845     97055.28343  24412640.0234                   24412638.8874
   -721273.69948   -553495.26846  20873570.0314                   20873565.9224
     88229.04748     63856.03846  21285373.5554                   21285369.5354
  -1437473.90846  -1085470.39443  23699492.6024                   23699490.5274
 11  8 17 16 58  0.0000000  0 11G03G06G07G08G10G11G13G16G19G23G28
     23041.92847     14160.32845  21850605.2814                   21850603.3984
    162994.01846    121409.19343  23812455.0554                   23812453.5744
  -1484382.24348  -1137242.30646  21322657.3444                   21322654.4844
  -1708379.24747  -1309978.33344  23048421.4534                   23048419.3714
   -389989.10446   -300792.87843  24211023.3444                   24211023.6094
  -1788675.89046  -1354166.19444  23670486.5314                   23670486.7384
   -484970.19148   -373937.09846  20152893.4304                   20152890.5904
    145850.69846    108676.08943  24415479.0314                   24415476.1414
   -782097.49148   -600890.44046  20861995.2664                   20861991.2274
    101668.39148     74328.20646  21287931.2894                   21287927.5514
  -1568365.81646  -1187464.00143  23674583.8054                   23674583.0784
 11  8 17 16 58 30.0000000  0 11G03G06G07G08G10G11G13G16G19G23G28
     30687.97047     20118.24445  21852060.0944                   21852058.8094
    181619.23446    135922.33543  23815999.1414                   23815998.3324
  -1607456.21547  -1233144.08946  21299236.9144                   21299234.3554
  -1851655.06647  -1421621.83244  23021156.9224                   23021155.2704
   -419485.78746   -323777.37543  24205410.2894                   24205410.0554
  -1939270.79146  -1471512.82944  23641829.2664                   23641829.2814
   -519752.70248   -401040.39046  20146274.7584                   20146271.9384
    161023.90446    120499.35542  24418366.0084                   24418362.7504
   -841962.12948   -647538.23146  20850603.0084                   20850599.2704
    115845.95848     85375.59045  21290629.0784                   21290625.3984
  -1698693.56947  -1289018.11044  23649784.4144                   23649782.4104
 11  8 17 16 59  0.0000000  0 11G03G06G07G08G10G11G13G16G19G23G28
     39073.90647     26652.70745  21853656.2734                   21853654.5984
    200824.22446    150887.19343  23819654.1644                   23819652.8794
  -1730104.96047  -1328714.54746  21275897.7034                   21275895.0274
  -1994653.67747  -1533049.29644  22993944.7194                   22993942.5864
   -448373.19046   -346287.13343  24199913.7274                   24199913.6094
  -2089526.14346  -1588594.87343  23613236.0784                   23613235.8364
   -553639.01848   -427445.33846  20139826.4614                   20139823.1844
    176432.17446    132505.73042  24421297.3444                   24421295.0904
   -900891.65748   -693457.35046  20839389.3984                   20839385.5084
    130735.73348     96977.93846  21293462.8444                   21293458.8444
  -1828481.12846  -1390151.16044  23625086.2114                   23625083.9534
 11  8 17 16 59 30.0000000  0 11G03G06G07G08G10G11G13G16G19G23G28
     48172.49347     33742.45445  21855387.4614                   21855385.7384
    220582.77446    166283.42243  23823414.4304                   23823412.9844
  -1852351.25448  -1423971.39046  21252634.8284                   21252631.9774
  -2137398.21747  -1644278.78944  22966782.0164                   22966779.2624
   -476677.98246   -368342.86644  24194527.8914                   24194527.6724
  -2239463.20546  -1705428.87743  23584703.9844                   23584704.3794
   -586653.86648   -453171.21846  20133543.6804                   20133541.1174
    192051.04846    144676.22742  24424270.1804                   24424268.5004
   -958910.44048   -738666.80246  20828348.8594                   20828345.0664
    146311.25948    109114.64945  21296426.6254                   21296422.5474
  -1957752.89546  -1490882.38244  23600486.1954                   23600485.3014
 11  8 17 17  0  0.0000000  0 11G03G06G07G08G10G11G13G16G19G23G28
   1633379.54447   1268968.69545  22157042.3524                   22157040.6334
   1816290.21946   1409691.74943  24127067.3914                   24127066.0704
   -398790.56048   -291326.68946  21529238.3594                   21529235.2504
   -704484.74947   -527722.81844  23239456.3204                   23239454.4494
   1070997.12146    837637.63144  24489040.3914                   24489039.7584
   -813674.60746   -594424.72543  23856023.1254                   23856022.8714
    956601.50548    749365.41846  20427215.5004                   20427212.9614
   1783277.75146   1384593.03943  24727071.0164                   24727068.3284
    559382.14648    444418.33446  21117270.1804                   21117265.8284
   1737968.38048   1349366.89545  21599308.5084                   21599305.2974
   -511105.35547   -363624.49944  23875774.5314                   23875773.3204
 11  8 17 17  0 30.0000000  0 11G03G06G07G08G10G11G13G16G19G23G28
   1643833.15747   1277114.34245  22159031.3054                   22159030.3164
   1837085.33346   1425895.66143  24131023.9924                   24131023.5944
   -520289.84948   -386001.46046  21506118.0164                   21506115.2704
   -846782.05447   -638603.82244  23212378.2274                   23212375.4304
   1043787.34946    816435.16443  24483862.7584                   24483861.3554
   -963028.34846   -710804.17943  23827600.7274                   23827601.0824
    925263.67848    724946.30546  20421252.3594                   20421249.3554
   1799252.31646   1397040.73842  24730111.2424                   24730108.1454
    503121.33248    400578.73046  21106564.2814                   21106560.6254
   1754845.44947   1362517.78945  21602520.6724                   21602516.8444
   -639408.02647   -463600.55843  23851359.6094                   23851357.5044
 11  8 17 17  1  0.0000000  0 11G03G06G07G08G10G11G13G16G19G23G28
   1654931.17447   1285762.11545  22161143.6254                   22161142.2704
   1858365.97746   1442477.98443  24135074.2504                   24135073.3204
   -641442.78247   -480406.34346  21483062.8054                   21483060.7034
   -988883.93747   -749332.53644  23185336.2114                   23185334.4064
   1017092.05746    795633.52343  24478783.3444                   24478782.0124
  -1112115.45646   -826975.91743  23799231.0164                   23799230.3014
    894734.12548    701157.01046  20415442.6644                   20415439.9694
   1815373.91146   1409602.98443  24733177.7664                   24733176.7664
    447709.77948    357400.88046  21096019.8754                   21096016.1764
   1772340.41048   1376150.17345  21605849.8754                   21605846.2304
   -767255.58047   -563222.00444  23827030.6254                   23827029.4734
 11  8 17 17  1 30.0000000  0 11G03G06G07G08G10G11G13G16G19G23G28
   1666655.59347   1294897.97344  22163374.3364                   22163372.9884
   1880114.43046   1459424.79743  24139212.6804                   24139210.8484
   -762262.81448   -574551.82246  21460072.0394                   21460069.8874
  -1130804.05547   -859919.63444  23158330.5164                   23158328.5594
    990893.95446    775219.37044  24473797.4774                   24473796.2664
  -1260948.16246   -942949.36344  23770909.5704                   23770909.1484
    864996.69448    677984.96246  20409783.7814                   20409781.1524
   1831626.83246   1422267.47742  24736271.6484                   24736269.1174
    393131.78948    314872.57046  21085634.1334                   21085630.2424
   1790435.64247   1390250.28745  21609293.1724                   21609289.5514
   -894663.40247   -662500.79144  23802785.6254                   23802784.0664
 11  8 17 17  2  0.0000000  0 11G03G06G07G08G10G11G13G16G19G23G28
   1678984.15847   1304504.59644  22165720.4534                   22165719.4574
   1902308.87846   1476719.08443  24143436.4534                   24143435.3444
   -882768.08347   -668452.03446  21437140.6804                   21437137.9534
  -1272560.99347   -970379.59644  23131355.4304                   23131353.0234
    965170.69146    755175.22644  24468903.5084                   24468902.6414
  -1409542.90946  -1058737.40044  23742632.5164                   23742631.9384
    836030.41148    655413.81346  20404271.4694                   20404269.1914
   1847990.74746   1435018.51743  24739384.7114                   24739382.6884
    339367.26548    272978.12346  21075403.1804                   21075399.3244
   1809109.36048   1404801.18145  21612846.8524                   21612843.5164
  -1021651.11847   -761452.21244  23778620.8524                   23778617.6764
 11  8 17 17  2 30.0000000  0 11G03G06G07G08G10G11G13G16G19G23G28
   1691900.85347   1314569.50844  22168178.2734                   22168177.3834
   1924933.01246   1494348.21443  24147741.1254                   24147740.5784
  -1002970.98048   -762116.62746  21414266.7974                   21414264.4844
  -1414168.00147  -1080722.70944  23104408.0084                   23104405.8204
    939906.32646    735488.60243  24464095.3284                   24464094.6484
  -1557910.21747  -1174348.25844  23714399.2194                   23714398.7074
    807820.96148    633432.39846  20398903.8284                   20398900.9964
   1864451.34746   1447844.91243  24742517.5234                   24742515.4734
    286402.17048    231706.62546  21065324.0704                   21065319.5394
   1828345.30848   1419790.16345  21616507.4064                   21616503.4534
  -1148232.60147   -860087.04544  23754533.6644                   23754530.7034
 11  8 17 17  3  0.0000000  0 11G03G06G07G08G10G11G13G16G19G23G28
   1705386.44447   1325077.72145  22170744.8594                   22170743.7234
   1947968.09846   1512297.54843  24152124.9614                   24152123.7854
  -1122885.84648   -855556.77946  21391447.2974                   21391445.1604
  -1555640.73547  -1190961.18844  23077486.6954                   23077484.8484
    915081.89947    716144.83744  24459371.1954                   24459371.5864
  -1706063.87946  -1289792.61144  23686206.8054                   23686205.4454
    780350.91948    612027.14146  20393676.0704                   20393673.1994
   1880991.35246   1460733.15743  24745664.6414                   24745664.0354
    234219.60648    191044.86646  21055394.0784                   21055389.3554
   1848124.53548   1435202.48845  21620271.2194                   21620267.3754
  -1274424.72147   -958418.51444  23730519.0314                   23730517.1334
 11  8 17 17  3 30.0000000  0 11G03G06G07G08G10G11G13G16G19G23G28
   1719424.51747   1336016.43645  22173416.7274                   22173415.1724
   1971397.79746   1530554.44143  24156583.6564                   24156582.3794
  -1242524.92548   -948782.04046  21368681.0234                   21368678.5554
  -1696991.53547  -1301104.66244  23050588.3984                   23050585.9774
    890681.24646    697131.31643  24454727.4924                   24454727.9964
  -1854014.34446  -1405078.60644  23658052.6484                   23658052.0274
    753606.12148    591187.01246  20388586.9534                   20388583.8284
   1897596.44746   1473672.12542  24748825.7974                   24748822.6374
    182805.00948    150981.54446  21045610.4064                   21045606.3204
   1868430.83148   1451025.50745  21624135.7584                   21624131.7624
  -1400241.01147  -1056457.16044  23706577.6024                   23706575.2894
 11  8 17 17  4  0.0000000  0 11G03G06G07G08G10G11G13G16G19G23G28
   1733996.33847   1347371.09044  22176189.3594                   22176187.6644
   1995204.06946   1549104.70543  24161113.8364                   24161113.0204
  -1361902.63248  -1041803.62046  21345964.5944                   21345961.7974
  -1838235.41547  -1411164.82444  23023710.1954                   23023708.9734
    866685.66846    678433.35143  24450161.8134                   24450161.7504
  -2001774.43446  -1520216.24244  23629934.4614                   23629934.2194
    727568.67448    570898.07846  20383632.2584                   20383629.0004
   1914250.42546   1486649.18042  24751995.0554                   24751991.3984
    132142.26048    111504.07546  21035969.8524                   21035965.0634
   1889246.02747   1467245.08045  21628096.4304                   21628092.3914
  -1525697.58647  -1154215.47144  23682703.7814                   23682702.0634
 11  8 17 17  4 30.0000000  0 11G03G06G07G08G10G11G13G16G19G23G28
   1749089.69647   1359132.09244  22179061.8984                   22179059.9654
   2019374.56646   1567938.83743  24165712.2814                   24165712.4774
  -1481027.24048  -1134627.99746  21323296.1804                   21323293.0004
  -1979381.57647  -1521148.81645  22996851.2274                   22996849.5434
    843083.01646    660041.59643  24445670.5704                   24445670.0314
  -2149351.30246  -1635211.14344  23601851.7344                   23601850.8244
    702227.98048    551152.05246  20378809.9454                   20378806.9654
   1930942.10546   1499655.68042  24755170.2734                   24755168.8134
     82220.96948     72604.36046  21026469.4694                   21026465.4264
   1910557.70048   1483851.50945  21632152.0474                   21632148.2774
  -1650804.57847  -1251701.39944  23658896.7894                   23658895.1254
 11  8 17 17  5  0.0000000  0 11G03G06G07G08G10G11G13G16G19G23G28
   1764687.02647   1371285.84145  22182029.6724                   22182028.1724
   2043891.78946   1587043.06443  24170378.8284                   24170377.9884
  -1599912.11348  -1227265.55346  21300672.6484                   21300670.1954
  -2120443.56847  -1631067.25745  22970008.1644                   22970006.8834
    819855.63546    641942.34243  24441249.1024                   24441250.2384
  -2296756.89747  -1750072.55243  23573801.2424                   23573800.0864
    677567.90648    531936.38346  20374117.3594                   20374114.2194
   1947656.24046   1512679.58643  24758350.9224                   24758349.8524
     33025.40048     34270.13846  21017108.5314                   21017104.0044
   1932348.26148   1500831.10145  21636298.6884                   21636294.8594
  -1775577.25147  -1348926.77944  23635153.3284                   23635151.7034
 11  8 17 17  5 30.0000000  0 11G03G06G07G08G10G11G13G16G19G23G28
   1780775.96447   1383822.61844  22185091.3834                   22185089.5044
   2068744.04446   1606408.42043  24175108.3914                   24175107.2934
  -1718565.09948  -1319722.41946  21278093.5394                   21278090.7584
  -2261430.19047  -1740926.89344  22943179.4144                   22943177.6374
    796991.96646    624126.35943  24436899.6414                   24436898.7464
  -2443997.07546  -1864805.07644  23545782.3594                   23545782.4264
    653578.25648    513243.12246  20369552.3204                   20369549.5744
   1964382.53145   1525712.97342  24761533.2344                   24761532.7894
    -15454.50448     -3506.40646  21007883.0164                   21007878.6764
   1954605.99048   1518174.70945  21640534.3674                   21640530.2504
  -1900025.03047  -1445898.99244  23611471.0634                   23611469.8634
 11  8 17 17  6  0.0000000  0 11G03G06G07G08G10G11G13G16G19G23G28
   1797341.54947   1396730.84044  22188243.3524                   22188241.8554
   2093916.70746   1626023.44143  24179897.7664                   24179897.4694
  -1836996.29848  -1412006.46846  21255556.9774                   21255553.7424
  -2402352.67447  -1850736.61644  22916362.4614                   22916359.9924
    774476.84746    606582.04743  24432614.7194                   24432614.2234
  -2591081.27047  -1979416.07543  23517792.9924                   23517792.0434
    630245.56548    495061.78646  20365111.9774                   20365109.6374
   1981107.98946   1538745.80542  24764716.2504                   24764716.0704
    -63231.63148    -40735.34446  20998791.4614                   20998787.1294
   1977316.16648   1535870.87645  21644855.9304                   21644851.7464
  -2024160.52647  -1542627.89044  23587848.8364                   23587848.0394
 11  8 17 17  6 30.0000000  0 11G03G06G07G08G10G11G13G16G19G23G28
   1814370.80047   1410000.35544  22191484.5784                   22191482.6564
   2119396.60746   1645877.78943  24184746.9844                   24184745.7664
  -1955215.41048  -1504125.25246  21233060.5554                   21233057.6684
  -2543220.31947  -1960503.56944  22889556.4614                   22889554.4574
    752297.44445    589299.32143  24428394.5634                   24428392.9224
  -2738016.87446  -2093911.23243  23489832.0004                   23489831.2624
    607558.19248    477383.27746  20360795.0784                   20360792.2544
   1997821.61246   1551769.30142  24767897.6954                   24767896.3284
   -110317.12648    -77425.34846  20989830.9144                   20989826.2814
   2000465.75648   1553909.45145  21649261.3444                   21649257.5554
  -2147994.34447  -1639121.70944  23564283.9144                   23564282.6844
 11  8 17 17  7  0.0000000  0 11G03G06G07G08G10G11G13G16G19G23G28
   1831853.44547   1423623.14644  22194811.4534                   22194809.5354
   2145173.98146   1665964.02443  24189652.7274                   24189651.4414
  -2073227.88548  -1596083.01346  21210603.3204                   21210600.8364
  -2684039.93747  -2070233.13144  22862759.3364                   22862757.4064
    730443.67346    572270.34842  24424234.1804                   24424233.6254
  -2884808.55147  -2208294.27443  23461898.0474                   23461897.2584
    585507.27348    460200.70346  20356599.1884                   20356596.1844
   2014514.97346   1564777.07842  24771074.1094                   24771072.1094
   -156719.14048   -113582.76246  20981000.9844                   20980996.8874
   2024044.55048   1572282.47545  21653748.0164                   21653743.8794
  -2271534.36947  -1735386.61344  23540774.7344                   23540773.8244
 11  8 17 17  7 30.0000000  0 11G03G06G07G08G10G11G13G16G19G23G28
   1849778.60547   1437590.77844  22198221.8834                   22198220.5314
   2171237.95346   1686273.54343  24194612.0944                   24194611.0354
  -2191040.41148  -1687884.98746  21188184.2584                   21188181.6374
  -2824818.62447  -2179930.78545  22835969.4534                   22835968.2194
    708904.80045    555486.73143  24420136.9384                   24420136.4924
  -3031461.52246  -2322569.24044  23433990.7424                   23433989.9654
    564083.28948    443506.67646  20352521.9844                   20352519.5634
   2031179.64646   1577762.43042  24774245.1884                   24774243.1524
   -202446.81348   -149214.72646  20972299.4844                   20972295.3834
   2048041.99548   1590981.71045  21658315.2194                   21658311.5204
  -2394788.98147  -1831429.12444  23517320.2974                   23517319.1024
 11  8 17 17  8  0.0000000  0 11G03G06G07G08G10G11G13G16G19G23G28
   1868133.80347   1451893.49144  22201714.9064                   22201713.4844
   2197576.75746   1706797.23243  24199624.3914                   24199623.7544
  -2308661.00948  -1779537.38946  21165802.0004                   21165799.1024
  -2965564.56747  -2289602.94944  22809186.8754                   22809185.0554
    687668.32345    538938.78643  24416096.2974                   24416095.7814
  -3177982.26446  -2436741.15343  23406109.2274                   23406108.5434
    543275.65348    427292.89146  20348562.6254                   20348559.7814
   2047805.15646   1590717.32442  24777408.8524                   24777406.3674
   -247510.39848   -184329.23046  20963724.1254                   20963720.1914
   2072445.73848   1609997.53545  21662958.5004                   21662955.5434
  -2517768.06247  -1927256.93944  23493918.0474                   23493916.5784
 11  8 17 17  8 30.0000000  0 11G03G06G07G08G10G11G13G16G19G23G28
   1886911.97847   1466525.80044  22205288.2194                   22205286.8794
   2224183.45746   1727529.64443  24204685.8284                   24204686.3404
  -2426092.50648  -1871042.44746  21143455.6254                   21143452.5084
  -3106281.58747  -2399252.54144  22782409.3914                   22782408.0784
    666727.19446    522620.94243  24412110.8594                   24412111.3404
  -3324372.10547  -2550811.04143  23378252.5084                   23378251.2154
    523078.08548    411554.49446  20344718.9614                   20344716.4924
   2064386.42545   1603637.68442  24780563.5634                   24780562.3484
   -291915.17248   -218930.35246  20955274.3134                   20955269.8914
   2097248.75148   1629324.48445  21667678.4384                   21667675.0044
  -2640476.35747  -2022873.72644  23470567.2814                   23470566.7154
 11  8 17 17  9  0.0000000  0 11G03G06G07G08G10G11G13G16G19G23G28
   1906102.66747   1481479.54944  22208940.5234                   22208938.2464
   2251048.02846   1748463.02343  24209799.7114                   24209799.2734
  -2543340.53448  -1962404.54046  21121144.3674                   21121141.4144
  -3246975.90647  -2508884.48144  22755635.5944                   22755634.8134
    646071.63646    506525.60543  24408181.1414                   24408180.3014
  -3470635.61347  -2664782.51244  23350418.9924                   23350418.0354
    503482.42848    396285.12146  20340990.0004                   20340987.4964
   2080915.24846   1616517.33642  24783710.6024                   24783707.4734
   -335669.74048   -253024.82246  20946948.1094                   20946943.8014
   2122440.88448   1648954.64345  21672473.0784                   21672469.1174
  -2762921.77047  -2118285.66144  23447267.6024                   23447265.1374
 11  8 17 17  9 30.0000000  0 10G03G06G07G08G10G11G13G19G23G28
   1925696.42347   1496747.35144  22212668.9774                   22212667.3054
   2278161.64146   1769590.42743  24214959.1644                   24214958.6914
  -2660409.87848  -2053627.40546  21098866.6334                   21098863.8484
  -3387653.19847  -2618503.13244  22728866.3054                   22728864.1564
    625692.59946    490645.72043  24404302.3834                   24404301.5864
  -3616775.82147  -2778657.90344  23322609.3594                   23322608.4384
    484481.05848    381478.83046  20337374.1484                   20337371.9694
   -378781.25448   -286618.22146  20938744.2274                   20938740.1454
   2148013.39647   1668881.18945  21677338.9304                   21677335.6214
  -2885110.68247  -2213497.79844  23424015.5314                   23424013.3954
 11  8 17 17 10  0.0000000  0 10G03G06G07G08G10G11G13G19G23G28
   1945683.36147   1512321.57044  22216472.7344                   22216471.1914
   2305514.18546   1790904.10243  24220164.1334                   24220163.3054
  -2777306.80148  -2144715.91346  21076621.8834                   21076618.7234
  -3528320.03547  -2728113.62144  22702097.8674                   22702096.3914
    605579.82045    474973.40642  24400474.8834                   24400474.0234
  -3762797.48147  -2892440.96044  23294822.6334                   23294821.1604
    466064.80648    367128.47246  20333870.1334                   20333867.3834
   -421258.25548   -319717.18046  20930660.8594                   20930656.5704
   2173955.82548   1689095.98645  21682275.4534                   21682272.5164
  -3007051.36947  -2308516.44144  23400810.6724                   23400809.6914
 11  8 17 17 10 30.0000000  0 10G03G06G07G08G10G11G13G19G23G28
   1966066.24947   1528204.30544  22220351.6484                   22220350.0824
   2333109.01646   1812406.46142  24225414.6094                   24225415.2584
  -2894023.97548  -2235664.35746  21054411.3444                   21054408.0434
  -3668969.78847  -2837710.81044  22675332.8134                   22675331.0314
    585736.31846    459510.75343  24396698.9774                   24396698.7304
  -3908692.05346  -3006124.96044  23267058.9774                   23267058.8834
    448237.65848    353237.14246  20330477.3674                   20330475.0744
   -463095.93848   -352317.98446  20922700.0004                   20922695.5664
   2200271.50848   1709601.62545  21687283.3754                   21687280.5124
  -3128738.41847  -2403337.45344  23377654.0634                   23377652.6684
 11  8 17 17 11  0.0000000  0 10G03G06G07G08G10G11G13G19G23G28
   1986843.19847   1544394.06444  22224304.5784                   22224303.5394
   2360944.67046   1834096.41443  24230712.3444                   24230711.6214
  -3010558.42148  -2326470.42846  21032234.9304                   21032232.5354
  -3809600.25547  -2947292.97444  22648571.7344                   22648570.3954
    566160.55046    444256.93042  24392974.1484                   24392973.8914
  -4054455.65347  -3119706.95944  23239321.5944                   23239320.6214
    430999.28948    339804.62146  20327197.3834                   20327194.0314
   -504294.38648   -384420.68346  20914859.8204                   20914855.7854
   2226958.36748   1730396.50945  21692361.8054                   21692358.1914
  -3250171.02647  -2497960.23444  23354546.4144                   23354544.5634
 11  8 17 17 11 30.0000000  0 10G03G06G07G08G10G11G13G19G23G28
   3583424.29947   2788483.21344  22528124.0314                   22528122.7814
   3964430.75646   3083566.12443  24535845.3134                   24535844.7464
  -1551491.40548  -1189535.09646  21309886.5944                   21309883.6174
  -2374792.26947  -1829260.78044  22921606.6724                   22921604.6994
   2122263.88646   1656804.88943  24689090.4774                   24689091.6374
  -2624666.45547  -2005585.39444  23511401.1644                   23511401.4024
   1989762.25848   1554425.08346  20623820.0164                   20623817.0744
   1030560.29748    811569.96746  21206932.5394                   21206928.8164
   3829426.42947   2979072.82945  21997301.2034                   21997298.0634
  -1795932.33547  -1364787.15844  23631278.8674                   23631277.3404
 11  8 17 17 12  0.0000000  0 10G03G06G07G08G10G11G13G19G23G28
   3604957.71447   2805262.45544  22532222.1334                   22532220.8404
   3992716.49646   3105606.97543  24541227.7814                   24541227.8444
  -1667679.32348  -1280071.14246  21287776.8674                   21287774.2234
  -2515405.04047  -1938829.16644  22894848.8754                   22894846.9184
   2103191.58046   1641943.27643  24685462.0314                   24685460.3754
  -2770182.25247  -2118974.28444  23483710.6954                   23483709.8914
   1973673.25148   1541888.16246  20620758.4144                   20620756.0164
    990613.40048    780442.51446  21199330.9614                   21199327.0164
   3856824.14348   3000421.62845  22002514.9304                   22002511.6764
  -1916881.32747  -1459033.07543  23608263.0474                   23608260.9534
 11  8 17 17 12 30.0000000  0 10G03G06G07G08G10G11G13G19G23G28
   3626857.69346   2822327.33544  22536389.7034                   22536387.7814
   4021216.34846   3127814.51343  24546651.5314                   24546651.2974
  -1783699.21048  -1370476.25346  21265698.9224                   21265695.9534
  -2656014.52747  -2048394.96944  22868091.9844                   22868089.9104
   2084359.91347   1627269.20643  24681878.8524                   24681877.8674
  -2915577.00647  -2232268.87244  23456043.0554                   23456042.0164
   1958149.41548   1529791.63046  20617804.1724                   20617801.7274
    951283.63247    749795.92546  21191847.2664                   21191843.2234
   3884565.92647   3022038.50345  22007794.1564                   22007790.9654
  -2037596.47247  -1553096.74344  23585291.0704                   23585288.4024
 11  8 17 17 13  0.0000000  0 10G03G06G07G08G10G11G13G19G23G28
   3649113.60147   2839669.55244  22540624.1174                   22540623.0204
   4049920.01646   3150180.92843  24552114.4534                   24552113.5784
  -1899557.10648  -1460755.13246  21243652.0704                   21243649.1134
  -2796627.45747  -2157963.48045  22841334.2274                   22841332.0434
   2065758.30746   1612774.37743  24678337.7344                   24678337.6454
  -3060855.17047  -2345472.55344  23428396.5084                   23428396.1374
   1943181.44348   1518128.23646  20614955.7894                   20614953.3204
    912562.00648    719623.21846  21184478.5704                   21184474.0314
   3912641.32248   3043915.35745  22013136.7274                   22013133.5474
  -2158085.65946  -1646984.38744  23562363.4064                   23562362.0274
 11  8 17 17 13 30.0000000  0 10G03G06G07G08G10G11G13G19G23G28
   3671720.47047   2857285.23044  22544926.6644                   22544925.3834
   4078823.12046   3172702.74043  24557614.2584                   24557613.4384
  -2015253.15648  -1550907.88046  21221635.9064                   21221632.6214
  -2937244.64847  -2267535.28145  22814576.0944                   22814573.4454
   2047381.78446   1598454.90843  24674841.7194                   24674841.8554
  -3206016.01647  -2458584.83144  23400773.8914                   23400772.8054
   1928765.86748   1506895.28546  20612212.7424                   20612210.3094
    874445.30047    689921.87846  21177225.4614                   21177221.2384
   3941045.78047   3066048.61045  22018541.8284                   22018538.9224
  -2278351.75047  -1740698.17644  23539477.9844                   23539476.0634
 11  8 17 17 14  0.0000000  0 10G03G06G07G08G10G11G13G19G23G28
   3694671.96447   2875169.45544  22549294.2734                   22549292.7504
   4107919.42746   3195375.12143  24563150.5084                   24563149.3674
  -2130789.27848  -1640936.02146  21199650.0084                   21199647.1374
  -3077868.54847  -2377112.33645  22787816.2424                   22787813.8444
   2029224.11546   1584306.01543  24671386.5634                   24671386.0904
  -3351060.12647  -2571606.18044  23373172.7344                   23373171.0394
   1914897.46348   1496088.69346  20609574.0084                   20609571.0274
    836928.53447    660688.01746  21170085.8524                   21170081.9184
   3969772.80447   3088433.20045  22024008.8594                   22024005.2344
  -2398398.38246  -1834240.95044  23516633.3834                   23516631.2584
 11  8 17 17 14 30.0000000  0 10G03G06G07G08G10G11G13G19G23G28
   3717966.13847   2893320.73444  22553726.6484                   22553724.9924
   4137207.50546   3218196.92843  24568724.7734                   24568723.9344
  -2246162.83248  -1730837.47946  21177695.0474                   21177691.8324
  -3218497.36747  -2486693.19245  22761055.3984                   22761053.5044
   2011283.66046   1570326.28243  24667972.3364                   24667973.2384
  -3495983.14147  -2684533.14343  23345594.2974                   23345592.7034
   1901575.42348   1485707.85646  20607038.6644                   20607035.8674
    800011.58547    631921.55746  21163061.0784                   21163056.5314
   3998820.75847   3111067.87345  22029536.7584                   22029533.6374
  -2518225.12847  -1927612.38244  23493831.2344                   23493829.5664
 11  8 17 17 15  0.0000000  0 10G03G06G07G08G10G11G13G19G23G28
   3741593.38347   2911731.52744  22558223.1414                   22558221.2304
   4166677.79546   3241160.74943  24574332.2344                   24574331.3874
  -2361379.41548  -1820616.62846  21155770.1564                   21155766.7974
  -3359137.65647  -2596283.00345  22734292.2424                   22734290.0984
   1993550.33647   1556508.12143  24664598.2114                   24664598.3714
  -3640789.60847  -2797369.24143  23318038.9534                   23318037.9774
   1888791.16648   1475746.06646  20604605.8834                   20604603.1884
    763686.25448    603616.09346  21156148.8444                   21156144.6024
   4028179.73548   3133944.91845  22035123.1884                   22035119.7074
  -2637839.71547  -2020818.50344  23471068.4454                   23471067.6684
 11  8 17 17 15 30.0000000  0 10G03G06G07G08G10G11G13G19G23G28
   3765548.12347   2930397.54544  22562781.6484                   22562780.1414
   4196325.22746   3264262.53243  24579973.7584                   24579972.6414
  -2476439.90548  -1910274.14746  21133874.8984                   21133871.5824
  -3499789.91347  -2705882.14345  22707527.1254                   22707524.8444
   1976019.49446   1542847.58443  24661261.8754                   24661262.8834
  -3785478.99846  -2910114.14044  23290505.0704                   23290504.5744
   1876540.33748   1466199.93046  20602275.1884                   20602272.2734
    727948.77248    575768.70046  21149348.0554                   21149343.4264
   4057844.16348   3157059.97945  22040768.5554                   22040765.5984
  -2757245.07247  -2113861.56944  23448346.1954                   23448344.8284
 11  8 17 17 16  0.0000000  0 10G03G06G07G08G10G11G13G19G23G28
   3789825.32547   2949314.79044  22567401.1484                   22567399.9414
   4226145.57846   3287499.16842  24585648.3674                   24585647.7854
  -2591344.23548  -1999809.99646  21112009.3134                   21112006.5904
  -3640454.93147  -2815491.21445  22680759.3444                   22680757.1134
   1958686.36946   1529341.13343  24657963.8754                   24657964.8484
  -3930049.92847  -3022766.78144  23262994.5554                   23262992.5314
   1864819.47048   1457066.75346  20600044.2894                   20600041.7624
    692796.03048    548376.94246  21142658.5474                   21142654.1914
   4087809.84548   3180409.77545  22046470.7344                   22046467.4184
  -2876443.26147  -2206743.22944  23425663.7894                   23425662.3014
 11  8 17 17 16 30.0000000  0 10G03G06G07G08G10G11G13G19G23G28
   3814421.20546   2968480.33744  22572081.9384                   22572080.1294
   4256135.03946   3310867.46143  24591355.0004                   24591353.9734
  -2706092.15248  -2089223.93746  21090173.5634                   21090170.3954
  -3781133.03147  -2925110.49745  22653988.8914                   22653987.2664
   1941547.26546   1515985.92743  24654702.5944                   24654702.8444
  -4074500.49047  -3135325.55543  23235506.5084                   23235505.0554
   1853625.78448   1448344.36446  20597914.3134                   20597911.3634
    658225.29348    521438.69346  21136079.8914                   21136075.8714
   4118072.66648   3203991.09145  22052229.9224                   22052226.4414
  -2995436.36946  -2299465.09544  23403020.8524                   23403018.5634
 11  8 17 17 17  0.0000000  0 10G03G06G07G08G10G11G13G19G23G28
   3839330.98947   2987890.51444  22576822.4844                   22576820.0744
   4286288.97646   3334364.04342  24597094.0164                   24597093.3594
  -2820683.64548  -2178516.01446  21068367.5314                   21068364.6804
  -3921825.00147  -3034740.57345  22627216.1954                   22627214.4804
   1924596.93046   1502777.76143  24651477.0164                   24651478.1484
  -4218829.87647  -3247789.93444  23208041.4384                   23208040.7704
   1842955.18648   1440029.58046  20595883.6954                   20595881.1214
    624233.47948    494951.54946  21129611.3284                   21129607.4964
   4148627.62148   3227800.06845  22058044.4534                   22058040.4924
  -3114226.91547  -2392029.10144  23380415.7114                   23380413.6884
 11  8 17 17 17 30.0000000  0 10G03G06G07G08G10G11G13G19G23G28
   3864550.17746   3007541.76544  22581620.8204                   22581619.8594
   4316603.56646   3357985.72742  24602861.7974                   24602862.0514
  -2935119.07448  -2267686.47846  21046591.2504                   21046588.6294
  -4062531.57947  -3144382.05745  22600440.3674                   22600438.9534
   1907831.06247   1489713.38043  24648286.7274                   24648286.7344
  -4363036.33547  -3360158.49844  23180599.4694                   23180597.8984
   1832804.64548   1432120.03046  20593952.5784                   20593949.7234
    590817.57648    468913.17046  21123252.6724                   21123248.8284
   4179470.58448   3251833.45445  22063913.3524                   22063909.5704
  -3232816.83847  -2484436.76944  23357848.1564                   23357846.5204
 11  8 17 17 18  0.0000000  0 10G03G06G07G08G10G11G13G19G23G28
   3890074.29046   3027430.67944  22586478.4064                   22586476.6844
   4347074.94146   3381729.60942  24608662.2664                   24608660.5784
  -3049397.69148  -2356734.75046  21024844.6884                   21024841.6054
  -4203252.86647  -3254034.99145  22573662.6954                   22573660.5744
   1891245.81946   1476789.70643  24645130.6564                   24645130.0554
  -4507118.25046  -3472430.05144  23153182.1484                   23153180.9844
   1823170.94448   1424613.21846  20592118.8204                   20592116.7304
    557974.79648    443321.38546  21117003.0164                   21116998.7734
   4210597.43447   3276088.05345  22069837.0474                   22069833.2774
  -3351207.69947  -2576689.32844  23335319.2274                   23335317.6174
 11  8 17 17 18 30.0000000  0 10G03G06G07G08G10G11G13G19G23G28
   3915895.74046   3047551.21844  22591391.3674                   22591390.2704
   4377695.67646   3405589.91042  24614488.5234                   24614487.4144
  -3163522.93048  -2445663.49846  21003127.2274                   21003124.8284
  -4343992.46247  -3363702.19745  22546880.7034                   22546877.8674
   1874833.25646   1464000.67343  24642006.8914                   24642007.8554
  -4651077.74247  -3584606.17344  23125786.8594                   23125785.4024
   1814047.32448   1417503.86346  20590383.1094                   20590380.4304
    525698.36448    418170.90746  21110861.0084                   21110856.8484
   4242000.35548   3300557.75845  22075812.5634                   22075809.4024
  -3469405.36547  -2668791.31544  23312826.5704                   23312825.1134
 11  8 17 17 19  0.0000000  0 10G03G06G07G08G10G11G13G19G23G28
   3942013.32047   3067902.52744  22596361.6484                   22596360.8404
   4408465.02246   3429565.93842  24620343.2114                   24620343.9024
  -3277491.15348  -2534469.89846  20981439.6644                   20981436.4574
  -4484747.29247  -3473381.26445  22520095.7504                   22520093.1374
   1858592.71847   1451345.60643  24638917.1724                   24638916.8204
  -4794909.91047  -3696683.12444  23098416.8914                   23098415.4774
   1805433.87248   1410792.05146  20588744.0394                   20588741.3554
    493989.27648    393462.51246  21104827.3054                   21104822.7934
   4273678.33047   3325241.79645  22081840.6884                   22081837.2974
  -3587408.48347  -2760741.73844  23290371.7664                   23290370.0594
 11  8 17 17 19 30.0000000  0 10G03G06G07G08G10G11G13G19G23G28
   3968420.54547   3088479.51444  22601387.0164                   22601386.0004
   4439376.88445   3453653.00042  24626226.1414                   24626226.2154
  -3391304.60848  -2623155.72346  20959781.8594                   20959778.6884
  -4625520.12047  -3583074.36445  22493307.7974                   22493305.5314
   1842517.46946   1438819.34743  24635858.4774                   24635858.4844
  -4938615.67047  -3808661.54744  23071070.6884                   23071069.2894
   1797324.81648   1404473.25946  20587200.9454                   20587197.9104
    462842.31448    369192.13546  21098900.1564                   21098896.0634
   4305624.91447   3350135.13245  22087919.9454                   22087916.2114
  -3705221.22247  -2852543.82044  23267952.5474                   23267950.6334
 11  8 17 17 20  0.0000000  0 10G03G06G07G08G10G11G13G19G23G28
   3995114.92947   3109280.27544  22606466.2194                   22606465.7424
   4470429.01445   3477849.41842  24632134.5084                   24632134.7894
  -3504961.04648  -2711719.18046  20938153.8984                   20938151.3524
  -4766309.28647  -3692780.19245  22466516.1094                   22466513.8324
   1826605.23946   1426420.10143  24632829.4844                   24632830.8134
  -5082191.17147  -3920538.49644  23043748.4144                   23043748.2074
   1789718.60248   1398546.30946  20585753.2734                   20585750.8674
    432256.33948    345358.88846  21093079.1334                   21093076.1334
   4337837.29347   3375235.59945  22094050.0784                   22094046.5784
  -3822843.80947  -2944197.74744  23245569.1564                   23245568.2274
 11  8 17 17 20 30.0000000  0 10G03G06G07G08G10G11G13G19G23G28
   4022088.13847   3130298.33644  22611599.8364                   22611598.0474
   4501613.90945   3502149.26242  24638069.0164                   24638068.9144
  -3618464.17748  -2800163.17746  20916554.2734                   20916551.6254
  -4907119.08447  -3802502.09145  22439720.8524                   22439719.0824
   1810848.28146   1414141.91543  24629831.0164                   24629831.8594
  -5225638.90647  -4032315.86644  23016452.2734                   23016450.7384
   1782608.67248   1393006.05946  20584400.2584                   20584397.4844
    402224.08848    321957.12046  21087364.6884                   21087360.4694
   4370307.54747   3400536.99645  22100228.8984                   22100226.2304
  -3940281.88647  -3035707.86344  23223221.6174                   23223219.0314
 11  8 17 17 21  0.0000000  0 10G03G06G07G08G10G11G13G19G23G28
   4049334.18547   3151528.96744  22616784.1094                   22616782.9184
   4532925.76345   3526548.02042  24644027.8914                   24644027.2734
  -3731815.20048  -2888488.65546  20894984.7664                   20894982.6214
  -5047951.31047  -3912241.46545  22412921.3444                   22412919.0594
   1795240.18446   1401979.68243  24626861.4534                   24626862.9844
  -5368958.94147  -4143993.77744  22989178.8134                   22989177.4384
   1775989.30848   1387848.07246  20583140.6884                   20583137.8874
    372741.39148    298983.58046  21081754.0784                   21081749.6844
   4403029.74747   3426034.70145  22106455.2504                   22106451.8284
  -4057539.65547  -3127077.51144  23200908.4454                   23200906.3404
 11  8 17 17 21 30.0000000  0 10G03G06G07G08G10G11G13G19G23G28
   4076852.46647   3172971.73344  22622020.8914                   22622020.1294
   4564364.19345   3551045.44942  24650010.0784                   24650008.8714
  -3845010.33148  -2976692.64246  20873444.5634                   20873441.6454
  -5188802.46747  -4021995.59445  22386118.1954                   22386115.9414
   1779780.31946   1389932.90843  24623919.6254                   24623920.0234
  -5512146.02947  -4255568.05844  22961931.2734                   22961930.1524
   1769860.81648   1383072.59646  20581974.2664                   20581972.1604
    343808.72947    276438.64646  21076248.5864                   21076244.5274
   4436003.20547   3451728.19345  22112730.8204                   22112727.6484
  -4174615.24947  -3218305.14844  23178629.8914                   23178627.4024
 11  8 17 17 22  0.0000000  0 10G03G06G07G08G10G11G13G19G23G28
   4104638.45347   3194623.08244  22627308.3204                   22627307.3524
   4595925.22045   3575638.41343  24656015.8204                   24656015.2894
  -3958049.54148  -3064775.14046  20851934.1254                   20851931.1954
  -5329673.04047  -4131764.83945  22359311.9924                   22359309.6604
   1764464.53446   1377998.45543  24621005.4064                   24621005.7624
  -5655198.91347  -4367037.79244  22934708.3524                   22934708.1094
   1764219.61448   1378676.81046  20580901.1724                   20580899.1884
    315422.78147    254319.70546  21070847.1334                   21070842.9574
   4469223.51747   3477614.05145  22119052.5004                   22119048.8634
  -4291510.80147  -3309392.53744  23156385.5704                   23156382.5354
 11  8 17 17 22 30.0000000  0 10G03G06G07G08G10G11G13G19G23G28
   4132687.12447   3216479.14244  22632645.9064                   22632644.8954
   4627604.38545   3600323.43442  24662045.5784                   24662044.7814
  -4070933.06748  -3152736.32546  20830452.7194                   20830449.9454
  -5470563.56547  -4241549.65445  22332501.0944                   22332499.3094
   1749288.17656   1366172.69853  24618118.0004                   24618118.4304
  -5798116.21747  -4478401.86544  22907512.3284                   22907510.9534
   1759061.77148   1374657.66746  20579919.6334                   20579917.4064
    287579.80748    232623.88146  21065548.5164                   21065544.5704
   4502685.81247   3503688.44545  22125419.6024                   22125416.6524
  -4408229.08647  -3400341.79944  23134174.3204                   23134172.4774
 11  8 17 17 23  0.0000000  0 10G03G06G07G08G10G11G13G19G23G28
   5736415.71247   4466137.70844  22937825.4614                   22937824.3244
   6234819.34945   4852698.63342  24967888.6254                   24967886.6724
  -2608234.25548  -2012971.01846  21108794.9924                   21108791.9224
  -4036047.07047  -3123744.59245  22605480.0704                   22605477.8874
   3309669.60346   2582054.18243  24915047.7504                   24915048.8364
  -4365469.29246  -3362053.53144  23180136.2814                   23180134.9454
   3329806.56248   2598614.60346  20878822.7734                   20878820.0434
   1835700.13647   1438951.40046  21360145.9384                   21360142.3754
   6111807.33547   4757549.26545  22431625.5944                   22431622.5864
  -2949345.65147  -2263549.42444  23411790.6644                   23411788.4064
 11  8 17 17 23 30.0000000  0 10G03G06G07G08G10G11G13G19G23G28
   5764980.20047   4488395.69444  22943261.1414                   22943260.1724
   6266726.33245   4877561.18842  24973958.6564                   24973958.3754
  -2720802.41848  -2100686.47546  21087373.9144                   21087371.3284
  -4176975.06447  -3233558.58345  22578662.4384                   22578660.6884
   3294761.95746   2570437.78943  24912211.7274                   24912212.3914
  -4508107.98347  -3473200.50344  23152993.0554                   23152991.8014
   3325608.48948   2595343.33646  20878023.7504                   20878021.4224
   1808937.15947   1418097.12046  21355053.3134                   21355049.3794
   6145743.63347   4783993.01845  22438083.5004                   22438080.6484
  -3065712.43047  -2354224.78744  23389646.8204                   23389644.8204
 11  8 17 17 24  0.0000000  0 10G03G06G07G08G10G11G13G19G23G28
   5793796.64447   4510850.01044  22948744.5784                   22948744.2154
   6298742.03345   4902508.47342  24980051.4694                   24980050.8094
  -2833211.35348  -2188277.85946  21065983.2344                   21065980.6454
  -4317921.14947  -3343386.71245  22551841.2034                   22551840.1334
   3279983.09746   2558921.69943  24909399.4224                   24909400.2584
  -4650604.12947  -3584236.42044  23125876.7034                   23125875.4844
   3321885.60048   2592442.33946  20877315.2814                   20877312.6994
   1782710.44948   1397660.71046  21350062.3834                   21350058.2624
   6179911.20247   4810616.99245  22444585.9224                   22444582.4264
  -3181905.63847  -2444764.89044  23367535.2584                   23367534.6134
 11  8 17 17 24 30.0000000  0  9G03G07G08G10G11G13G19G23G28
   5822865.46247   4533500.92544  22954276.7734                   22954275.6334
  -2945456.37348  -2275741.51346  21044623.9454                   21044620.6804
  -4458880.96947  -3453225.52245  22525017.4924                   22525015.7854
   3265333.84746   2547506.55943  24906611.9694                   24906613.0984
  -4792951.46347  -3695156.34844  23098788.0164                   23098787.4804
   3318639.54548   2589912.90046  20876697.9924                   20876695.1334
   1757021.77248   1377643.53846  21345174.3364                   21345169.3634
   6214310.59847   4837421.60045  22451132.1884                   22451129.0274
  -3297922.50347  -2535167.62444  23345458.8984                   23345455.5554
 11  8 17 17 25  0.0000000  0  9G03G07G08G10G11G13G19G23G28
   5852180.55647   4556343.83744  22959855.1414                   22959853.4614
  -3057539.42847  -2363078.95946  21023295.2424                   21023292.4264
  -4599856.96147  -3563076.94445  22498190.7194                   22498188.6414
   3250807.48646   2536187.27343  24903848.4534                   24903848.4454
  -4935150.68147  -3805960.89744  23071729.3524                   23071727.9734
   3315864.08448   2587750.15846  20876169.3134                   20876166.9264
   1731865.27648   1358041.06246  21340386.8524                   21340382.7304
   6248935.01947   4864401.56545  22457720.9384                   22457717.6134
  -3413767.58247  -2625436.45644  23323413.6564                   23323412.3134
 11  8 17 17 25 30.0000000  0  9G03G07G08G10G11G13G19G23G28
   5881745.03247   4579381.02444  22965481.0634                   22965479.7344
  -3169452.09148  -2450283.63846  21001999.1484                   21001996.2234
  -4740841.13947  -3672934.70645  22471362.5864                   22471360.5824
   3236407.44846   2524966.33743  24901107.3054                   24901107.6094
  -5077192.04247  -3916642.38344  23044699.7274                   23044698.1804
   3313563.56648   2585957.50146  20875731.5314                   20875729.2584
   1707245.77547   1338857.02846  21335702.2734                   21335697.5274
   6283788.15847   4891559.73545  22464353.2664                   22464349.8164
  -3529435.15847  -2715566.96144  23301402.5164                   23301400.2344
 11  8 17 17 26  0.0000000  0  9G03G07G08G10G11G13G19G23G28
   5911562.53047   4602615.38044  22971154.9614                   22971153.4774
  -3281186.15248  -2537349.13746  20980736.5704                   20980733.6954
  -4881825.95447  -3782792.99245  22444533.5234                   22444531.7274
   3222137.67246   2513847.01043  24898392.3364                   24898392.1254
  -5219066.13647  -4027193.56044  23017701.5474                   23017700.5784
   3311742.69348   2584538.59446  20875385.4614                   20875382.4264
   1683168.05547   1320095.14146  21331120.5164                   21331115.8364
   6318873.99147   4918899.21745  22471029.1564                   22471026.3874
  -3644919.05447  -2805554.38244  23279426.9224                   23279424.9884
 11  8 17 17 26 30.0000000  0  9G03G07G08G10G11G13G19G23G28
   5941625.80147   4626041.24244  22976876.2274                   22976874.8054
  -3392744.52347  -2624277.74046  20959508.1484                   20959504.7114
  -5022814.84147  -3892654.43145  22417704.3444                   22417702.0984
   3207990.56246   2502823.17843  24895700.4144                   24895700.6254
  -5360774.71546  -4137615.75144  22990735.6804                   22990734.2384
   3310394.53848   2583488.03446  20875128.8594                   20875126.2854
   1659625.54147   1301750.32146  21326639.9454                   21326636.1294
   6354184.43347   4946413.73645  22477749.5164                   22477745.9774
  -3760224.63747  -2895402.87044  23257483.8134                   23257483.5784
 11  8 17 17 27  0.0000000  0  9G03G07G08G10G11G13G19G23G28
   5971929.55246   4649654.50344  22982643.3914                   22982641.2624
  -3504127.39747  -2711069.58746  20938312.2974                   20938308.6414
  -5163808.04147  -4002519.25245  22390874.2114                   22390871.9804
   3193961.69746   2491891.45943  24893029.9694                   24893031.2704
  -5502316.50546  -4247907.97444  22963800.5634                   22963800.1804
   3309514.94548   2582802.58646  20874961.5634                   20874959.3014
   1636614.69547   1283819.77546  21322261.4924                   21322257.2424
   6389714.76947   4974099.58545  22484510.7274                   22484508.1454
  -3875354.76847  -2985114.60344  23235576.9454                   23235574.8134
 11  8 17 17 27 30.0000000  0  9G03G07G08G10G11G13G19G23G28
   6002469.77746   4673452.00444  22988454.7734                   22988453.0704
  -3615334.33547  -2797724.34446  20917150.5084                   20917147.6844
  -5304805.72147  -4112387.55845  22364043.5634                   22364041.8444
   3180046.31845   2481048.21542  24890382.3364                   24890383.0354
  -5643690.00046  -4358069.10744  22936898.3134                   22936897.0784
   3309100.45648   2582479.56546  20874882.7114                   20874880.3284
   1614132.30247   1266301.01446  21317983.4774                   21317979.2114
   6425460.66347   5001953.37845  22491312.9774                   22491309.2854
  -3990311.28647  -3074691.08244  23213700.5784                   23213698.0124
 11  8 17 17 28  0.0000000  0  9G03G07G08G10G11G13G19G23G28
   6033239.54047   4697428.41244  22994309.6564                   22994309.1214
  -3726367.46447  -2884243.66046  20896021.4614                   20896018.2814
  -5445810.56847  -4222261.44745  22337210.4064                   22337208.8164
   3166237.95846   2470288.35242  24887754.8204                   24887754.9694
  -5784896.09146  -4468099.76144  22910026.8284                   22910026.4654
   3309144.74248   2582514.02646  20874890.9614                   20874888.9924
   1592172.31047   1249189.31346  21313804.7034                   21313799.9734
   6461415.47847   5029969.99345  22498154.8364                   22498151.7344
  -4105098.99547  -3164136.04144  23191857.6954                   23191855.9884
 11  8 17 17 28 30.0000000  0  9G03G07G08G10G11G13G19G23G28
   6064231.93846   4721578.28444  23000207.4774                   23000206.2624
  -3837229.39648  -2970629.58346  20874925.2114                   20874922.4534
  -5586825.21247  -4332142.97345  22310376.6954                   22310374.7114
   3152529.70446   2459606.44343  24885146.2974                   24885146.9964
  -5925935.73047  -4578000.69944  22883188.5554                   22883187.1684
   3309641.55248   2582901.10246  20874985.6174                   20874983.4964
   1570728.90447   1232480.16446  21309723.7814                   21309720.1454
   6497572.04347   5058143.82945  22505035.3984                   22505032.1334
  -4219722.69247  -3253453.17244  23170045.3914                   23170043.3754
 11  8 17 17 29  0.0000000  0 10G03G24G07G08G10G11G13G19G23G28
   6095442.25446   4745897.93744  23006146.3524                   23006145.0394
   4552853.27756   3558866.38053  24348555.9384                   24348559.9104
  -3947920.02548  -3056882.02846  20853861.5704                   20853858.4844
  -5727850.14547  -4442032.51145  22283540.4614                   22283538.6564
   3138917.14956   2448999.21552  24882556.3134                   24882556.8754
  -6066807.65646  -4687770.95844  22856381.8444                   22856380.6454
   3310586.81648   2583637.60846  20875165.5314                   20875163.5904
   1549798.24848   1216170.53946  21305740.9064                   21305736.5984
   6533925.25547   5086470.85144  22511953.3204                   22511951.1174
  -4334184.91347  -3342644.49744  23148264.1884                   23148261.9264
 11  8 17 17 29 30.0000000  0 10G03G24G07G08G10G11G13G19G23G28
   6126862.46746   4770381.14943  23012125.5634                   23012124.1454
   4411191.79945   3448480.90943  24321597.6954                   24321602.1054
  -4058442.47348  -3143003.41846  20832829.5784                   20832826.7664
  -5868889.04347  -4551932.93645  22256702.0234                   22256699.3634
   3125391.97346   2438460.00643  24879982.8984                   24879983.1604
  -6207514.36546  -4797412.48844  22829606.1174                   22829604.5514
   3311973.18448   2584717.85146  20875429.1724                   20875426.4614
   1529373.33048   1200255.02246  21301854.2584                   21301850.6024
   6570467.33547   5114945.07144  22518907.3834                   22518904.6294
  -4448491.28347  -3431714.36344  23126512.6804                   23126509.8404
 11  8 17 17 30  0.0000000  0 10G03G24G07G08G10G11G13G19G23G28
   6158478.19946   4795016.71844  23018142.1024                   23018141.9884
   4269412.87645   3338004.07042  24294617.5394                   24294621.8674
  -4168806.38647  -3229001.26646  20811828.1414                   20811825.0124
  -6009951.90547  -4661852.03645  22229858.2894                   22229856.1484
                                  24877422.5004                   24877423.5004
  -6348064.01447  -4906931.62344  22802860.1884                   22802859.3554
   3313787.00648   2586131.18246  20875774.7664                   20875772.4734
   1509441.20047   1184723.46646  21298061.2894                   21298057.0124
   6607184.51147   5143555.72344  22525894.0084                   22525891.7664
  -4562654.04847  -3520672.33945  23104788.3054                   23104786.5474
 11  8 17 17 30 30.0000000  0  9G03G24G07G08G11G13G19G23G28
   6190290.08046   4819805.19143  23024195.9064                   23024195.3834
   4127522.66646   3227440.30942  24267616.1094                   24267620.1684
  -4279006.44947  -3314871.43946  20790858.2274                   20790855.4614
  -6151034.23047  -4771786.30145  22203011.8984                   22203009.2814
  -6488450.01047  -5016323.24344  22776145.5864                   22776144.2734
   3316029.38048   2587878.44146  20876201.0554                   20876198.8554
   1490002.81647   1169576.67546  21294362.2584                   21294358.5004
   6644076.84347   5172302.85944  22532914.6094                   22532911.3914
  -4676670.61047  -3609516.40344  23083090.9534                   23083089.6174
 11  8 17 17 31  0.0000000  0  9G03G24G07G08G11G13G19G23G28
   6222294.36846   4844743.51243  23030285.8524                   23030284.9024
   3985523.01445   3116791.36742  24240594.0084                   24240599.0474
  -4389041.69847  -3400613.19846  20769918.7734                   20769916.2384
  -6292134.98547  -4881734.93845  22176161.1334                   22176158.8914
  -6628669.94847  -5125585.45044  22749462.6174                   22749460.8634
   3318697.39948   2589957.35946  20876708.9304                   20876706.2074
   1471055.57047   1154812.56546  21290756.9224                   21290752.6764
   6681140.55747   5201183.53344  22539967.5164                   22539965.4774
  -4790542.09747  -3698247.40945  23061422.4924                   23061421.0164
 11  8 17 17 31 30.0000000  0  9G03G24G07G08G11G13G19G23G28
   6254501.59947   4869839.98343  23036415.1174                   23036413.1994
   3843429.72345   3006069.46942  24213554.7734                   24213559.7934
  -4498897.37448  -3486215.02746  20749013.8674                   20749011.4414
  -6433239.35147  -4991686.37545  22149309.5004                   22149307.6134
  -6768708.05547  -5234705.98944  22722814.6334                   22722812.7274
   3321801.94248   2592376.43446  20877299.6414                   20877297.3164
   1452610.64147   1140439.88146  21287246.5394                   21287242.7894
   6718385.87047   5230205.70344  22547055.2274                   22547053.3054
  -4904256.15247  -3786855.73744  23039783.2424                   23039781.5274
 11  8 17 17 32  0.0000000  0  9G03G24G07G08G11G13G19G23G28
   6286919.61546   4895100.74243  23042583.7974                   23042582.3204
   3701256.57246   2895285.35043  24186501.3444                   24186505.4064
  -4608560.39547  -3571666.72746  20728145.9224                   20728143.1214
  -6574335.09547  -5101631.09945  22122459.7974                   22122457.9774
  -6908550.04047  -5343673.70244  22696203.1414                   22696201.5084
   3325351.11548   2595141.97146  20877974.8444                   20877972.8094
   1434677.20847   1126465.76546  21283834.3914                   21283830.2854
   6755821.06847   5259375.85844  22554178.9614                   22554176.6294
  -5017802.84147  -3875333.63545  23018176.1334                   23018174.2774
 11  8 17 17 32 30.0000000  0  9G03G24G07G08G11G13G19G23G28
   6319542.48746   4920521.05443  23048791.5704                   23048791.6054
   3559003.18446   2784438.69843  24159431.1884                   24159434.6604
  -4718032.09448  -3656969.35146  20707313.9384                   20707311.2624
  -6715423.90147  -5211570.42945  22095611.8914                   22095609.9734
  -7048195.93947  -5452488.61444  22669628.9844                   22669628.2034
   3329339.65348   2598249.87046  20878734.2344                   20878731.3874
   1417249.83948   1112885.98146  21280517.8674                   21280513.8284
   6793439.81747   5288689.02844  22561338.2734                   22561335.4024
  -5131185.92947  -3963684.06445  22996599.6644                   22996598.3204
 11  8 17 17 33  0.0000000  0  9G03G24G07G08G11G13G19G23G28
   6352365.27746   4946097.20843  23055037.4454                   23055036.2074
   3416669.82646   2673529.62243  24132345.7734                   24132349.7894
  -4827312.96748  -3742123.28846  20686518.7194                   20686515.2154
  -6856506.60647  -5321504.98545  22068764.8364                   22068762.4184
  -7187644.97747  -5561150.14844  22643093.0554                   22643091.6644
   3333763.33948   2601696.84346  20879576.3984                   20879573.3054
   1400324.29148   1099697.22146  21277297.1174                   21277292.5234
   6831237.17447   5318141.36144  22568530.5864                   22568528.1214
  -5244408.23847  -4051909.21044  22975054.1804                   22975052.4024
 11  8 17 17 33 30.0000000  0  9G03G24G07G08G11G13G19G23G28
   6385384.62547   4971826.55043  23061321.1954                   23061320.3054
   3274259.12646   2562560.33443  24105245.9384                   24105250.2034
  -4936401.78848  -3827127.55346  20665759.4454                   20665756.7034
  -6997582.31147  -5431434.10345  22041918.2894                   22041916.6844
  -7326894.59247  -5669656.28444  22616594.8524                   22616593.1764
   3338619.14548   2605480.55046  20880500.5164                   20880497.6994
   1383898.07848   1086897.56446  21274171.0474                   21274167.1724
   6869209.76347   5347730.25144  22575756.6804                   22575754.6054
  -5357470.82347  -4140009.87444  22953538.7894                   22953537.5044
 11  8 17 17 34  0.0000000  0  9G03G24G07G08G11G13G19G23G28
   6418590.99746   4997701.57843  23067640.4614                   23067638.1914
   3131767.16546   2451527.79743  24078129.7424                   24078134.5044
  -5045303.24548  -3911985.82546  20645036.1804                   20645033.2734
  -7138656.01747  -5541361.64545  22015072.9774                   22015071.5234
  -7465948.46247  -5778009.88044  22590133.3054                   22590131.3594
   3343897.61448   2609593.59246  20881504.8834                   20881502.3714
   1367962.53148   1074480.24146  21271138.9144                   21271134.3164
   6907347.71347   5377447.97545  22583014.1804                   22583012.0634
  -5470381.36646  -4227992.09644  22932052.2344                   22932050.5704
 11  8 17 17 34 30.0000000  0  9G03G24G07G08G11G13G19G23G28
   8027401.81946   6251320.30343  23373787.2584                   23373786.1524
   4564622.75546   3568038.79743  24350792.9144                   24350797.5314
  -3578590.62448  -2769092.88146  20924142.2274                   20924139.5704
  -5704300.26647  -4423681.83645  22288022.3134                   22288020.1804
  -6029377.78847  -4658604.07044  22863503.6724                   22863502.5354
   4925017.93948   3841635.35946  21182382.0634                   21182379.6804
   2927937.09548   2290044.82146  21567992.1174                   21567987.9104
   8521068.18947   6634892.33545  22890094.6094                   22890092.6994
  -4007715.56047  -3088252.46144  23210388.6254                   23210386.5234
 11  8 17 17 35  0.0000000  0  9G03G24G07G08G11G13G19G23G28
   8060976.56846   6277482.38943  23380176.2664                   23380174.5784
   4421979.75746   3456888.54343  24323649.0084                   24323653.4414
  -3687108.33748  -2853652.12646  20903492.3284                   20903489.2774
  -5845361.97847  -4533600.04345  22261178.7274                   22261176.9264
  -6168028.19847  -4766643.26444  22837119.5554                   22837118.3554
   4931138.44548   3846404.54246  21183546.3834                   21183544.4264
   2912979.36648   2278389.44846  21565145.6564                   21565141.1254
   8559531.36647   6664863.47344  22897414.4224                   22897411.8324
  -4120321.10446  -3175997.01744  23188960.2584                   23188958.2664
 11  8 17 17 35 30.0000000  0  9G03G24G07G08G11G13G19G23G28
   8094728.80446   6303782.73643  23386598.6174                   23386598.2074
   4279262.58746   3345680.40642  24296491.6174                   24296495.1214
  -3795434.16748  -2938061.87046  20882878.9614                   20882875.4344
  -5986418.26247  -4643514.01445  22234337.1094                   22234334.7234
  -6306475.10447  -4874523.88044  22810773.7734                   22810771.9614
   4937673.33448   3851496.62346  21184790.6564                   21184788.2194
   2898504.41847   2267110.23646  21562391.3444                   21562387.2344
   8598150.08947   6694955.82344  22904763.3364                   22904761.3244
  -4232778.01147  -3263625.75344  23167560.5704                   23167559.0004
 11  8 17 17 36  0.0000000  0  9G03G24G07G08G11G13G19G23G28
   8128654.35446   6330218.21843  23393055.0864                   23393052.8834
   4136473.07245   3234415.96743  24269318.9694                   24269322.7774
  -3903567.89348  -3022321.91046  20862301.5394                   20862298.8324
  -6127468.50947  -4753423.28045  22207495.4454                   22207494.0744
  -6444716.44947  -4982244.32744  22784466.6024                   22784465.9144
   4944619.46748   3856909.13746  21186112.0704                   21186109.8444
   2884509.60248   2256205.18346  21559728.0084                   21559724.0904
   8636920.14947   6725166.07544  22912141.5314                   22912138.8874
  -4345088.16946  -3351140.15844  23146189.3204                   23146186.0554
 11  8 17 17 36 30.0000000  0  9G03G24G07G08G11G13G19G23G28
   8162752.35247   6356788.01743  23399543.7344                   23399542.3874
   3993615.51046   3123098.53443  24242134.1564                   24242138.7154
  -4011505.48348  -3106429.12546  20841761.2814                   20841758.7464
  -6268509.75547  -4863325.53545  22180656.3984                   22180654.7854
  -6582747.66347  -5089801.05044  22758200.7894                   22758199.2424
   4951975.77448   3862641.27346  21187512.2814                   21187509.8914
   2870994.09548   2245673.59146  21557156.1174                   21557151.8984
   8675840.76247   6755493.65545  22919548.3444                   22919546.0044
  -4457250.62247  -3438539.43144  23124845.6954                   23124843.3054
 11  8 17 17 37  0.0000000  0  9G03G24G07G08G11G13G19G23G28
   8197018.59947   6383488.92243  23406064.1024                   23406063.8014
   3850691.97546   3011729.69343  24214936.5634                   24214939.2304
  -4119246.11548  -3190382.86146  20821258.9224                   20821256.3164
  -6409541.10647  -4973220.07945  22153819.2814                   22153816.8404
  -6720566.62647  -5197192.37844  22731974.8444                   22731973.2344
   4959738.54747   3868690.13346  21188988.8984                   21188986.9614
   2857954.63047   2235512.94246  21554675.1414                   21554671.1884
   8714907.76447   6785935.30744  22926982.0474                   22926979.7154
  -4569267.20247  -3525825.04144  23103529.5704                   23103526.4414
 11  8 17 17 37 30.0000000  0  9G03G24G07G08G11G13G19G23G28
   8231450.40246   6410318.83843  23412616.9614                   23412615.1684
   3707704.95946   2900311.30643  24187726.9534                   24187729.1484
  -4226788.04448  -3274181.77646  20800794.6954                   20800792.0164
  -6550561.40447  -5083106.02445  22126983.9454                   22126982.0164
  -6858170.45947  -5304416.05844  22705788.4614                   22705788.1024
   4967905.39148   3875053.86046  21190543.2344                   21190541.1764
   2845389.02848   2225721.53546  21552283.9224                   21552279.8444
   8754117.92347   6816488.48144  22934443.8754                   22934441.8054
  -4681138.81247  -3612997.69444  23082240.8834                   23082239.1054
 11  8 17 17 38  0.0000000  0  9G03G24G07G08G11G13G19G23G28
   8266045.68446   6437276.14543  23419199.6334                   23419198.2034
   3564658.20146   2788846.49443  24160505.5864                   24160508.2664
  -4334128.75448  -3357823.88346  20780368.2734                   20780365.6604
  -6691568.30947  -5192981.49845  22100151.2114                   22100149.1054
  -6995555.36047  -5411469.15344  22679644.9774                   22679643.9414
   4976474.56748   3881731.08546  21192174.2274                   21192172.1844
   2833295.57848   2216298.05746  21549982.2814                   21549978.4104
   8793469.23347   6847151.68144  22941932.1724                   22941930.5474
  -4792865.38647  -3700057.32744  23060979.6024                   23060977.2384
 11  8 17 17 38 30.0000000  0  9G03G24G07G08G11G13G19G23G28
   8300801.76746   6464358.69143  23425813.4614                   23425812.8554
   3421554.77246   2677337.43543  24133274.1954                   24133277.5084
  -4441266.05748  -3441307.49746  20759980.9064                   20759978.2344
  -6832559.83647  -5302845.01545  22073321.0394                   22073319.1724
  -7132717.91147  -5518348.99044  22653544.5314                   22653543.4614
   4985443.86648   3888720.09346  21193880.6564                   21193879.0904
   2821672.71847   2207241.26446  21547770.6884                   21547766.7074
   8832958.89447   6877922.65944  22949446.4304                   22949445.6334
  -4904447.27547  -3787004.22044  23039746.0234                   23039744.5594
 11  8 17 17 39  0.0000000  0  9G03G24G07G08G11G13G19G23G28
   8335713.86146   6491562.87143  23432456.7584                   23432456.1954
   3278395.34046   2565784.80343  24106031.3674                   24106036.0664
  -4548200.20548  -3524632.82046  20739631.6884                   20739629.0124
  -6973536.62147  -5412697.04845  22046493.8524                   22046491.8364
  -7269657.58747  -5625055.17044  22627485.2894                   22627483.6294
   4994808.70348   3896017.32746  21195662.8834                   21195661.3594
   2810515.76048   2198547.50646  21545647.5004                   21545643.1174
   8872581.64446   6908797.30244  22956986.9144                   22956984.8404
  -5015887.96747  -3873841.10644  23018539.8984                   23018537.8954
 11  8 17 17 39 30.0000000  0  9G03G24G07G08G11G13G19G23G28
   8370784.82046   6518890.83343  23439131.0634                   23439130.6724
   3135188.49346   2454195.23943  24078779.8754                   24078784.0394
  -4654923.52748  -3607793.85346  20719323.4304                   20719320.3524
  -7114490.97747  -5522531.60345  22019671.5084                   22019668.7854
  -7406365.50647  -5731580.74444  22601470.9694                   22601469.7344
   5004571.80948   3903624.88946  21197520.8674                   21197519.1684
   2799828.16847   2190219.49546  21543613.8284                   21543610.1294
   8912340.73646   6939778.19044  22964553.7034                   22964550.9144
  -5127181.96147  -3960563.65444  22997361.0084                   22997359.6644
 11  8 17 17 40  0.0000000  0  9G03G24G07G08G11G13G19G23G28
   8406008.70246   6546337.93543  23445833.7504                   23445833.4964
   2991934.10046   2342568.55643  24051519.8754                   24051522.8284
  -4761437.21948  -3690791.53946  20699054.2504                   20699051.6414
  -7255424.49347  -5632349.92045  21992852.7584                   21992850.6294
  -7542841.57147  -5837925.67244  22575500.4224                   22575499.1024
   5014727.72747   3911538.53346  21199453.4144                   21199451.5744
   2789604.70147   2182253.13146  21541668.6334                   21541664.2544
   8952229.99647   6970860.56644  22972144.1094                   22972141.7194
  -5238333.55147  -4047175.26544  22976209.7894                   22976206.9454
 11  8 17 17 40 30.0000000  0  9G03G24G07G08G11G13G19G23G28
   8441379.12946   6573899.25943  23452564.9064                   23452563.8984
   2848631.29846   2230904.22043  24024250.1174                   24024254.0274
  -4867743.13248  -3773627.31946  20678824.9534                   20678822.2934
  -7396339.10647  -5742153.51145  21966037.3364                   21966035.6524
  -7679086.68647  -5944090.66144  22549573.6954                   22549571.4964
   5025270.33647   3919753.50446  21201459.5864                   21201457.8524
   2779839.37247   2174643.76046  21539810.5004                   21539806.2584
   8992242.73847   7002039.15444  22979758.0704                   22979755.9454
  -5349346.93947  -4133679.17344  22955084.9384                   22955082.1214
 11  8 17 17 41  0.0000000  0  9G03G24G07G08G11G13G19G23G28
   8476898.75546   6601576.81743  23459324.1644                   23459323.7894
   2705288.43446   2119208.71843  23996972.3594                   23996976.1524
  -4973833.53148  -3856295.16746  20658636.3204                   20658633.9694
  -7537227.86047  -5851936.94945  21939227.0634                   21939225.2274
  -7815092.34847  -6050069.04244  22523692.9694                   22523691.4344
   5036202.49748   3928272.02146  21203539.9064                   21203537.9104
   2770534.90347   2167393.51246  21538039.4694                   21538035.0944
   9032381.44747   7033315.88444  22987396.5394                   22987394.7664
  -5460217.65347  -4220071.88844  22933986.6484                   22933984.2504
 11  8 17 17 41 30.0000000  0  9G03G24G07G08G11G13G19G23G28
   8512567.92746   6629370.89343  23466112.4694                   23466110.2544
   2561911.88446   2007486.86243  23969688.8594                   23969692.7424
  -5079703.83748  -3938791.50346  20638489.6804                   20638487.1174
  -7678085.34747  -5961696.02245  21912422.7734                   21912420.4024
  -7950852.00947  -6155855.74744  22497858.3984                   22497856.8204
   5047524.89047   3937094.61146  21205695.1954                   21205692.9224
   2761693.23647   2160503.87046  21536356.7034                   21536352.6724
   9072646.52046   7064691.07744  22995058.6174                   22995056.8674
  -5570943.00747  -4306351.36545  22912916.5084                   22912913.7734
 11  8 17 17 42  0.0000000  0  9G03G24G07G08G11G13G19G23G28
   8548376.96446   6657273.99143  23472926.1954                   23472924.8954
   2418497.31046   1895735.49143  23942396.8834                   23942401.2154
  -5185358.99048  -4021120.21046  20618384.5634                   20618381.2894
  -7818917.28147  -6071435.17945  21885623.5554                   21885622.1484
  -8086369.85946  -6261454.03344  22472070.2974                   22472068.4774
   5059227.91347   3946213.80546  21207921.8984                   21207919.5984
   2753304.41747   2153967.11246  21534760.9144                   21534756.9964
   9113028.18546   7096157.08744  23002743.5084                   23002741.6094
  -5681531.06947  -4392523.82145  22891872.2424                   22891869.2424
 11  8 17 17 42 30.0000000  0  9G03G24G07G08G11G13G19G23G28
   8584326.93246   6685286.89743  23479766.7814                   23479765.4304
   2275051.06846   1783959.37142  23915100.1024                   23915103.8914
  -5290793.58248  -4103277.03446  20598320.8284                   20598317.9804
  -7959718.18647  -6181150.15045  21858830.1564                   21858828.2384
  -8221639.45747  -6366858.88444  22446329.3674                   22446327.8554
   5071312.30448   3955630.15446  21210221.5314                   21210219.1254
   2745369.47148   2147784.01646  21533250.7274                   21533247.2114
   9153526.87947   7127714.29844  23010450.0474                   23010448.2234
  -5791978.89447  -4478587.04445  22870854.7274                   22870852.1094
 11  8 17 17 43  0.0000000  0  9G03G24G07G08G11G13G19G23G28
   8620412.84546   6713405.73843  23486634.0004                   23486633.0274
   2131574.42946   1672159.52743  23887797.7584                   23887801.8284
  -5396007.49448  -4185261.89946  20578299.3524                   20578296.3444
  -8100488.55847  -6290841.34145  21832042.3674                   21832040.6684
  -8356659.71947  -6472069.43245  22420635.3754                   22420633.4844
   5083773.37248   3965340.01646  21212592.8984                   21212590.7584
   2737884.50947   2141951.55846  21531826.6804                   21531822.4414
   9194137.78647   7159358.91744  23018178.2424                   23018176.7814
  -5902289.32547  -4564543.16645  22849863.3754                   22849861.4494
 11  8 17 17 43 30.0000000  0  9G03G24G07G08G11G13G19G23G28
   8656631.60946   6741628.09743  23493525.9844                   23493525.2504
   1988069.38446   1560337.68743  23860489.0314                   23860492.4884
  -5500999.59348  -4267073.92046  20558320.2584                   20558317.5354
  -8241227.34547  -6400507.91545  21805260.7194                   21805259.2504
  -8491428.53247  -6577084.05144  22394990.0474                   22394988.4924
   5096608.02548   3975341.00145  21215034.9144                   21215033.0474
   2730846.48048   2136467.34546  21530487.2894                   21530482.9414
   9234857.31947   7191088.20744  23025927.2034                   23025925.2814
  -6012463.89547  -4650393.43445  22828898.0944                   22828895.3794
 11  8 17 17 44  0.0000000  0  9G03G24G07G08G11G13G19G23G28
   8692976.30946   6769948.56143  23500442.8204                   23500442.0594
   1844535.23946   1448493.08643  23833176.4144                   23833178.3674
  -5605771.54548  -4348714.41446  20538382.6954                   20538380.2234
  -8381936.26447  -6510151.22345  21778484.5164                   21778482.4574
  -8625946.20347  -6681903.00544  22369392.1804                   22369390.6094
   5109810.22647   3985628.37245  21217547.3754                   21217545.4924
   2724248.88548   2131326.35046  21529231.8054                   21529227.8634
   9275678.85646   7222897.00244  23033694.8834                   23033693.9924
  -6122507.15647  -4736141.39845  22807956.9064                   22807954.8524
 11  8 17 17 44 30.0000000  0  9G03G24G07G08G11G13G19G23G28
   8729446.18446   6798366.53343  23507382.0084                   23507382.1914
   1700976.47846   1336629.36543  23805857.2974                   23805859.7974
  -5710319.62748  -4430180.46546  20518487.9844                   20518484.9574
  -8522612.20747  -6619768.83545  21751714.7974                   21751712.5784
  -8760208.27647  -6786522.75344  22343842.8754                   22343841.2774
   5123378.50147   3996201.00745  21220129.2814                   21220127.5084
   2718091.17348   2126528.10546  21528059.7114                   21528056.2624
   9316601.13546   7254784.27643  23041482.7814                   23041481.3134
  -6232418.31547  -4821786.41144  22787041.4534                   22787038.6954
 11  8 17 17 45  0.0000000  0  9G03G24G07G08G11G13G19G23G28
   8766036.86046   6826878.76043  23514345.5314                   23514344.7114
   1557394.45047   1224747.45943  23778534.1644                   23778537.9924
  -5814644.15548  -4511472.30346  20498635.8914                   20498633.2894
  -8663254.94848  -6729360.58545  21724951.3204                   21724949.6684
  -8894213.69847  -6890942.49245  22318342.4844                   22318340.5514
   5137308.40747   4007055.43045  21222779.9384                   21222777.9694
   2712369.15747   2122069.36846  21526971.3054                   21526966.8284
   9357619.47046   7286746.37544  23049287.9774                   23049287.0434
  -6342199.56247  -4907330.21145  22766150.5864                   22766149.0704
 11  8 17 17 45 30.0000000  0  9G03G24G07G08G11G13G19G23G28
  10378162.71846   8083080.64543  23821122.5944                   23821122.2774
   2989215.76147   2340452.56643  24051000.3834                   24051004.2114
  -4343320.55848  -3364986.39046  20778619.0634                   20778616.3164
  -7228439.42747  -5611322.50145  21997987.9064                   21997985.8554
  -7452536.20847  -5767557.39944  22592684.2584                   22592682.4884
   6727015.81447   5245788.40745  21525291.4774                   21525289.9344
   4282499.31447   3345547.39246  21825756.7664                   21825753.3674
  10974148.48246   8546379.15344  23356903.8364                   23356902.5594
  -4876429.72047  -3765171.86145  23045077.2034                   23045076.0314
 11  8 17 17 46  0.0000000  0  9G03G24G07G08G11G13G19G23G28
  10414983.55646   8111772.02943  23828129.6884                   23828128.6994
   2845593.52946   2228539.32443  24023669.7974                   24023673.1024
  -4447194.54747  -3445927.16946  20758852.7424                   20758850.2234
  -7369013.01148  -5720860.33945  21971237.2194                   21971235.5784
  -7586021.83647  -5871572.14244  22567283.1884                   22567281.1214
   6741658.59247   5257198.30746  21528078.2114                   21528076.0944
   4277639.33548   3341760.38646  21824831.8284                   21824828.7814
  11015347.70747   8578482.16644  23364744.5944                   23364743.2704
  -4985957.22847  -3850517.93745  23024235.1804                   23024233.0084
 11  8 17 17 46 30.0000000  0  9G03G24G07G08G11G13G19G23G28
  10451914.39846   8140549.36443  23835157.1724                   23835155.9454
   2701953.97247   2116612.47843  23996336.2194                   23996339.7424
  -4550841.72148  -3526691.22246  20739129.5084                   20739126.1764
  -7509550.86447  -5830370.34445  21944493.8834                   21944491.6844
  -7719244.45347  -5975381.91944  22541931.0394                   22541930.2304
   6756652.19247   5268881.58145  21530931.4144                   21530929.7424
   4273204.53948   3338304.68246  21823988.8134                   21823984.4694
  11056631.28147   8610650.95744  23372600.1484                   23372599.1684
  -5095360.60547  -3935767.29445  23003415.8984                   23003414.3594
 11  8 17 17 47  0.0000000  0  9G03G24G07G08G11G13G19G23G28
  10488955.98746   8169412.90743  23842206.9774                   23842205.5394
   2558303.69946   2004677.38143  23969000.9774                   23969004.5704
  -4654256.43348  -3607274.11746  20719450.1644                   20719447.0984
  -7650047.70747  -5939848.38445  21917758.3284                   21917755.9024
  -7852197.58147  -6078981.72944  22516630.9144                   22516630.2544
   6771997.55947   5280838.95345  21533851.3594                   21533849.4064
   4269196.63347   3335181.59546  21823225.2814                   21823221.9694
  11098000.44747   8642886.46944  23380472.2734                   23380471.8484
  -5204636.53047  -4020917.34244  22982621.4064                   22982619.0744
 11  8 17 17 47 30.0000000  0  9G03G24G07G08G11G13G19G23G28
  10526101.31246   8198357.22943  23849275.2504                   23849274.4924
   2414641.37547   1892732.89343  23941661.9924                   23941665.0394
  -4757441.31447  -3687677.93646  20699814.8524                   20699811.7384
  -7790505.94547  -6049296.34345  21891030.3444                   21891027.8014
  -7984882.93047  -6182372.86145  22491382.1414                   22491380.9574
   6787687.60047   5293064.89945  21536837.5474                   21536835.0394
   4265608.87448   3332385.91846  21822542.8594                   21822538.5434
  11139447.15047   8675182.35044  23388360.3284                   23388358.6764
  -5313790.95447  -4105972.71044  22961850.5314                   22961847.8714
 11  8 17 17 48  0.0000000  0  9G03G24G07G08G11G13G19G23G28
  10563346.08546   8227379.07443  23856362.9064                   23856361.9454
   2270968.62646   1780780.25343  23914322.1884                   23914324.8284
  -4860395.79547  -3767902.21046  20680223.0554                   20680220.4884
  -7930925.04247  -6158713.82945  21864309.5004                   21864307.0554
  -8117298.59647  -6285553.83345  22466184.3444                   22466182.1724
   6803718.24147   5305556.25345  21539887.3134                   21539885.7734
   4262437.10947   3329914.39145  21821939.5084                   21821935.3874
  11180967.87147   8707535.90344  23396261.2734                   23396260.8634
  -5422825.46747  -4190934.66144  22941101.4384                   22941099.3364
 11  8 17 17 48 30.0000000  0  9G03G24G07G08G11G13G19G23G28
  10600690.17046   8256478.23043  23863468.7424                   23863467.8674
   2127290.46146   1668823.34043  23886980.2114                   23886984.1294
  -4963115.86248  -3847943.83046  20660676.1484                   20660673.3094
  -8071300.82547  -6268097.55445  21837596.5394                   21837594.2034
  -8249439.64447  -6388520.84444  22441038.8914                   22441036.8244
   6820088.60247   5318312.32045  21543003.0314                   21543001.0394
   4259681.27547   3327766.97445  21821414.9384                   21821411.0744
  11222561.53347   8739946.32844  23404177.1954                   23404175.7384
  -5531739.18347  -4275802.45845  22920376.0004                   22920374.4614
 11  8 17 17 49  0.0000000  0  9G03G24G07G08G11G13G19G23G28
  10638134.33546   8285655.50343  23870594.4304                   23870593.3594
   1983613.86347   1556867.77243  23859640.3754                   23859642.9964
  -5065595.66547  -3927798.23246  20641175.0314                   20641172.2854
  -8211627.68348  -6377443.14745  21810893.6564                   21810891.5044
  -8381299.14447  -6491268.47945  22415946.5474                   22415944.5824
   6836800.20947   5331334.28946  21546183.1174                   21546181.6134
   4257342.57448   3325944.58546  21820969.9224                   21820965.7274
  11264229.23047   8772414.40744  23412106.0394                   23412104.0984
  -5640528.94447  -4360573.64744  22899674.0944                   22899671.5554
 11  8 17 17 49 30.0000000  0  9G03G24G07G08G11G13G19G23G28
  10675673.48946   8314906.72643  23877738.2194                   23877736.3984
   1839939.30646   1444913.64243  23832299.9774                   23832302.5434
  -5167835.90748  -4007465.96346  20621719.3054                   20621716.0744
  -8351906.71347  -6486751.47445  21784199.1414                   21784196.6024
  -8512877.00847  -6593796.61444  22390908.1954                   22390906.4844
   6853847.63847   5344617.94745  21549427.0704                   21549425.3164
   4255415.90447   3324443.25746  21820603.4924                   21820599.8364
  11305965.39847   8804935.86344  23420048.5004                   23420047.2584
  -5749198.16147  -4445250.95044  22878994.1174                   22878992.6294
 11  8 17 17 50  0.0000000  0  9G03G24G07G08G11G13G19G23G28
  10713308.30146   8344232.46343  23884899.7894                   23884898.2034
   1696272.80747   1332965.89043  23804960.5554                   23804963.8284
  -5269831.41748  -4086942.98046  20602310.1484                   20602307.0864
  -8492132.58647  -6596018.36845  21757514.6724                   21757512.5274
  -8644166.88647  -6696100.38945  22365925.0704                   22365923.5824
   6871230.92947   5358163.31245  21552735.4224                   21552732.9804
   4253901.83547   3323263.43246  21820315.4694                   21820311.7304
  11347769.99347   8837510.60244  23428003.4924                   23428003.2194
  -5857744.82547  -4529832.76645  22858339.7034                   22858336.1254
 11  8 17 17 50 30.0000000  0  9G03G24G07G08G11G13G19G23G28
  10751035.40246   8373630.20643  23892078.2974                   23892078.0824
   1552616.88346   1221026.33143  23777624.7664                   23777627.4064
  -5371581.13548  -4166228.48946  20582947.7194                   20582944.8444
  -8632304.01148  -6705242.85345  21730841.5704                   21730839.1054
  -8775166.56447  -6798177.99845  22340995.9534                   22340995.2384
   6888946.83447   5371967.84945  21556106.2664                   21556104.7774
   4252797.27347   3322402.71546  21820105.1564                   21820101.2504
  11389640.02147   8870136.31344  23435971.1644                   23435970.5664
  -5966170.10147  -4614319.96044  22837706.7194                   22837704.8444
 11  8 17 17 51  0.0000000  0  9G03G24G07G08G11G13G19G23G28
  10788851.56546   8403097.23743  23899274.9144                   23899274.0474
   1408973.99246   1109096.94643  23750289.9144                   23750291.6334
  -5473083.34448  -4245321.13146  20563632.4384                   20563629.3204
  -8772419.60947  -6814423.83745  21704177.5394                   21704176.0354
  -8905874.10647  -6900028.00645  22316123.3754                   22316121.8874
   6906991.79747   5386028.81545  21559540.1484                   21559537.8594
   4252098.86948   3321858.47745  21819972.0474                   21819968.5474
  11431571.74447   8902810.12244  23443950.0864                   23443950.2504
  -6074475.50447  -4698713.75545  22817096.9844                   22817093.8164
 11  8 17 17 51 30.0000000  0  9G03G24G07G08G11G13G19G23G28
  10826754.97446   8432632.22543  23906488.0704                   23906486.6564
   1265348.03647    997180.68043  23722958.2194                   23722960.4104
  -5574335.37448  -4324218.81646  20544364.6334                   20544361.5434
  -8912476.31848  -6923558.92745  21677526.3284                   21677524.0824
  -9036285.17547  -7001646.96145  22291306.6484                   22291305.3244
   6925364.28647   5400344.97145  21563036.6644                   21563034.6484
   4251805.39648   3321629.76145  21819916.1414                   21819912.3634
  11473563.32846   8935530.57044  23451941.5084                   23451941.4224
  -6182660.90247  -4783014.06745  22796509.8204                   22796507.4184
 11  8 17 17 52  0.0000000  0  9G03G24G07G08G11G13G19G23G28
  10864742.00046   8462232.54643  23913716.4304                   23913715.8134
   1121741.01246    885279.22043  23695630.3524                   23695633.3164
  -5675336.49848  -4402921.00846  20525145.3754                   20525142.3914
  -9052473.58647  -7032647.68945  21650885.7274                   21650883.7344
  -9166398.06547  -7103033.60645  22266547.0164                   22266545.4654
   6944060.16347   5414913.11345  21566594.0004                   21566592.3754
   4251913.28747   3321713.81445  21819937.1024                   21819933.4734
  11515610.70246   8968294.44143  23459942.5554                   23459942.6484
  -6290728.54247  -4867222.58345  22775945.3914                   22775943.3484
 11  8 17 17 52 30.0000000  0  9G03G24G07G08G11G13G19G23G28
  10902808.33046   8491894.53143  23920960.0704                   23920959.4494
    978154.27846    773393.55043  23668306.8914                   23668309.5044
  -5776085.91247  -4481427.04746  20505973.2814                   20505969.9454
  -9192411.20048  -7141689.96945  21624256.2194                   21624253.7384
  -9296211.45446  -7204186.84545  22241844.4304                   22241842.4694
   6963075.19747   5429729.96245  21570212.8594                   21570211.1914
   4252417.87248   3322106.97845  21820033.1174                   21820028.6134
  11557709.70646   9001098.60743  23467954.3984                   23467953.8634
  -6398680.42847  -4951340.90644  22755403.3054                   22755400.2344
 11  8 17 17 53  0.0000000  0  9G03G24G07G08G11G13G19G23G28
  10940959.00245   8521622.28142  23928220.4384                   23928220.1684
    834598.08446    661531.73443  23640989.2344                   23640991.9924
  -5876574.76747  -4559730.04746  20486850.6724                   20486848.0314
  -9332279.71448  -7250678.41545  21597640.6414                   21597637.8714
  -9425715.48947  -7305099.03745  22217200.7974                   22217198.4734
   6982413.95347   5444799.05045  21573893.3914                   21573890.9654
   4253324.25948   3322813.23945  21820205.5944                   21820201.8554
  11599864.57447   9033946.26043  23475976.7034                   23475976.4734
  -6506510.34247  -5035364.21045  22734883.1414                   22734880.0514
 11  8 17 17 53 30.0000000  0  9G03G24G07G08G11G13G19G23G28
  10979187.90545   8551411.01242  23935494.3134                   23935493.7624
    691072.37747    549693.66943  23613676.8364                   23613679.8164
  -5976804.27547  -4637830.97546  20467777.6484                   20467774.5744
  -9472080.33148  -7359613.94945  21571037.1954                   21571034.4574
  -9554910.43947  -7405770.40645  22192615.5634                   22192614.0984
   7002070.10547   5460115.46245  21577633.1804                   21577632.0514
   4254626.54547   3323827.96845  21820452.9454                   21820449.3484
  11642069.10647   9066832.64643  23484007.7194                   23484007.2074
  -6614222.38347  -5119295.65845  22714386.1954                   22714383.2424
 11  8 17 17 54  0.0000000  0  9G03G24G07G08G11G13G19G23G28
  11017488.97145   8581255.89142  23942783.2194                   23942783.0824
    547576.39946    437878.74443  23586370.2504                   23586372.0784
  -6076776.45347  -4715731.38546  20448753.8524                   20448750.9024
  -9611815.00148  -7468498.08546  21544446.4064                   21544444.2814
  -9683797.07747  -7506201.51145  22168089.3984                   22168086.9064
   7022036.89047   5475673.92845  21581432.9614                   21581431.1564
   4256318.57547   3325146.41145  21820775.1804                   21820771.6334
  11684316.57947   9099752.49743  23492048.2424                   23492046.9924
  -6721821.30547  -5203138.94345  22693910.9614                   22693907.9694
 11  8 17 17 54 30.0000000  0  9G03G24G07G08G11G13G19G23G28
  11055858.06545   8611153.90242  23950083.9924                   23950083.9924
    404111.72247    326088.25043  23559070.9064                   23559072.6214
  -6176490.78948  -4793430.87046  20429778.5474                   20429775.4844
  -9751483.09148  -7577330.35746  21517868.3364                   21517866.0704
  -9812373.90347  -7606391.21045  22143621.6644                   22143619.6804
   7042310.27447   5491471.29645  21585290.9224                   21585288.6054
   4258395.99348   3326765.15545  21821170.8284                   21821166.2584
  11726603.05547   9132702.74144  23500094.5474                   23500093.9804
  -6829309.28947  -5286895.78144  22673456.1564                   22673453.6254
 11  8 17 17 55  0.0000000  0  9G03G24G07G08G11G13G19G23G28
  11094300.39045   8641108.84042  23957400.5634                   23957398.6804
    260689.40447    214330.71443  23531777.7194                   23531779.5084
  -6275937.43148  -4870921.78046  20410854.6024                   20410851.6994
  -9891074.76948  -7686103.08345  21491304.6644                   21491302.7234
  -9940630.30947  -7706331.23145  22119215.4534                   22119214.2544
   7062895.39747   5507511.58645  21589208.0864                   21589206.3794
   4260864.02447   3328688.26245  21821640.3524                   21821636.4844
  11768933.28546   9165687.03143  23508150.2584                   23508149.7344
  -6936679.46347  -5370560.83445  22653024.3834                   22653022.4534
 11  8 17 17 55 30.0000000  0  9G03G24G07G08G11G13G19G23G28
  11132811.44645   8671117.43842  23964727.5634                   23964727.2894
    117310.26447    102606.81643  23504493.7504                   23504495.4384
  -6375116.30648  -4948204.02346  20391981.8054                   20391978.6134
 -10030590.04948  -7794816.27246  21464755.6724                   21464754.0434
 -10068565.56447  -7806020.99945  22094870.0634                   22094867.7624
   7083786.58647   5523790.35245  21593183.3594                   21593181.7774
   4263718.08547   3330912.18745  21822183.5084                   21822179.0434
  11811302.46647   9198701.67843  23516213.3674                   23516212.7704
  -7043934.60247  -5454136.24145  22632615.3134                   22632612.5234
 11  8 17 17 56  0.0000000  0  9G03G24G07G08G11G13G19G23G28
  11171389.09845   8701177.87542  23972069.6484                   23972069.2974
    -26021.97446     -9080.47743  23477217.9844                   23477220.2304
  -6474025.40248  -5025276.05046  20373159.7114                   20373156.9964
 -10170026.49748  -7903468.04345  21438222.2974                   21438219.8954
 -10196176.33147  -7905457.93645  22070587.0474                   22070585.0124
   7104982.07647   5540306.24345  21597217.3524                   21597215.0664
   4266955.91347   3333435.14245  21822799.5944                   21822796.1174
  11853708.14246   9231744.81343  23524282.4304                   23524282.0314
  -7151075.01647  -5537622.26345  22612226.6954                   22612224.8914
 11  8 17 17 56 30.0000000  0  9G03G24G07G08G11G13G19G23G28
  12785447.01715                  24279214.266
   1406119.08546   1106873.76043  23749744.8204                   23749747.2344
  -4997240.71548  -3874534.75046  20654182.4844                   20654179.8984
  -8733959.04848  -6784454.44646  21711497.1484                   21711494.7274
  -8748036.96747  -6777037.64545  22346158.6174                   22346156.5594
   8701896.95547   6784655.42545  21901100.1884                   21901098.0664
   5845993.50747   4563854.00245  22123280.9924                   22123276.1174
  13471564.44746  10492411.74543  23832151.1644                   23832150.8794
  -5682679.87747  -4393418.23845  22891652.8754                   22891650.2664
 11  8 17 17 57  0.0000000  0  9G03G24G07G08G11G13G19G23G28
  12824149.179 5                  24286579.602
   1262888.46946    995265.57543  23722488.4144                   23722491.1214
  -5095605.09648  -3951182.32246  20635464.1884                   20635461.4734
  -8873232.93248  -6892979.54945  21684994.0704                   21684992.2384
  -8874991.60947  -6875963.30245  22321999.5004                   22321997.4654
   8723691.26747   6801637.93745  21905247.6024                   21905245.7234
   5849989.80547   4566967.98445  22124041.1564                   22124037.5354
  13514033.31746  10525504.10643  23840232.8984                   23840232.8244
  -5789595.40047  -4476729.00945  22871306.9694                   22871304.7704
 11  8 17 17 57 30.0000000  0  8G24G07G08G11G13G19G23G28
   1119709.75246    883697.86343  23695242.9304                   23695245.1374
  -5193698.11647  -4027618.45846  20616797.7274                   20616795.2504
  -9012426.16648  -7001441.79746  21658506.0784                   21658503.9694
  -9001617.55647  -6974632.85345  22297903.3204                   22297901.2194
   8745776.90447   6818847.43845  21909450.7194                   21909448.4494
   5854357.59347   4570371.43445  22124872.4064                   22124868.2194
  13556526.05146  10558615.06343  23848319.5394                   23848318.1454
  -5896403.24947  -4559955.91145  22850982.6254                   22850980.1994
 11  8 17 17 58  0.0000000  0  8G24G07G08G11G13G19G23G28
    976586.78246    772173.61543  23668007.1954                   23668009.7194
  -5291516.61248  -4103840.67346  20598183.4384                   20598180.7814
  -9151535.51348  -7109838.69146  21632034.9454                   21632032.4654
  -9127911.13547  -7073043.40545  22273870.3914                   22273868.7234
   8768151.90447   6836282.42845  21913708.1724                   21913706.5784
   5859095.69147   4574063.42545  22125773.8054                   22125770.3554
  13599040.80046  10591743.14143  23856409.7424                   23856410.1844
  -6003103.16447  -4643098.67045  22830678.3984                   22830675.6884
 11  8 17 17 58 30.0000000  0  8G24G07G08G11G13G19G23G28
    833530.12946    660700.99643  23640784.9454                   23640787.5234
  -5389051.52548  -4179841.91946  20579623.1884                   20579620.8164
  -9290551.55948  -7218162.87746  21605580.7974                   21605579.1334
  -9253862.09447  -7171186.97445  22249903.0004                   22249900.8754
   8790820.70747   6853946.35945  21918021.6484                   21918020.4804
   5864208.50047   4578047.40245  22126746.7664                   22126743.3714
  13641581.98546  10624891.84843  23864505.6954                   23864505.7854
  -6109688.66147  -4726152.29045  22810395.7734                   22810393.3164
 11  8 17 17 59  0.0000000  0  8G24G07G08G11G13G19G23G28
    690548.67746    549287.03543  23613575.7894                   23613578.6954
  -5486294.87548  -4255615.95146  20561118.8444                   20561116.3554
  -9429466.35348  -7326408.16546  21579146.2274                   21579143.9454
  -9379461.88247  -7269056.90945  22226001.9224                   22226000.3364
   8813786.24247   6871841.50845  21922391.8594                   21922390.6094
   5869698.98547   4582325.68045  22127792.0004                   22127787.7074
  13684152.89546  10658063.60344  23872606.3444                   23872606.6844
  -6216155.19547  -4809113.17845  22790135.7814                   22790133.1804
 11  8 17 17 59 30.0000000  0  8G24G07G08G11G13G19G23G28
    547645.43846    437933.93843  23586382.9614                   23586384.5434
  -5583244.96048  -4331161.48746  20542669.8054                   20542667.1644
  -9568278.12648  -7434573.18946  21552731.0704                   21552729.1334
  -9504707.86147  -7366651.14245  22202168.8284                   22202166.7464
   8837045.33447   6889965.38445  21926818.4224                   21926817.0164
   5875564.59647   4586896.24445  22128907.9534                   22128904.0394
  13726750.21946  10691256.03243  23880712.6954                   23880712.7774
  -6322503.48547  -4891981.96645  22769898.3524                   22769896.0044
 11  8 17 18  0  0.0000000  0  8G24G07G08G11G13G19G23G28
    404817.74646    326639.78043  23559203.3594                   23559205.4574
  -5679905.47748  -4406481.38646  20524275.8914                   20524273.3014
  -9706990.49847  -7542660.73546  21526335.1954                   21526333.0634
  -9629603.05847  -7463972.05845  22178401.9144                   22178400.0044
   8860589.65947   6908311.52945  21931298.8444                   21931296.7734
   5881796.75948   4591752.43945  22130093.7114                   22130090.1024
  13769365.68446  10724462.54743  23888822.3754                   23888822.1884
  -6428740.05847  -4974763.70845  22749682.2664                   22749679.2664
 11  8 17 18  0 30.0000000  0  8G24G07G08G11G13G19G23G28
    262069.68546    215407.66043  23532038.7584                   23532041.5514
  -5776273.59448  -4481573.43147  20505937.2584                   20505934.9264
  -9845600.49748  -7650668.52646  21499958.4384                   21499956.5514
  -9754143.48947  -7561016.51345  22154702.0084                   22154700.7504
   8884417.16347   6926878.33645  21935833.0554                   21935831.2734
   5888393.99047   4596893.10345  22131348.4454                   22131344.8244
  13811997.30546  10757681.67044  23896934.7894                   23896935.5164
  -6534864.92347  -5057458.37545  22729487.8754                   22729484.6804
 11  8 17 18  1  0.0000000  0  8G24G07G08G11G13G19G23G28
    119404.00346    104239.76243  23504890.1804                   23504892.3714
  -5872348.13848  -4556436.72146  20487655.2664                   20487652.2274
  -9984106.37148  -7758595.15546  21473601.8834                   21473599.3164
  -9878327.38647  -7657783.14545  22131071.1254                   22131069.3874
   8908524.19047   6945662.95345  21940420.2894                   21940418.6294
   5895353.14547   4602315.79045  22132673.7114                   22132669.4414
  13854641.75247  10790910.78144  23905050.4064                   23905051.9494
  -6640879.60047  -5140067.20045  22709313.1884                   22709311.3244
 11  8 17 18  1 30.0000000  0  8G24G07G08G11G13G19G23G28
    -23184.02647     -6867.69443  23477756.9454                   23477759.5234
  -5968134.89948  -4631075.75946  20469427.3914                   20469424.7304
 -10122513.58448  -7866444.92345  21447263.4774                   21447261.2544
 -10002159.43247  -7754275.60845  22107506.4224                   22107504.5904
   8932900.30647   6964657.24845  21945059.0314                   21945058.2584
   5902663.50147   4608012.13445  22134064.9224                   22134060.7274
  13897288.72346  10824141.89744  23913165.9774                   23913166.2344
  -6746792.54647  -5222596.73745  22689158.8284                   22689155.9844
 11  8 17 18  2  0.0000000  0  8G24G07G08G11G13G19G23G28
   -165683.98646   -117906.52743  23450639.7424                   23450642.5204
  -6063624.67748  -4705483.39246  20451256.3134                   20451253.1294
 -10260812.98748  -7974210.69446  21420945.9224                   21420944.2304
 -10125629.71347  -7850486.18145  22084010.5944                   22084008.3594
   8957549.41447   6983864.26045  21949749.8754                   21949747.8204
   5910329.69047   4613985.76945  22135523.7194                   22135519.8594
  13939942.53146  10857378.28643  23921283.2504                   23921284.3134
  -6852597.21747  -5305041.90645  22669024.6724                   22669022.2154
 11  8 17 18  2 30.0000000  0  8G24G07G08G11G13G19G23G28
   -308093.88046   -228875.05843  23423539.5944                   23423542.5004
  -6158816.70748  -4779659.00546  20433142.1254                   20433138.9844
 -10399003.33848  -8081891.48446  21394648.8054                   21394646.8674
 -10248736.42847  -7946413.45145  22060584.5084                   22060582.7854
   8982467.87147   7003281.14545  21954491.3284                   21954489.9734
   5918347.73747   4620233.56345  22137049.2424                   22137045.4184
  13982599.18546  10890616.89843  23929400.0864                   23929402.7464
  -6958296.28447  -5387404.79745  22648910.5314                   22648907.7974
 11  8 17 18  3  0.0000000  0  9G17G24G07G08G11G13G19G23G28
   9237462.07956   7209226.53753  24595426.5784                   24595431.2934
   -450412.70446   -339772.72543  23396457.4304                   23396460.0004
  -6253710.90548  -4853602.54246  20415084.4534                   20415081.3714
 -10537084.81048  -8189487.42346  21368373.6724                   21368371.3204
 -10371479.43747  -8042057.31445  22037226.8674                   22037225.5824
   9007650.57647   7022903.94145  21959283.6954                   21959281.8714
   5926712.93547   4626751.85345  22138641.3914                   22138637.0434
  14025254.06346  10923854.17243  23937517.1644                   23937519.4144
  -7063892.14347  -5469687.27545  22628816.7034                   22628813.4144
 11  8 17 18  3 30.0000000  0  9G17G24G07G08G11G13G19G23G28
   9061031.12646   7071748.23043  24561853.3054                   24561857.8364
   -592649.99046   -450606.80743  23369389.7894                   23369392.4534
  -6348318.05248  -4927322.42346  20397081.3524                   20397078.4454
 -10675067.34048  -8297006.27246  21342116.2114                   21342113.9104
 -10493868.47247  -8137425.37045  22013937.2734                   22013935.3244
   9033082.18447   7042720.70745  21964123.3914                   21964122.0864
   5935410.01047   4633528.77245  22140296.0554                   22140292.4144
  14067891.85846  10957078.09842  23945631.6174                   23945632.6564
  -7169398.34047  -5551899.86545  22608739.2274                   22608737.0354
 11  8 17 18  4  0.0000000  0  9G17G24G07G08G11G13G19G23G28
   8884650.01546   6934308.75343  24528288.7424                   24528292.9414
   -734808.19847   -561379.33243  23342338.8204                   23342340.7624
  -6442642.05248  -5000821.65646  20379132.0314                   20379128.8914
 -10812954.57648  -8404450.85946  21315877.3984                   21315874.9774
 -10615906.60647  -8232519.98945  21990714.2664                   21990712.5394
   9058753.72548   7062724.41745  21969008.6254                   21969007.7194
   5944430.91847   4640558.00545  22142013.0314                   22142009.0314
  14110504.01746  10990282.03942  23953740.7034                   23953742.0274
  -7274821.57747  -5634047.81345  22588678.4224                   22588675.4144
 11  8 17 18  4 30.0000000  0  9G17G24G07G08G11G13G19G23G28
   8708319.62246   6796908.76343  24494733.5864                   24494737.1214
   -876884.56647   -672088.05944  23315302.4454                   23315304.5164
  -6536681.14148  -5074098.88146  20361236.7424                   20361234.0904
 -10950744.96348  -8511819.97746  21289656.5314                   21289654.4184
 -10737591.21047  -8327339.12945  21967558.3284                   21967556.0704
   9084662.04347   7082912.63245  21973939.0234                   21973937.3284
   5953772.24547   4647836.93145  22143790.4844                   22143786.5864
  14153087.19246  11023463.32943  23961843.3524                   23961846.0744
  -7380163.01247  -5716132.05345  22568632.8134                   22568629.3524
 11  8 17 18  5  0.0000000  0  9G17G24G07G08G11G13G19G23G28
   8532045.40146   6659552.49543  24461189.6334                   24461192.7854
  -1018873.49647   -782728.63943  23288282.9694                   23288284.9654
  -6630431.03148  -5147150.74046  20343396.5004                   20343394.0664
 -11088433.54248  -8619109.77846  21263454.9144                   21263453.6684
 -10858917.39347  -8421878.96145  21944470.4384                   21944469.1454
   9110806.51047   7103284.84745  21978913.9774                   21978912.3794
   5963433.60847   4655365.23545  22145628.8444                   22145624.9494
  14195641.28946  11056621.96143  23969942.4844                   23969943.0984
  -7485420.89747  -5798151.12545  22548602.0474                   22548599.6414
 11  8 17 18  5 30.0000000  0  9G17G24G07G08G11G13G19G23G28
   8355837.29546   6522247.81443  24427657.2424                   24427661.1254
  -1160763.63147   -893292.23844  23261282.1484                   23261283.5234
  -6723881.93648  -5219969.65146  20325613.7114                   20325611.2034
 -11226009.99048  -8726312.19246  21237274.9534                   21237273.4884
 -10979874.19047  -8516130.97845  21921453.9614                   21921451.6954
   9137192.52747   7123845.29445  21983935.2814                   21983933.8164
   5973420.78147   4663147.40945  22147529.2814                   22147525.5904
  14238171.89546  11089762.38743  23978035.7504                   23978037.4884
  -7590587.97047  -5880099.47245  22528589.8054                   22528587.0944
 11  8 17 18  6  0.0000000  0  9G17G24G07G08G11G13G19G23G28
   8179694.73246   6384994.15143  24394139.7274                   24394143.0864
  -1302554.35247  -1003778.34143  23234300.2664                   23234300.4654
  -6817034.33848  -5292555.94946  20307886.9064                   20307884.9184
 -11363474.77848  -8833427.59746  21211116.3834                   21211114.6844
 -11100461.79547  -8610095.30745  21898506.2664                   21898504.0984
   9163814.36247   7144589.46745  21989001.3674                   21989000.6524
   5983728.27747   4671179.17445  22149490.8444                   22149487.0044
  14280673.47946  11122880.09243  23986123.9774                   23986126.0704
  -7695667.87647  -5961979.91145  22508593.4844                   22508591.1484
 11  8 17 18  6 30.0000000  0  9G17G24G07G08G11G13G19G23G28
   8003628.43746   6247799.87143  24360634.8284                   24360638.7544
  -1444234.42247  -1114178.29543  23207338.9694                   23207340.7384
  -6909878.27248  -5364901.89246  20290219.5704                   20290216.9534
 -11500817.61548  -8940447.99546  21184980.9924                   21184979.4964
 -11220669.27748  -8703763.43145  21875631.8754                   21875629.7624
   9190677.17547   7165521.42545  21994112.9224                   21994112.4844
   5994361.41147   4679464.70445  22151514.8524                   22151510.5514
  14323151.76846  11155979.66743  23994206.8524                   23994209.7114
  -7800653.16347  -6043786.59745  22488616.2344                   22488613.5354
 11  8 17 18  7  0.0000000  0  9G17G24G07G08G11G13G19G23G28
   7827638.92447   6110665.42144  24327145.5234                   24327148.0354
  -1585802.28147  -1224490.75644  23180399.0164                   23180401.3134
  -7002413.21048  -5437007.04546  20272610.5634                   20272608.1604
 -11638037.39148  -9047372.49346  21158869.1644                   21158866.2114
 -11340495.58247  -8797134.53545  21852829.1644                   21852826.9384
   9217776.76247   7186637.87745  21999270.3834                   21999269.2344
   6005316.18647   4688000.84845  22153599.2504                   22153595.1844
  14365602.46046  11189057.73643  24002286.7664                   24002287.8954
  -7905546.13447  -6125521.37145  22468654.4454                   22468653.3954
 11  8 17 18  7 30.0000000  0  9G17G24G07G08G11G13G19G23G28
   9227153.09246   7201196.19143  24593464.1094                   24593466.4104
   -151831.12647   -107110.50244  23453274.9844                   23453276.6564
  -5519215.59348  -4281268.65246  20554854.1174                   20554851.0164
 -10199708.67248  -7926596.87246  21432573.8204                   21432572.0514
  -9884515.30147  -7662604.43945  22129892.9614                   22129890.6094
  10820527.82447   8435534.72845  22304263.5634                   22304262.9694
   7592008.03747   5924384.08445  22455536.5634                   22455532.7854
  15983440.09946  12449710.08843  24310151.1484                   24310152.2464
  -6434925.35947  -4979583.07545  22748504.8754                   22748502.1484
 11  8 17 18  8  0.0000000  0  9G17G24G07G08G11G13G19G23G28
   9051319.43047   7064183.28244  24560002.8364                   24560006.1684
   -293169.07247   -217243.80844  23426379.4844                   23426380.5944
  -5611131.19448  -4352891.21446  20537363.3834                   20537360.6644
 -10336680.09248  -8033327.84146  21406509.0394                   21406507.5984
 -10003575.49447  -7755378.56345  22107236.7814                   22107234.7074
  10848087.65247   8457009.82345  22309507.9144                   22309507.1804
   7603593.51147   5933411.66545  22457741.5554                   22457737.1254
  16025823.40046  12482735.62643  24318216.9774                   24318218.3984
  -6539640.67047  -5061179.40045  22728578.2114                   22728575.5394
 11  8 17 18  8 30.0000000  0  9G17G24G07G08G11G13G19G23G28
   8875569.13246   6927235.22743  24526559.6334                   24526561.2384
   -434384.95447   -327282.02744  23399506.7114                   23399507.2114
  -5702732.10548  -4424268.55746  20519931.8364                   20519929.7774
 -10473521.89947  -8139957.81946  21380468.5394                   21380466.5904
 -10122246.57847  -7847849.48445  22084654.3524                   22084652.2464
  10875875.42447   8478662.52045  22314796.0704                   22314794.8594
   7615492.14847   5942683.32145  22460005.7894                   22460001.9694
  16068170.79646  12515733.20943  24326274.6024                   24326276.3834
  -6644266.28547  -5142705.83845  22708669.0704                   22708665.7894
 11  8 17 18  9  0.0000000  0  9G17G24G07G08G11G13G19G23G28
   8699898.62746   6790349.34943  24493130.1094                   24493132.1764
   -575481.41947   -437227.20544  23372656.8594                   23372657.7774
  -5794022.15448  -4495403.66946  20502560.6094                   20502557.4654
 -10610237.07548  -8246489.13046  21354453.0314                   21354450.9104
 -10240531.81647  -7940019.77045  22062145.0084                   22062143.3714
  10903882.10647   8500485.80845  22320125.3834                   22320124.5314
   7627695.87247   5952192.66245  22462328.2344                   22462324.0474
  16110474.16946  12548696.47443  24334324.8524                   24334326.2584
  -6748808.79047  -5224167.51945  22688774.8834                   22688772.3714
 11  8 17 18  9 30.0000000  0  9G17G24G07G08G11G13G19G23G28
   8524313.34246   6653529.89143  24459717.1884                   24459718.9614
   -716452.51247   -547074.63643  23345830.3524                   23345831.6644
  -5884996.43248  -4566292.73046  20485248.7664                   20485245.7274
 -10746820.38148  -8352917.68446  21328461.8524                   21328459.8404
 -10358425.86148  -8031885.21245  22039711.3984                   22039709.5044
  10932107.90947   8522479.84245  22325497.1174                   22325495.7154
   7640204.78847   5961939.83045  22464707.7504                   22464704.7074
  16152733.87345  12581625.69942  24342366.6954                   24342368.3524
  -6853265.78847  -5305562.55245  22668897.1414                   22668894.8594
 11  8 17 18 10  0.0000000  0  9G17G24G07G08G11G13G19G23G28
   8348814.37946   6516777.70843  24426319.9774                   24426322.9224
   -857295.45147   -656822.27043  23319029.2424                   23319028.9734
  -5975653.80748  -4636934.85146  20467996.8914                   20467994.0004
 -10883270.22948  -8459242.24246  21302496.2504                   21302494.1804
 -10475926.22147  -8123443.88445  22017351.3364                   22017349.9224
  10960549.31447   8544641.89345  22330908.7814                   22330907.9494
   7653015.60947   5971922.27245  22467145.8134                   22467142.4614
  16194946.62845  12614518.30142  24350399.1644                   24350401.7854
  -6957639.05647  -5386892.37145  22649035.7974                   22649032.6334
 11  8 17 18 10 30.0000000  0  9G17G24G07G08G11G13G19G23G28
   8173402.62846   6380093.45943  24392940.8204                   24392942.0394
   -998008.21647   -766468.47443  23292251.3834                   23292253.3674
  -6065993.34048  -4707329.30046  20450805.9304                   20450803.0204
 -11019585.46248  -8565461.90246  21276556.1884                   21276554.1094
 -10593031.74747  -8214694.89145  21995066.3754                   21995065.0594
  10989202.02047   8566968.55545  22336361.2584                   22336360.8444
   7666124.49047   5982136.94945  22469640.7664                   22469636.7934
  16237108.59246  12647371.34842  24358424.3754                   24358423.7584
  -7061930.57447  -5468158.47345  22629189.8134                   22629186.7544
 11  8 17 18 11  0.0000000  0  9G17G24G07G08G11G13G19G23G28
   7998081.92646   6243480.18343  24359577.6724                   24359579.3134
  -1138586.07846   -876009.53343  23265500.7814                   23265503.0634
  -6156012.21148  -4777473.88746  20433675.5084                   20433672.9024
 -11155762.37247  -8671573.77446  21250642.7894                   21250640.9024
 -10709738.51847  -8305635.18945  21972858.0864                   21972856.4104
  11018064.53547   8589458.72245  22341853.8914                   22341852.3204
   7679530.04347   5992582.79445  22472192.2114                   22472187.5084
  16279218.41546  12680183.83642  24366436.5864                   24366438.7114
  -7166139.55047  -5549360.23145  22609359.2504                   22609356.4614
 11  8 17 18 11 30.0000000  0  9G17G24G07G08G11G13G19G23G28
   7822855.44046   6106940.29143  24326233.1024                   24326235.3714
  -1279025.29547   -985442.53344  23238775.9224                   23238777.4614
  -6245707.52148  -4847366.34046  20416607.5394                   20416603.9654
 -11291797.74247  -8777575.35246  21224755.9844                   21224753.9184
 -10826043.31747  -8396262.26345  21950725.9224                   21950723.8244
  11047134.93547   8612110.87645  22347385.4774                   22347384.7854
   7693230.29947   6003258.28745  22474799.0784                   22474795.4224
  16321274.45146  12712954.32042  24374441.0864                   24374441.9654
  -7270266.24747  -5630497.91445  22589544.6334                   22589541.2704
 11  8 17 18 12  0.0000000  0  9G17G24G07G08G11G13G19G23G28
   7647722.80546   5970473.56043  24292904.9844                   24292908.9774
  -1419324.61447  -1094766.54844  23212078.2344                   23212079.7384
  -6335079.17548  -4917006.60546  20399600.6334                   20399597.6484
 -11427691.20948  -8883466.36446  21198896.1804                   21198894.3134
 -10941945.68647  -8486575.74245  21928670.1484                   21928668.0124
  11076408.21847   8634921.12144  22352956.5164                   22352955.2154
   7707220.57547   6014159.77545  22477461.2034                   22477457.0824
  16363271.87746  12745679.16042  24382433.0554                   24382435.6644
  -7374313.39847  -5711573.60945  22569744.8674                   22569742.7704
 11  8 17 18 12 30.0000000  0  9G17G24G07G08G11G13G19G23G28
   7472684.51946   5834080.42343  24259596.5234                   24259598.3954
  -1559483.20347  -1203980.93043  23185405.7114                   23185407.7504
  -6424127.98948  -4986395.29246  20382655.2344                   20382652.1334
 -11563442.80847  -8989246.82446  21173063.5944                   21173061.7154
 -11057445.27147  -8576575.37345  21906691.6724                   21906688.7034
  11105878.74047   8657885.03144  22358564.2504                   22358563.8444
   7721495.89547   6025283.36145  22480177.4454                   22480173.8554
  16405206.09547  12778354.78043  24390413.2734                   24390415.9454
  -7478284.06947  -5792589.70045  22549960.0634                   22549958.0664
 11  8 17 18 13  0.0000000  0  9G17G24G07G08G11G13G19G23G28
   7297743.11046   5697762.62543  24226307.3754                   24226309.4844
  -1699496.99447  -1313082.48144  23158763.1414                   23158763.9654
  -6512851.12848  -5055530.22146  20365771.2974                   20365769.2974
 -11699049.28647  -9094914.20346  21147258.5704                   21147256.2114
 -11172538.99347  -8666258.75345  21884789.7344                   21884787.6174
  11135544.39847   8681001.03944  22364209.9844                   22364209.0164
   7736054.27647   6036627.51845  22482948.3364                   22482943.8794
  16447075.12346  12810979.62743  24398380.3284                   24398383.7774
  -7582178.20947  -5873546.15745  22530189.6024                   22530186.9454
 11  8 17 18 13 30.0000000  0  9G17G24G07G08G11G13G19G23G28
   7122899.90846   5561521.41343  24193036.0784                   24193036.8794
  -1839363.37347  -1422069.09844  23132146.8594                   23132148.1334
  -6601247.44848  -5124410.48946  20348950.7814                   20348948.0984
 -11834508.84248  -9200467.10446  21121481.5634                   21121479.8834
 -11287224.98947  -8755624.40945  21862966.1884                   21862963.7584
  11165401.79547   8704266.41144  22369891.6954                   22369891.1454
   7750892.16347   6048189.46645  22485771.2504                   22485767.7664
  16488875.69246  12843550.97543  24406335.2664                   24406338.1374
  -7685997.64347  -5954444.40045  22510433.0314                   22510431.0744
 11  8 17 18 14  0.0000000  0  9G17G24G07G08G11G13G19G23G28
   6948152.61346   5425354.96143  24159781.3054                   24159784.1804
  -1979083.58747  -1530941.92244  23105559.9384                   23105560.8794
  -6689319.35148  -5193037.95146  20332190.6484                   20332188.0274
 -11969823.74048  -9305907.27446  21095731.9774                   21095729.7624
 -11401505.13348  -8844673.85145  21841219.3204                   21841217.3954
  11195443.64447   8727675.54144  22375608.6334                   22375607.9734
   7766002.56147   6059963.77145  22488647.0004                   22488643.2504
  16530600.76546  12876063.54643  24414275.7114                   24414278.7734
  -7789747.58247  -6035288.49145  22490690.5394                   22490687.9694
 11  8 17 18 14 30.0000000  0  8G17G24G07G08G11G13G19G28
   6773498.05746   5289260.70044  24126546.6644                   24126548.0514
  -2118660.51647  -1639703.02144  23078997.6414                   23079000.2894
  -6777071.23048  -5261416.05147  20315492.6254                   20315489.2544
 -12104997.01148  -9411237.09846  21070009.3204                   21070006.4924
 -11515382.92647  -8933409.76145  21819548.7894                   21819547.3364
  11225660.85447   8751221.30844  22381359.0474                   22381357.3914
   7781376.53047   6071943.46745  22491573.0474                   22491569.0944
  -7893434.47447  -6116083.46545  22470959.3674                   22470957.2734
 11  8 17 18 15  0.0000000  0  8G17G24G07G08G11G13G19G28
   6598944.73846   5153245.35044  24093330.3364                   24093331.9264
  -2258084.41847  -1748344.93044  23052466.7194                   23052467.8324
  -6864494.34848  -5329537.97046  20298856.2274                   20298853.4064
 -12240020.09148  -9516449.88246  21044315.3594                   21044313.2704
 -11628849.49447  -9021825.22145  21797956.8054                   21797954.7584
  11256057.25247   8774906.71444  22387143.1954                   22387142.2734
   7797018.24847   6084131.79345  22494549.0394                   22494544.9184
  -7997052.70347  -6196824.94645  22451241.4774                   22451238.8094
 11  8 17 18 15 30.0000000  0  8G17G24G07G08G11G13G19G28
   6424505.09246   5017318.62244  24060135.0474                   24060136.7464
  -2397341.40147  -1856856.73744  23025967.1724                   23025968.5044
  -6951576.41348  -5397394.13346  20282285.2034                   20282282.4104
 -12374879.85048  -9621535.38746  21018652.5314                   21018650.3594
 -11741891.70747  -9109910.02945  21776445.5634                   21776443.2854
  11286640.20747   8798737.45044  22392962.5704                   22392962.2894
   7812935.82147   6096535.05345  22497578.1414                   22497574.7584
  -8100592.34447  -6277505.16645  22431538.7734                   22431535.7424
 11  8 17 18 16  0.0000000  0  8G17G24G07G08G11G13G19G28
   6250187.99947   4881487.31044  24026963.4614                   24026966.0474
  -2536421.69147  -1965230.86844  22999500.6884                   22999502.4344
  -7038309.00548  -5464977.99446  20265780.0784                   20265777.2114
 -12509567.26147  -9726486.62446  20993022.2664                   20993019.9924
 -11854500.62247  -9197657.21345  21755016.3754                   21755015.2034
  11317413.24747   8822716.33744  22398819.1094                   22398817.9924
   7829132.81347   6109156.06645  22500660.6334                   22500656.8134
  -8204047.67047  -6358119.66645  22411851.4534                   22411849.0744
 11  8 17 18 16 30.0000000  0  8G17G24G07G08G11G13G19G28
   6075996.73547   4745754.08944  23993816.0314                   23993817.5314
  -2675320.97847  -2073464.03544  22973068.8284                   22973070.1564
  -7124689.36848  -5532287.38246  20249342.7814                   20249340.5744
 -12644078.62047  -9831300.67946  20967425.3284                   20967423.8714
 -11966672.93347  -9285064.20445  21733671.8834                   21733668.9264
  11348374.63647   8846841.97744  22404710.8444                   22404709.9534
   7845607.35247   6121993.32145  22503795.8984                   22503791.4304
  -8307418.60547  -6438668.42645  22392180.8444                   22392178.6844
 11  8 17 18 17  0.0000000  0  9G17G24G07G08G26G11G13G19G28
   5901923.90146   4610113.09644  23960690.5314                   23960692.2584
  -2814045.28147  -2181560.75644  22946671.2974                   22946671.6414
  -7210724.91548  -5599328.08746  20232970.4924                   20232967.6484
 -12778420.85848  -9935982.94346  20941861.5084                   20941859.6804
  10829814.55056   8451340.52453  24130943.4144                   24130941.1524
 -12078415.62047  -9372136.40045  21712407.7424                   21712404.6954
  11379512.24047   8871104.92544  22410636.2894                   22410635.6684
   7862347.41747   6135037.50545  22506980.7664                   22506977.5864
  -8410715.15747  -6519159.23545  22372524.6954                   22372521.7854
 11  8 17 18 17 30.0000000  0  9G17G24G07G08G26G11G13G19G28
   5727965.28046   4474561.12544  23927586.7664                   23927588.3754
  -2952597.97547  -2289523.83844  22920303.7974                   22920305.9454
  -7296420.27048  -5666103.70946  20216663.2034                   20216661.1294
 -12912598.23747 -10040536.74146  20916327.8594                   20916326.0164
  10668742.07646   8325829.56642  24100291.8914                   24100290.9104
 -12189732.51847  -9458876.83145  21691224.7424                   21691221.8244
  11410816.60847   8895497.81444  22416593.3134                   22416592.1914
   7879344.00147   6148281.56845  22510215.4534                   22510211.4614
  -8513944.63947  -6599597.76945  22352880.5314                   22352878.7034
 11  8 17 18 18  0.0000000  0  9G17G24G07G08G26G11G13G19G28
   5554112.76246   4339091.81044  23894504.3754                   23894505.7584
  -3090986.38447  -2397358.85844  22893970.3594                   22893971.1374
  -7381784.31148  -5732621.16446  20200419.2114                   20200416.5354
 -13046618.61748 -10144968.20546  20890824.6024                   20890822.5004
  10507995.59446   8200572.56043  24069703.3984                   24069702.0234
 -12300631.84647  -9545291.88145  21670120.7814                   21670117.9654
  11442273.93447   8920009.83944  22422579.5004                   22422578.8834
   7896584.18047   6161715.44845  22513495.7894                   22513492.8054
  -8617117.89047  -6679992.49945  22333247.3204                   22333245.2234
 11  8 17 18 18 30.0000000  0  9G17G24G07G08G26G11G13G19G28
   6955791.78046   5431309.46243  24161234.4064                   24161235.9924
  -1653784.76947  -1277461.42644  23167460.9694                   23167462.0044
  -5891394.30848  -4571278.32046  20484030.9924                   20484028.2304
 -11605057.10748  -9021673.52646  21165144.6724                   21165142.5164
  11923000.75946   9303174.08143  24338969.8594                   24338967.9024
 -10835690.18647  -8403778.90445  21948890.3204                   21948887.8324
  13049298.39247  10172236.59244  22728386.2894                   22728385.4614
   9489482.25047   7402934.66945  22816614.4064                   22816611.0704
  -7144814.87647  -5532743.39445  22613416.9224                   22613414.7464
 11  8 17 18 19  0.0000000  0  9G17G24G07G08G26G11G13G19G28
   6782155.23746   5296008.34643  24128192.9614                   24128194.1884
  -1791837.12147  -1385034.61044  23141190.0474                   23141191.3404
  -5976092.16148  -4637276.66546  20467913.6564                   20467910.9024
 -11738758.16047  -9125856.16646  21139702.3134                   21139700.5944
  11762912.04746   9178429.63143  24308505.5004                   24308503.9224
 -10945750.02547  -8489539.79245  21927946.6174                   21927944.3014
  13081051.03247  10196978.73744  22734428.5314                   22734427.3874
   9507198.73346   7416739.68845  22819986.0084                   22819982.4574
  -7247881.16847  -5613054.76845  22593804.3284                   22593801.3364
 11  8 17 18 19 30.0000000  0  9G17G24G07G08G26G11G13G19G28
   6608631.09946   5160794.94943  24095171.8444                   24095173.7114
  -1929715.30447  -1492472.11544  23114952.5944                   23114953.5514
  -6060453.00448  -4703012.41246  20451860.3134                   20451857.9494
 -11872294.59748  -9229910.54746  21114291.2664                   21114289.2074
  11603157.83446   9053945.85942  24278104.3524                   24278103.6954
 -11055385.27347  -8574969.83745  21907083.1334                   21907081.6724
  13112948.21047  10221833.53644  22740498.8984                   22740497.6214
   9525150.45346   7430728.00645  22823402.0634                   22823398.1484
  -7350893.87347  -5693324.40745  22574201.4454                   22574198.9494
 11  8 17 18 20  0.0000000  0  9G17G24G07G08G26G11G13G19G28
   6435227.16046   5025675.14344  24062174.2114                   24062176.6094
  -2067410.67047  -1599767.09343  23088750.2424                   23088750.4844
  -6144469.53948  -4768479.85346  20435872.7664                   20435870.0234
 -12005658.00648  -9333830.08346  21088912.7274                   21088911.1054
  11443746.70146   8929729.53143  24247769.7894                   24247770.0354
 -11164588.24147  -8660063.04545  21886302.6174                   21886300.6214
  13144992.29447  10246802.78244  22746596.1024                   22746596.2384
   9543340.47946   7444902.02345  22826863.1644                   22826860.1524
  -7453848.12947  -5773548.47945  22554610.1884                   22554607.7974
 11  8 17 18 20 30.0000000  0  9G17G24G07G08G26G11G13G19G28
   6261952.38846   4890656.04044  24029200.4924                   24029203.0434
  -2204912.92247  -1706911.64444  23062584.2114                   23062584.7234
  -6228132.92448  -4833672.11546  20419951.7974                   20419949.3554
 -12138839.19448  -9437607.63446  21063569.3594                   21063567.5204
  11284688.70546   8805788.23042  24217502.2034                   24217502.2464
 -11273349.70147  -8744812.20345  21865605.8444                   21865603.6914
  13177187.71647  10271889.99344  22752723.5634                   22752721.8134
   9561773.27247   7459265.18245  22830370.5474                   22830367.6484
  -7556737.50147  -5853722.00545  22535031.1254                   22535028.1764
 11  8 17 18 21  0.0000000  0  9G17G24G07G08G26G11G13G19G28
   6088815.90947   4755744.60844  23996254.2664                   23996256.3634
  -2342212.25746  -1813898.03644  23036456.6254                   23036458.3834
  -6311434.66748  -4898582.57946  20404099.8134                   20404097.5704
 -12271828.77348  -9541235.87946  21038262.1564                   21038259.8984
  11125992.77046   8682129.09643  24187303.5164                   24187303.6804
 -11381660.47047  -8829210.18745  21844994.9454                   21844992.9144
  13209537.99947  10297097.85544  22758879.5864                   22758878.8634
   9580452.19547   7473820.16645  22833925.7194                   22833922.7774
  -7659556.22147  -5933840.49545  22515465.4144                   22515462.2814
 11  8 17 18 21 30.0000000  0  9G17G24G07G08G26G11G13G19G28
   5915822.08646   4620944.39644  23963334.1954                   23963335.2854
  -2479303.00347  -1920721.91944  23010369.1644                   23010370.7704
  -6394370.59148  -4963207.98646  20388317.9694                   20388315.1884
 -12404621.62648  -9644710.81746  21012993.3054                   21012990.7424
  10967664.90646   8558756.76143  24157175.8364                   24157174.9734
 -11489515.91047  -8913253.37445  21824470.7734                   21824468.9884
  13242043.02047  10322426.27944  22765065.2344                   22765064.5474
   9599377.48947   7488567.10845  22837526.9384                   22837523.5314
  -7762302.36547  -6013902.43145  22495912.4924                   22495909.9184
 11  8 17 18 22  0.0000000  0  9G17G24G07G08G26G11G13G19G28
   5742979.27646   4486261.86644  23930442.8524                   23930444.4264
  -2616175.66747  -2027375.85844  22984323.7734                   22984324.5904
  -6476932.81048  -5027542.19946  20372607.0394                   20372603.6844
 -12537209.44448  -9748026.00446  20987761.6954                   20987759.7114
  10809713.77946   8435678.09343  24127118.0474                   24127117.7544
 -11596907.80447  -8996935.36545  21804035.0554                   21804033.1994
  13274705.46547  10347877.36244  22771279.9844                   22771280.0124
   9618552.53747   7503508.64745  22841176.0474                   22841172.6174
  -7864971.00447  -6093903.96945  22476375.4224                   22476374.1414
 11  8 17 18 22 30.0000000  0  9G17G24G07G08G26G11G13G19G28
   5570293.97047   4351702.01944  23897582.4924                   23897583.6764
  -2752822.59347  -2133853.88344  22958320.2734                   22958321.2344
  -6559115.27148  -5091580.49346  20356968.3524                   20356965.1844
 -12669585.38448  -9851176.08546  20962571.7584                   20962569.6604
  10652146.71746   8312898.56943  24097134.0004                   24097133.2464
 -11703829.88647  -9080251.23745  21783688.0234                   21783686.2424
  13307527.02647  10373452.48344  22777526.9924                   22777526.1454
   9637979.05647   7518646.13845  22844872.7114                   22844868.9104
  -7967558.52347  -6173842.29445  22456854.1724                   22456851.7584
 11  8 17 18 23  0.0000000  0  9G17G24G07G08G26G11G13G19G28
   5397773.44046   4217270.55544  23864752.5164                   23864753.5594
  -2889235.12747  -2240149.25844  22932362.5164                   22932362.6524
  -6640910.87548  -5155317.33346  20341402.6564                   20341399.3594
 -12801741.38147  -9954154.79546  20937423.0944                   20937421.7704
  10494972.01346   8190424.84644  24067225.2114                   24067224.6094
 -11810274.02847  -9163194.71445  21763432.2814                   21763430.7664
  13340510.33647  10399153.58044  22783803.7114                   22783802.9224
   9657659.53947   7533981.54545  22848617.8594                   22848614.1604
  -8070059.98647  -6253713.56545  22437348.6334                   22437346.5824
 11  8 17 18 23 30.0000000  0  9G17G24G07G08G26G11G13G19G28
   5225424.18346   4082972.56644  23831955.1024                   23831956.1724
  -3025405.98647  -2346256.31844  22906449.1334                   22906449.9104
  -6722313.33248  -5218747.83346  20325912.5164                   20325910.1684
 -12933670.18448 -10056956.45446  20912317.9224                   20912315.6644
  10338196.86047   8068262.45443  24037391.5634                   24037390.5554
 -11916233.69447  -9245760.66845  21743269.3054                   21743266.4964
  13373656.51047  10424981.60744  22790111.0784                   22790110.6604
   9677596.00347   7549516.41245  22852412.1254                   22852408.3244
  -8172471.81747  -6333514.96245  22417860.5084                   22417857.6954
 11  8 17 18 24  0.0000000  0  9G17G24G07G08G26G11G13G19G28
   5053248.22046   3948809.65644  23799191.4064                   23799192.7464
  -3161332.57747  -2452173.06544  22880583.3364                   22880584.8484
  -6803321.49348  -5281871.09146  20310497.1954                   20310494.7584
 -13065369.82548 -10159579.54446  20887256.2114                   20887254.5204
  10181823.43646   7946413.04244  24007634.3984                   24007633.4064
 -12021707.48347  -9327948.00145  21723198.3134                   21723195.7704
  13406962.22447  10450933.97844  22796448.6884                   22796448.3524
   9697785.21847   7565248.22145  22856253.3674                   22856249.9574
  -8274794.91247  -6413247.25345  22398388.7584                   22398386.5474
 11  8 17 18 24 30.0000000  0  9G17G24G07G08G26G11G13G19G28
   4881251.04046   3814786.00444  23766460.6954                   23766461.8634
  -3297007.73047  -2557893.88244  22854765.5164                   22854765.9694
  -6883930.09548  -5344682.99246  20295157.6884                   20295155.2734
 -13196833.99648 -10262019.16646  20862240.0864                   20862237.4494
  10025858.56247   7824882.01744  23977955.3754                   23977954.1844
 -12126689.49847  -9409752.16445  21703220.4304                   21703219.0004
  13440428.45247  10477011.37244  22802817.6644                   22802817.4734
   9718228.00047   7581177.61445  22860143.5554                   22860139.5434
  -8377026.50847  -6492908.21645  22378934.8054                   22378932.1294
 11  8 17 18 25  0.0000000  0  9G17G24G07G08G26G11G13G19G28
   4709435.10046   3680903.63344  23733764.8054                   23733766.1414
  -3432427.87647  -2663415.97044  22828995.2424                   22828995.8984
  -6964136.85248  -5407181.78046  20279895.0634                   20279892.2734
 -13328059.81848 -10364273.05446  20837268.4304                   20837266.1954
   9870305.52447   7703671.92543  23948354.7274                   23948354.7934
 -12231177.52247  -9491171.39145  21683337.6884                   21683335.0704
  13474052.47647  10503211.74844  22809215.5554                   22809215.9224
   9738922.21547   7597302.93545  22864081.7504                   22864077.7234
  -8479167.05247  -6572498.24045  22359498.3524                   22359495.9024
 11  8 17 18 25 30.0000000  0  9G17G24G07G08G26G11G13G19G28
   4537803.77846   3547165.07744  23701105.0314                   23701105.1644
  -3567588.63047  -2768735.94344  22803274.9844                   22803275.2304
  -7043938.92148  -5469365.21447  20264709.5164                   20264706.3874
 -13459043.51348 -10466338.27146  20812343.0704                   20812340.4924
   9715168.02347   7582785.60244  23918832.9774                   23918831.8444
 -12335168.10547  -9572202.99845  21663548.7194                   21663546.0164
  13507832.61747  10529533.75144  22815644.3364                   22815644.1414
   9759866.32247   7613622.98345  22868067.1724                   22868064.0044
  -8581216.28247  -6652017.12645  22340079.2034                   22340076.3954
 11  8 17 18 26  0.0000000  0  9G17G24G07G08G26G11G13G19G28
   4366353.48646   3413567.57044  23668479.2274                   23668479.9694
  -3702492.60947  -2873855.81944  22777603.6334                   22777604.0664
  -7123340.37648  -5531236.48246  20249599.6484                   20249597.1334
 -13589788.05148 -10568217.13346  20787463.2734                   20787461.0984
   9560443.32246   7462220.96643  23889389.3524                   23889387.8014
 -12438664.64147  -9652849.60545  21643853.8754                   21643851.5354
  13541759.93847  10555970.48944  22822100.1254                   22822100.4104
   9781052.12047   7630131.35145  22872098.9064                   22872095.5004
  -8683180.33647  -6731469.61445  22320675.9614                   22320673.1804
 11  8 17 18 26 30.0000000  0  9G17G24G07G08G26G11G13G19G28
   4195092.29847   3280117.48844  23635888.3524                   23635888.2424
  -3837130.64547  -2978768.47144  22751982.5784                   22751983.4844
  -7202333.49648  -5592789.58446  20234567.8054                   20234565.0904
 -13720285.06848 -10669903.11546  20762630.1024                   20762628.2704
   9406140.13746   7341984.72443  23860024.6174                   23860025.5594
 -12541659.43947  -9733105.28745  21624254.7114                   21624252.3484
  13575837.76147  10582524.45344  22828584.9064                   22828585.0434
   9802482.63347   7646830.41045  22876176.5394                   22876173.2234
  -8785053.92347  -6810851.63145  22301289.7814                   22301287.7274
 11  8 17 18 27  0.0000000  0  9G17G24G07G08G26G11G13G19G28
   4024019.21546   3146813.91444  23603334.4774                   23603335.3284
  -3971502.72247  -3083473.88444  22726412.2504                   22726412.6374
  -7280919.94948  -5654025.79446  20219613.0314                   20219610.9844
 -13850535.16048 -10771396.69146  20737844.7194                   20737841.7074
   9252258.19346   7222076.84043  23830743.6334                   23830742.0004
 -12644153.69047  -9812970.90845  21604750.6414                   21604748.0824
  13610060.15547  10609191.07644  22835097.2734                   22835097.6844
   9824152.29747   7663715.81445  22880300.2424                   22880297.7154
  -8886841.09947  -6890166.29345  22281920.8054                   22281917.6174
 11  8 17 18 27 30.0000000  0  9G17G24G07G08G26G11G13G19G28
   3853134.25647   3013656.97644  23570815.9774                   23570816.4734
  -4105607.49047  -3187971.01044  22700892.9534                   22700894.0434
  -7359099.70148  -5714945.09247  20204735.5634                   20204733.2384
 -13980537.63048 -10872697.31546  20713105.8364                   20713104.2074
   9098798.34046   7102497.76243  23801540.4614                   23801539.7274
 -12746146.77847  -9892446.04445  21585341.9454                   21585340.2814
  13644422.37947  10635966.64744  22841636.5004                   22841637.8444
   9846056.50747   7680783.97844  22884468.7424                   22884465.3244
  -8988544.25747  -6969415.51345  22262567.0554                   22262564.9964
 11  8 17 18 28  0.0000000  0  9G17G24G07G08G26G11G13G19G28
   3682441.03747   2880649.35344  23538334.3054                   23538332.8954
  -4239440.24347  -3292256.16944  22675425.7344                   22675426.9774
  -7436869.78548  -5775545.17446  20189936.8594                   20189934.1684
 -14110287.93348 -10973801.43946  20688415.3444                   20688413.3284
   8945764.81646   6983250.91843  23772419.8674                   23772418.1914
 -12847635.44647  -9971528.09645  21566029.0394                   21566027.1804
  13678923.05647  10662850.10444  22848201.9844                   22848202.6174
   9868194.21147   7698034.09345  22888681.4454                   22888677.5084
  -9090162.90747  -7048598.86045  22243229.7664                   22243226.9574
 11  8 17 18 28 30.0000000  0  9G17G24G07G08G26G11G13G19G28
   3511939.14047   2747790.85844  23505888.8524                   23505888.2624
  -4373000.73047  -3396329.18044  22650010.1174                   22650010.2234
  -7514230.99148  -5835826.64146  20175215.6644                   20175212.7974
 -14239786.41248 -11074709.33946  20663772.3524                   20663770.4964
   8793157.75346   6864336.35843  23743378.6174                   23743378.7304
 -12948620.33647 -10050217.60945  21546812.3914                   21546810.4024
  13713556.19747  10689836.77444  22854792.3914                   22854793.2384
   9890560.14647   7715462.02645  22892937.5634                   22892934.3054
  -9191699.90547  -7127718.59245  22223907.6254                   22223905.5044
 11  8 17 18 29  0.0000000  0  9G17G24G07G08G26G11G13G19G28
   4917057.19747   3842688.21944  23773273.4224                   23773274.7464
  -2930859.77347  -2272582.88344  22924439.5944                   22924440.0084
  -6015758.02848  -4668185.36947  20460365.5394                   20460363.1914
 -12793604.79547  -9947814.56346  20938971.5704                   20938969.4614
  10216406.05546   7973361.10542  24014214.5234                   24014212.5084
 -11473675.01647  -8900909.56445  21827485.2114                   21827483.2624
  15323739.47547  11944524.86344  23161200.7274                   23161200.6294
  11488572.01747   8960666.03545  23197029.2894                   23197026.8324
  -7717731.47747  -5979171.75345  22504394.0234                   22504392.2664
 11  8 17 18 29 30.0000000  0  9G17G24G07G08G26G11G13G19G28
   4746943.15147   3710131.96944  23740901.9144                   23740902.2664
  -3063866.09346  -2376224.07044  22899129.9304                   22899130.5044
  -6092297.39148  -4727826.46047  20445800.7344                   20445798.2424
 -12922591.81448 -10048323.93046  20914426.1334                   20914424.0824
  10064659.58846   7855117.09143  23985338.9694                   23985337.1564
 -11573647.36747  -8978810.07945  21808461.0004                   21808459.0274
  15358629.25347  11971711.50244  23167840.2194                   23167840.1844
  11511385.96347   8978443.09445  23201370.7344                   23201366.7624
  -7819108.30347  -6058166.67745  22485103.2504                   22485100.3874
 11  8 17 18 30  0.0000000  0  9G17G24G07G08G26G11G13G19G28
   4577026.25647   3577729.28044  23708567.3674                   23708569.0514
  -3196590.69346  -2479645.76144  22873873.2194                   22873873.7114
  -6168423.20748  -4787145.28646  20431314.4844                   20431311.8984
 -13051319.09848 -10148630.90446  20889930.2504                   20889928.2624
   9913347.59846   7737211.73843  23956544.1804                   23956543.1644
 -11673110.32247  -9056313.67545  21789534.0634                   21789531.9104
  15393642.94847  11998994.73644  23174503.1804                   23174503.0124
  11534419.92947   8996391.59744  23205753.5314                   23205749.9264
  -7920406.09447  -6137100.01745  22465827.1644                   22465824.1294
 11  8 17 18 30 30.0000000  0  9G17G24G07G08G26G11G13G19G28
   4407306.74647   3445480.51044  23676271.5474                   23676272.6454
  -3329032.74546  -2582847.25044  22848669.7424                   22848670.5354
  -6244136.32548  -4846142.53746  20416906.6724                   20416904.3524
 -13179786.32148 -10248735.23946  20865483.7274                   20865481.5554
   9762470.46047   7619645.19843  23927832.7194                   23927832.1994
 -11772064.07447  -9133420.46445  21770703.6884                   21770701.3714
  15428775.46847  12026370.53944  23181188.4224                   23181188.5314
  11557669.24647   9014507.89744  23210177.9844                   23210174.8484
  -8021627.30947  -6215973.68445  22446564.8914                   22446562.5204
 11  8 17 18 31  0.0000000  0  9G17G24G07G08G26G11G13G19G28
   4237783.75647   3313384.83844  23644011.3914                   23644013.2154
  -3461191.31947  -2685827.86044  22823520.8204                   22823521.1884
  -6319437.63947  -4904818.90246  20402577.1414                   20402574.8404
 -13307993.56548 -10348636.98346  20841086.5314                   20841084.5984
   9612028.44547   7502417.67443  23899205.3134                   23899204.4574
 -11870509.47147  -9210131.14545  21751970.3834                   21751967.8914
  15464021.45447  12053834.72544  23187895.7974                   23187896.3794
  11581128.70747   9032787.95744  23214642.5004                   23214639.2464
  -8122775.35747  -6294790.33545  22427317.3754                   22427314.3874
 11  8 17 18 31 30.0000000  0  9G17G24G07G08G26G11G13G19G28
   4068457.45147   3181442.42845  23611790.0164                   23611791.0044
  -3593065.21146  -2788586.62344  22798426.0474                   22798426.2274
  -6394327.15348  -4963174.38147  20388326.5004                   20388323.5864
 -13435939.24548 -10448334.92246  20816739.2814                   20816737.3674
   9462022.58347   7385530.00943  23870660.3754                   23870658.6804
 -11968446.54947  -9286445.75645  21733333.3594                   21733331.2664
  15499376.22247  12081383.70144  23194623.4384                   23194624.7154
  11604793.49647   9051228.02444  23219146.1094                   23219142.5474
  -8223852.83747  -6373552.00945  22408082.4304                   22408080.2424
 11  8 17 18 32  0.0000000  0  9G17G24G07G08G26G11G13G19G28
   3899328.98247   3049654.17244  23579606.2584                   23579606.8444
  -3724652.16047  -2891121.82444  22773385.7274                   22773385.6054
  -6468804.53048  -5021208.71946  20374154.1094                   20374151.3094
 -13563622.07848 -10547828.04146  20792442.2504                   20792440.0274
   9312454.49247   7268983.52044  23842197.6954                   23842198.4344
 -12065874.38547  -9362363.53145  21714793.1884                   21714791.6054
  15534835.97347  12109014.44843  23201371.4844                   23201372.7274
  11628660.37447   9069825.54944  23223687.3364                   23223684.2894
  -8324861.11748  -6452259.73745  22388861.5164                   22388858.9774
 11  8 17 18 32 30.0000000  0  9G17G24G07G08G26G11G13G19G28
   3730396.68047   2918018.77844  23547459.6334                   23547460.3404
  -3855953.05947  -2993434.16144  22748400.1484                   22748400.6134
  -6542871.76648  -5078923.46546  20360059.3054                   20360057.0044
 -13691043.62948 -10647117.55746  20768194.6644                   20768192.3204
   9163323.05647   7152777.24644  23813820.0084                   23813818.6804
 -12162794.67847  -9437885.82145  21696350.1484                   21696347.6994
  15570393.97547  12136721.78744  23208138.3834                   23208138.5124
  11652723.34547   9088575.87244  23228266.2814                   23228263.3324
  -8425804.95847  -6530917.26745  22369652.9844                   22369649.7464
 11  8 17 18 33  0.0000000  0  9G17G24G07G08G26G11G13G19G28
   3561660.35847   2786536.06645  23515349.4454                   23515350.4494
  -3986966.58947  -3095522.54944  22723468.7664                   22723469.3874
  -6616529.44948  -5136319.08246  20346042.7114                   20346040.1994
 -13818202.65148 -10746202.51346  20743997.2114                   20743995.1334
   9014629.19847   7036911.91744  23785523.9924                   23785523.0864
 -12259207.83447  -9513012.94145  21678003.3444                   21678001.3874
  15606045.51147  12164502.01043  23214923.0474                   23214923.2814
  11676977.54547   9107475.17644  23232882.0084                   23232878.8834
  -8526686.93947  -6609526.60345  22350455.3594                   22350452.4064
 11  8 17 18 33 30.0000000  0  9G17G24G07G08G26G11G13G19G28
   3393121.98547   2655207.62145  23483277.2814                   23483278.7304
  -4117689.79447  -3197384.71544  22698593.1254                   22698593.4144
  -6689776.04948  -5193394.38646  20332104.2504                   20332101.9414
 -13945096.78048 -10845081.05246  20719849.8364                   20719847.7664
   8866374.82647   6921389.08444  23757312.1884                   23757310.6524
 -12355112.21347  -9587743.60645  21659752.9304                   21659751.6054
  15641787.31447  12192352.59843  23221724.1484                   23221724.8324
  11701420.11047   9126521.31944  23237533.1254                   23237529.6804
  -8627507.75747  -6688088.26045  22331270.1334                   22331266.4734
 11  8 17 18 34  0.0000000  0  9G17G24G07G08G26G11G13G19G28
   3224783.88247   2524035.19544  23451243.8364                   23451245.0314
  -4248119.26647  -3299018.00444  22673773.0394                   22673774.0044
  -6762609.71148  -5250147.89947  20318244.6414                   20318241.9104
 -14071723.34748 -10943751.10746  20695754.1024                   20695751.7344
   8718563.18247   6806211.20444  23729183.9384                   23729183.7814
 -12450505.91647  -9662076.36345  21641600.6254                   21641597.9734
  15677616.83747  12220271.47043  23228542.4064                   23228543.3244
  11726048.87347   9145712.52844  23242220.1644                   23242217.2624
  -8728267.52447  -6766602.36545  22312095.7734                   22312092.4184
 11  8 17 18 34 30.0000000  0  9G17G24G07G08G26G11G13G19G28
   3056649.71047   2393021.68445  23419248.6254                   23419251.4414
  -4378250.95747  -3400419.26644  22649009.8984                   22649009.9734
  -6835027.97747  -5306577.74546  20304463.6884                   20304461.2584
 -14198078.57548 -11042209.72546  20671709.4454                   20671706.9534
   8571198.02046   6691381.21443  23701141.8364                   23701140.8794
 -12545385.73447  -9736008.66445  21623545.4384                   21623543.3914
  15713532.52247  12248257.48643  23235377.9534                   23235377.9224
  11750862.60646   9165047.85244  23246941.9384                   23246938.3404
  -8828965.88547  -6845068.61945  22292933.7814                   22292930.8134
 11  8 17 18 35  0.0000000  0  9G17G24G07G08G26G11G13G19G28
   2888716.86647   2262165.05344  23387292.0784                   23387293.5984
  -4508085.52846  -3501588.98644  22624303.0314                   22624303.0664
  -6907033.31148  -5362685.81346  20290761.7344                   20290759.1764
 -14324163.44848 -11140457.67746  20647715.7734                   20647714.1174
   8424278.06346   6576898.13843  23673183.8134                   23673182.8984
 -12639754.23847  -9809542.54645  21605587.5704                   21605585.7074
  15749527.58147  12276305.37043  23242227.6254                   23242228.4064
  11775854.61046   9184522.06744  23251697.8204                   23251694.3054
  -8929607.70047  -6923490.81345  22273782.0784                   22273779.2664
 11  8 17 18 35 30.0000000  0  9G17G24G07G08G26G11G13G19G28
   2720984.88047   2131464.89344  23355374.0394                   23355374.5944
  -4637622.36847  -3602526.75944  22599652.7504                   22599653.6054
  -6978626.76547  -5418472.94147  20277138.1884                   20277135.5904
 -14449977.63448 -11238494.69246  20623774.3754                   20623772.3484
   8277803.32646   6462762.04143  23645311.0084                   23645309.2344
 -12733611.96847  -9882678.42045  21587726.3524                   21587724.8914
  15785596.75647  12304411.02644  23249091.5004                   23249091.7734
  11801019.75447   9204131.23244  23256486.8674                   23256483.9494
  -9030195.80047  -7001871.15645  22254641.0474                   22254638.2304
 11  8 17 18 36  0.0000000  0  9G17G24G07G08G26G11G13G19G28
   2553457.73547   2000924.37444  23323494.5784                   23323495.4774
  -4766856.72447  -3703228.80144  22575060.4454                   22575061.3954
  -7049804.69547  -5473936.28446  20263593.3674                   20263590.4964
 -14575516.75848 -11336317.39746  20599884.8914                   20599882.3484
   8131778.13846   6348976.25443  23617522.9774                   23617521.8714
 -12826955.29847  -9955413.46445  21569964.5084                   21569961.8914
  15821738.74747  12332573.37444  23255969.0394                   23255970.4844
  11826357.15646   9223874.60944  23261308.6254                   23261305.1804
  -9130728.95547  -7080208.67345  22235510.1094                   22235507.3484
 11  8 17 18 36 30.0000000  0  9G17G24G07G08G26G11G13G19G28
   2386132.24047   1870540.96344  23291653.6414                   23291653.6884
  -4895790.47147  -3803696.58944  22550525.2894                   22550525.5124
  -7120571.23348  -5529079.05247  20250126.6484                   20250124.0314
 -14700783.43648 -11433927.79146  20576047.6254                   20576045.4574
   7986200.05946   6235538.83443  23589820.2194                   23589820.1684
 -12919788.30347 -10027750.84745  21552298.6884                   21552296.1884
  15857945.92947  12360786.56344  23262858.6484                   23262860.5514
  11851859.62946   9243746.60444  23266160.8754                   23266157.6254
  -9231213.02847  -7158507.94245  22216388.6954                   22216386.4694
 11  8 17 18 37  0.0000000  0  9G17G24G07G08G26G11G13G19G28
   2219009.12247   1740315.26244  23259850.4774                   23259851.2814
  -5024421.73247  -3903928.70744  22526047.4924                   22526047.6094
  -7190925.95448  -5583900.93447  20236738.7894                   20236736.2664
 -14825775.90348 -11531324.53246  20552262.4694                   20552260.6174
   7841070.36646   6122450.82843  23562202.0004                   23562202.5234
 -13012110.32548 -10099690.09045  21534730.1254                   21534728.0744
  15894214.10747  12389047.21144  23269761.0394                   23269761.9414
  11877522.95146   9263743.95444  23271045.3594                   23271041.2424
  -9331649.69947  -7236770.27145  22197276.0234                   22197273.9184
 11  8 17 18 37 30.0000000  0  9G17G24G07G08G26G11G13G19G28
   2052095.23647   1610252.60144  23228087.5394                   23228088.0594
  -5152742.59847  -4003918.92044  22501629.0394                   22501629.0314
  -7260862.40247  -5638396.88347  20223430.2974                   20223428.0634
 -14950486.54148 -11628501.65246  20528530.8444                   20528528.5704
   7696396.34846   6009717.86443  23534671.5234                   23534671.4654
 -13103914.85748 -10171226.07045  21517260.7344                   21517257.9264
  15930545.34947  12417357.03443  23276674.5704                   23276675.7664
  11903349.49747   9283868.51244  23275958.8284                   23275955.6054
  -9432034.91947  -7314992.52045  22178173.4454                   22178171.0784
 11  8 17 18 38  0.0000000  0  9G17G24G07G08G26G11G13G19G28
   1885382.18747   1480346.45744  23196362.8754                   23196364.0204
  -5280760.37747  -4103672.97944  22477267.8594                   22477268.3244
  -7330389.69647  -5692574.02246  20210200.1174                   20210197.2704
 -15074923.24948 -11725465.32046  20504851.4224                   20504849.5744
   7552170.29446   5897333.93743  23507226.6484                   23507225.3634
 -13195210.89348 -10242365.82045  21499887.1334                   21499885.5004
  15966926.49947  12445705.74843  23283597.9614                   23283598.8834
  11929326.43546   9304110.23244  23280902.7034                   23280899.4264
  -9532379.83647  -7393183.35945  22159077.9534                   22159075.7584
 11  8 17 18 38 30.0000000  0  9G17G24G07G08G26G11G13G19G28
   1718873.90547   1350599.84944  23164677.4694                   23164678.5704
  -5408470.09847  -4203187.00744  22452965.1564                   22452966.0124
  -7399504.21248  -5746429.51146  20197047.5864                   20197045.0864
 -15199081.29648 -11822211.86246  20481224.6024                   20481222.2194
   7408396.71346   5785302.60843  23479867.7584                   23479866.9694
 -13285994.37448 -10313106.19245  21482612.0474                   21482610.1134
  16003356.78947  12474092.70844  23290530.7734                   23290532.2774
  11955453.17146   9324468.66644  23285874.6804                   23285871.2114
  -9632682.83147  -7471341.54045  22139991.2034                   22139989.1914
 11  8 17 18 39  0.0000000  0  9G17G24G07G08G26G11G13G19G28
   1552565.12847   1221008.69945  23133029.3984                   23133031.1804
  -5535876.03447  -4302464.31144  22428721.2194                   22428721.6134
  -7468211.88248  -5799967.96446  20183973.2504                   20183970.4804
 -15322965.32748 -11918744.87646  20457650.1484                   20457647.6604
   7265070.85346   5673620.18443  23452593.4534                   23452591.8914
 -13376270.98248 -10383451.57845  21465432.8834                   21465430.5984
  16039826.17747  12502510.17743  23297469.9384                   23297471.4344
  11981720.05546   9344936.32644  23290873.1024                   23290869.2464
  -9732951.24347  -7549472.77045  22120910.7034                   22120907.9844
 11  8 17 18 39 30.0000000  0  9G17G24G07G08G26G11G13G19G28
   1386459.19847   1091575.61845  23101421.4064                   23101421.6684
  -5662973.74747  -4401501.41244  22404534.4064                   22404534.9964
  -7536509.94348  -5853187.25146  20170976.5234                   20170974.2624
 -15446571.36848 -12015061.26746  20434128.8134                   20434126.8594
   7122196.42747   5562289.47843  23425405.6484                   23425404.5944
 -13466038.32247 -10453400.14745  21448350.5394                   21448348.4224
  16076333.15347  12530956.88943  23304417.3134                   23304419.2154
  12008125.94746   9365512.27844  23295898.5944                   23295894.7194
  -9833184.48747  -7627576.58845  22101837.4774                   22101834.9024
 11  8 17 18 40  0.0000000  0  9G17G24G07G08G26G11G13G19G28
   2795980.43847   2189903.96845  23369644.2274                   23369644.0004
  -4214338.84147  -3272694.93644  22680201.1724                   22680201.1724
  -6028978.11648  -4678487.15646  20457850.1884                   20457847.2114
 -13994475.28548 -10883557.82446  20710453.4064                   20710451.2974
   8555197.81947   6678913.96143  23698096.4144                   23698095.6914
 -11979874.78548  -9295350.63945  21731157.9844                   21731156.1134
  17688290.67947  13787027.49143  23611163.5164                   23611163.9574
  13610084.41046  10613791.54044  23600740.2194                   23600737.7774
  -8357962.98047  -6478053.32245  22382562.6724                   22382559.6374
 11  8 17 18 40 30.0000000  0  9G17G24G07G08G26G11G13G19G28
   2630277.91847   2060785.21944  23338112.0394                   23338112.2584
  -4340819.07647  -3371250.92844  22656132.1804                   22656132.8914
  -6096461.13948  -4731071.34046  20445008.8364                   20445005.9884
 -14117525.04548 -10979440.75146  20687038.2584                   20687035.8134
   8413225.79447   6568286.42143  23671080.6024                   23671079.4534
 -12068627.01348  -9364508.20945  21714269.1564                   21714266.8794
  17724856.47947  13815520.04643  23618122.0944                   23618123.2074
  13636752.84046  10634572.07744  23605815.3444                   23605812.3984
  -8458136.16947  -6556110.34645  22363500.4694                   22363497.5984
 11  8 17 18 41  0.0000000  0  9G17G24G07G08G26G11G13G19G28
   2464778.85247   1931825.01145  23306618.5944                   23306618.7624
  -4466987.10047  -3469563.63044  22632123.9534                   22632123.5784
  -6163535.69248  -4783337.25847  20432245.0554                   20432242.2154
 -14240293.63448 -11075104.59046  20663676.0784                   20663673.5314
   8271707.54647   6458012.46043  23644150.4144                   23644148.5704
 -12156870.50548  -9433269.37545  21697476.8134                   21697474.8444
  17761446.35047  13844031.36443  23625085.3754                   23625085.6334
  13663547.90847  10655451.30144  23610914.4844                   23610911.1564
  -8558281.24547  -6634145.45845  22344443.3444                   22344441.1484
 11  8 17 18 41 30.0000000  0  9G17G24G07G08G26G11G13G19G28
   2299482.29647   1803022.57245  23275163.3834                   23275164.4024
  -4592842.73747  -3567632.90544  22608173.7424                   22608173.8134
  -6230203.56648  -4835286.26747  20419558.6174                   20419556.0164
 -14362781.08948 -11170549.36246  20640367.3524                   20640365.1484
   8130642.64647   6348091.76843  23617306.8524                   23617304.5704
 -12244606.64548  -9501635.19645  21680781.8054                   21680779.4384
  17798054.70347  13872557.09343  23632051.9144                   23632052.7894
  13690463.99146  10676424.82844  23616036.3914                   23616032.3634
  -8658401.72348  -6712161.40745  22325391.2894                   22325388.3204
 11  8 17 18 42  0.0000000  0  9G17G24G07G08G26G11G13G19G28
   2134384.91647   1674375.37245  23243746.3984                   23243747.1134
  -4718388.20247  -3665460.48544  22584283.2814                   22584283.2194
  -6296468.24848  -4886921.10746  20406948.5314                   20406946.0514
 -14484990.03048 -11265777.11446  20617111.8524                   20617109.7504
   7990028.27347   6238522.17243  23590548.6414                   23590547.7704
 -12331839.18248  -9569608.60345  21664181.4454                   21664179.3444
  17834673.41247  13901090.83943  23639019.5084                   23639021.3674
  13717493.51746  10697486.73244  23621180.1094                   23621176.9384
  -8758502.98947  -6790162.38845  22306342.2034                   22306339.6214
 11  8 17 18 42 30.0000000  0  9G17G24G07G08G26G11G13G19G28
   1969498.14947   1545892.28244  23212369.4224                   23212369.6094
  -4843611.00246  -3763036.65044  22560454.2274                   22560453.4304
  -6362318.93448  -4938233.35646  20394417.2584                   20394414.9884
 -14606908.19748 -11360778.28646  20593911.4614                   20593909.0634
   7849876.15347   6129312.76443  23563877.5864                   23563878.0784
 -12418557.42148  -9637181.24245  21647679.8364                   21647677.8094
  17871309.55947  13929638.21943  23645992.3754                   23645993.3404
  13744643.46546  10718642.49944  23626346.1804                   23626343.4804
  -8858576.37847  -6868141.63845  22287299.0864                   22287295.9804
 11  8 17 18 43  0.0000000  0  9G17G24G07G08G26G11G13G19G28
   1804813.35247   1417566.56044  23181030.6174                   23181031.2344
  -4968518.96347  -3860367.46644  22536684.7034                   22536684.3484
  -6427765.01748  -4989230.32947  20381963.6174                   20381961.5434
 -14728543.59948 -11455559.11546  20570765.1804                   20570762.9694
   7710178.03547   6020457.08144  23537294.7344                   23537294.0434
 -12504770.58048  -9704360.34245  21631273.7974                   21631271.6334
  17907949.47547  13958188.56443  23652964.7194                   23652965.6724
  13771900.70746  10739881.83144  23631532.4924                   23631530.4694
  -8958632.93147  -6946107.77145  22268258.8594                   22268255.9414
 11  8 17 18 43 30.0000000  0  9G17G24G07G08G26G11G13G19G28
   1640334.94747   1289401.64544  23149731.3444                   23149731.5434
  -5093106.15947  -3957448.35544  22512976.7894                   22512976.7584
  -6492802.62448  -5039909.01746  20369587.3834                   20369585.0904
 -14849890.68448 -11550115.28346  20547672.9694                   20547670.8324
   7570939.15146   5911959.27143  23510797.3364                   23510799.0164
 -12590474.64648  -9771142.72345  21614964.9454                   21614962.6684
  17944593.11846  13986741.71043  23659937.4224                   23659938.7664
  13799265.52046  10761204.99444  23636740.4064                   23636737.3954
  -9058670.35347  -7024058.99845  22249222.4774                   22249219.5664
 11  8 17 18 44  0.0000000  0  9G17G24G07G08G26G11G13G19G28
   1476065.06947   1161399.23044  23118471.5704                   23118472.4064
  -5217369.73247  -4054277.07044  22489330.1174                   22489330.5044
  -6557430.50848  -5090268.43246  20357289.4614                   20357286.8794
 -14970946.79648 -11644444.72646  20524637.0944                   20524634.7894
   7432161.69847   5803821.03444  23484390.4224                   23484388.0044
 -12675668.10848  -9837527.23045  21598753.3444                   21598750.9964
  17981238.26946  14015296.06143  23666911.0634                   23666913.6884
  13826735.31546  10782610.01344  23641968.0314                   23641964.3404
  -9158689.48748  -7101995.98545  22230189.3594                   22230186.6564
 11  8 17 18 44 30.0000000  0  9G17G24G07G08G26G11G13G19G28
   1312006.78147   1033561.69244  23087252.2424                   23087252.8634
  -5341305.51247  -4150850.33644  22465745.6804                   22465745.9574
  -6621646.09248  -5140306.57446  20345069.3364                   20345066.0864
 -15091707.73548 -11738544.16346  20501656.7584                   20501655.1454
   7293849.38246   5696045.25143  23458068.3204                   23458069.8524
 -12760348.64348  -9903512.05045  21582638.8054                   21582636.7424
  18017882.92646  14043850.04643  23673884.1414                   23673886.5554
  13854309.49246  10804096.30744  23647214.9144                   23647211.9454
  -9258689.18148  -7179917.81045  22211159.9384                   22211157.6374
 11  8 17 18 45  0.0000000  0  9G17G24G07G08G26G11G13G19G28
   1148157.41847    905886.96044  23056072.4924                   23056073.4884
  -5464914.96847  -4247169.37444  22442223.6564                   22442223.6954
  -6685452.26848  -5190025.69647  20332927.4614                   20332924.6764
 -15212175.55848 -11832415.20246  20478733.1414                   20478730.8834
   7156000.30846   5588630.47243  23431836.7274                   23431836.8594
 -12844519.05048  -9969099.37845  21566622.1024                   21566619.3324
  18054520.18646  14072398.26243  23680856.0554                   23680858.7664
  13881981.00046  10825658.46944  23652480.9924                   23652477.6764
  -9358674.66048  -7257828.56045  22192133.3594                   22192131.1684
 11  8 17 18 45 30.0000000  0  9G17G24G07G08G26G11G13G19G28
    984519.85347    778377.27644  23024933.1724                   23024934.2624
  -5588194.34547  -4343231.19645  22418764.3204                   22418765.3874
  -6748847.06148  -5239424.26146  20320863.9384                   20320861.4224
 -15332346.54648 -11926054.94646  20455865.1954                   20455862.8834
   7018617.21247   5481578.71344  23405694.7504                   23405693.7304
 -12928177.63048 -10034287.88045  21550702.2274                   21550699.6374
  18091147.90946  14100939.00843  23687827.3914                   23687830.0474
  13909748.05146  10847295.06544  23657764.8204                   23657761.6134
  -9458645.08848  -7335727.58845  22173109.5944                   22173107.2194
 11  8 17 18 46  0.0000000  0  9G17G24G07G08G26G11G13G19G28
    821095.29647    651033.56545  22993834.8594                   22993835.0044
  -5711141.25947  -4439033.92344  22395368.0944                   22395368.4574
  -6811830.04148  -5288501.93246  20308879.0164                   20308876.6174
 -15452218.65448 -12019461.78946  20433054.4924                   20433052.4184
   6881701.84346   5374891.43344  23379640.6414                   23379640.1914
 -13011323.48548 -10099076.84745  21534879.9924                   21534877.5664
  18127762.94546  14129469.88543  23694794.8984                   23694797.2734
  13937607.96946  10869004.02944  23663066.7034                   23663062.9534
  -9558601.56947  -7413615.73445  22154088.5004                   22154085.0084
 11  8 17 18 46 30.0000000  0  9G17G24G07G08G26G11G13G19G28
    657888.05047    523859.17445  22962777.2894                   22962778.4104
  -5833750.39547  -4534573.48344  22372036.6094                   22372036.9264
  -6874397.49048  -5337255.81447  20296972.7504                   20296970.2074
 -15571786.65048 -12112631.66846  20410301.2034                   20410299.0234
   6745259.01546   5268572.41044  23353676.1174                   23353675.1024
 -13093952.71447 -10163463.25545  21519156.0944                   21519154.1024
  18164365.22546  14157990.87043  23701760.3284                   23701761.9734
  13965560.57146  10890785.22744  23668385.7424                   23668382.9264
  -9658542.46547  -7491491.76345  22135070.1334                   22135067.5084
 11  8 17 18 47  0.0000000  0  9G17G24G07G08G26G11G13G19G28
    494902.34447    396857.44845  22931762.0474                   22931762.9344
  -5956016.40647  -4629845.69744  22348770.0634                   22348770.3014
  -6936545.71148  -5385683.01546  20285145.6724                   20285143.5704
 -15691045.44848 -12205560.61346  20387606.8594                   20387605.3134
   6609293.53446   5162625.30744  23327802.6724                   23327802.2464
 -13176062.00048 -10227444.50945  21503531.3754                   21503529.0004
  18200954.43047  14186501.64743  23708723.0944                   23708726.1804
  13993606.11746  10912638.84944  23673722.5004                   23673719.2504
  -9758465.60848  -7569353.94945  22116055.7034                   22116052.4344
 11  8 17 18 47 30.0000000  0  9G17G24G07G08G26G11G13G19G28
    332141.52547    270030.90545  22900789.7974                   22900790.0084
  -6077935.31747  -4724847.38444  22325569.6884                   22325570.2814
  -6998272.36848  -5433781.74146  20273399.4304                   20273397.7154
 -15809991.22048 -12298245.63646  20364972.3284                   20364970.5044
   6473808.61446   5057052.70143  23302020.7584                   23302020.5084
 -13257649.20648 -10291018.95545  21488006.1094                   21488003.7814
  18237529.15147  14215001.05943  23715682.9454                   23715685.7194
  14021742.92246  10934563.53744  23679077.2974                   23679073.4064
  -9858370.91448  -7647202.21745  22097043.8444                   22097041.2774
 11  8 17 18 48  0.0000000  0  9G17G24G07G08G26G11G13G19G28
    169606.25147    143380.15445  22869860.5864                   22869860.4384
  -6199504.88047  -4819576.85644  22302435.5394                   22302435.8094
  -7059577.12648  -5481551.70646  20261733.8984                   20261731.4924
 -15928621.79548 -12390685.06246  20342397.3674                   20342395.8524
   6338805.69546   4951855.63144  23276330.7664                   23276330.3204
 -13338713.55148 -10354185.97645  21472579.8364                   21472577.6054
  18274085.73547  14243486.37443  23722640.5004                   23722643.4774
  14049968.40746  10956557.38344  23684448.7034                   23684445.2464
  -9958258.93648  -7725037.04345  22078036.4614                   22078034.0124
 11  8 17 18 48 30.0000000  0  9G17G24G07G08G26G11G13G19G28
      7298.85847     16906.96245  22838974.0004                   22838973.9694
  -6320721.74047  -4914031.55444  22279369.3444                   22279368.7624
  -7120457.96848  -5528991.36246  20250148.7814                   20250146.3984
 -16046934.21848 -12482876.57246  20319883.7974                   20319881.5004
   6204287.55946   4847036.33444  23250732.5084                   23250731.8754
 -13419254.04848 -10416944.78345  21457253.2974                   21457250.6054
  18310622.03146  14271955.89043  23729592.6884                   23729595.7584
  14078280.72046  10978618.84644  23689835.6484                   23689833.1764
 -10058129.73448  -7802858.43745  22059031.2114                   22059028.6174
 11  8 17 18 49  0.0000000  0  9G17G24G07G08G26G11G13G19G28
   -154772.30047   -109382.16745  22808133.1644                   22808133.3794
  -6441576.60747  -5008204.12344  22256371.0004                   22256370.9224
  -7180907.82148  -5576095.15546  20238645.5394                   20238642.5744
 -16164919.21248 -12574812.93946  20297432.0634                   20297430.1374
   6070262.83246   4742601.49443  23225229.0784                   23225227.6604
 -13499262.59948 -10479289.08845  21442028.7424                   21442025.6804
  18347141.74446  14300412.46643  23736542.8674                   23736544.6334
  14106683.69246  11000750.99844  23695241.2734                   23695237.7814
 -10157977.23747  -7880661.69445  22040031.1174                   22040028.2304
 11  8 17 18 49 30.0000000  0  9G17G24G07G08G26G11G13G19G28
   -316605.30847   -235485.70745  22777337.5634                   22777337.4804
  -6562066.78747  -5102092.54844  22233442.7274                   22233442.5634
  -7240925.49748  -5622862.20646  20227224.7114                   20227222.2034
 -16282573.88248 -12666491.90946  20275043.1644                   20275041.1994
   5936733.62946   4638552.78044  23199818.7424                   23199817.6024
 -13578738.27547 -10541218.19545  21426904.5234                   21426902.0784
  18383642.40047  14328854.19943  23743488.5704                   23743491.8164
  14135175.06846  11022951.99944  23700663.0554                   23700659.7624
 -10257801.81247  -7958447.07645  22021035.1804                   22021032.3284
 11  8 17 18 50  0.0000000  0  9G17G24G07G08G26G11G13G19G28
   -478193.37147   -361398.40245  22746587.7734                   22746588.2814
  -6682184.17847  -5195690.49644  22210584.6334                   22210585.0944
  -7300504.62948  -5669287.52946  20215887.1884                   20215884.6994
 -16399890.24848 -12757907.26146  20252718.4064                   20252716.6844
   5803707.02347   4534895.73944  23174504.8134                   23174503.7274
 -13657674.88148 -10602727.24245  21411883.8834                   21411881.0864
  18420126.45546  14357283.03443  23750431.0864                   23750434.0084
  14163757.82346  11045224.16843  23706101.7274                   23706098.1524
 -10357598.70348  -8036210.87846  22002044.6174                   22002042.1134
 11  8 17 18 50 30.0000000  0  9G17G24G07G08G26G11G13G19G28
    935896.99647    740490.30245  23015679.7584                   23015680.3634
  -5226495.93547  -4061387.94544  22487592.6484                   22487592.8244
  -5784216.07848  -4487764.01246  20504427.2114                   20504425.1954
 -14941436.01848 -11621449.43146  20530253.1334                   20530251.0704
   7246615.95046   5659240.36244  23449080.1414                   23449079.8054
 -12160643.14847  -9436208.98845  21696759.5084                   21696756.5234
  20032016.09546  15613300.60743  24057164.5944                   24057167.9344
  15767854.66646  12295169.71544  24011351.0784                   24011348.9144
  -8881938.96548  -6886346.14745  22282852.8754                   22282850.4924
 11  8 17 18 51  0.0000000  0  9G17G24G07G08G26G11G13G19G28
    774812.67047    614970.13445  22985026.0554                   22985027.4964
  -5345850.89047  -4154391.76144  22464880.4384                   22464880.7974
  -5842906.77548  -4533497.04746  20493259.1644                   20493256.5434
 -15058060.06948 -11712325.32346  20508060.3364                   20508058.2854
   7114609.56247   5556378.27944  23423960.6884                   23423960.0084
 -12238490.69647  -9496869.39845  21681945.0004
  21681942.9534   20068467.31346  15641703.71743  24064101.2114   24064104.4534
  15796621.39746  12317585.29144  24016824.6884                   24016821.9654
  -8981673.88547  -6964061.67545  22263874.2664                   22263871.6724
 11  8 17 18 51 30.0000000  0  9G17G24G07G08G26G11G13G19G28
    613985.93847    489650.67545  22954422.8754                   22954422.9224
  -5464817.16547  -4247092.74044  22442241.0704                   22442242.2464
  -5901147.92548  -4578879.79046  20482175.9694                   20482173.4024
 -15174330.78448 -11802925.88946  20485934.4304                   20485932.5904
   6983119.56447   5453918.52144  23398939.2194                   23398938.3284
 -12315788.78548  -9557101.66545  21667235.8524                   21667233.2384
  20104901.64246                  15670093.78243  24071035.3524   24071038.4924
  15825480.05746  12340072.48743  24022316.8204                   24022314.2154
  -9081375.10947  -7041750.94145  22244901.5944                   22244898.6134
 11  8 17 18 52  0.0000000  0  9G17G24G07G08G26G11G13G19G28
    453421.20847    364535.37745  22923867.7584                   22923867.4304
  -5583389.66647  -4339486.86444  22419677.6564                   22419678.3404
  -5958936.70848  -4623910.03246  20471178.9694                   20471176.9494
 -15290243.26348 -11893247.29446  20463876.9224                   20463874.6374
   6852150.59047   5351864.81343  23374016.3674                   23374015.3594
 -12392534.26848  -9616903.34345  21652631.6884                   21652629.8014
  20141318.41046                  15698470.13143  24077964.0864   24077968.5354
  15854430.18246  12362630.94943  24027826.5004                   24027822.6724
  -9181040.62147  -7119412.39045  22225935.9534                   22225932.9454
 11  8 17 18 52 30.0000000  0  9G17G24G07G08G26G11G13G19G28
    293122.51147    239627.37445  22893363.7504                   22893364.4264
  -5701563.32247  -4431570.19444  22397190.4614                   22397190.2274
  -6016269.88148  -4668585.24646  20460269.1644                   20460266.6684
 -15405792.10648 -11983285.35946  20441889.0864                   20441887.1954
   6721706.69147   5250220.25644  23349193.9694                   23349193.0474
 -12468723.69447  -9676271.70745  21638133.1254                   21638130.9534
  20177717.55446                  15726832.65443  24084892.1024   24084894.9224
  15883472.22846  12385261.07844  24033352.8674                   24033349.6644
  -9280668.63848  -7197044.59845  22206977.4534                   22206974.5944
 11  8 17 18 53  0.0000000  0  9G17G24G07G08G26G11G13G19G28
    133084.06947    114922.17445  22862909.8674                   22862908.9654
  -5819342.87147  -4523346.43445  22374777.8284                   22374778.1374
  -6073153.34848  -4712910.05346  20449444.3204                   20449442.1134
 -15520981.93948 -12073043.67546  20419969.0864                   20419967.2854
   6591782.63547   5148980.75743  23324470.2974                   23324469.0824
 -12544363.61047  -9735211.88945  21623739.8834                   21623737.3914
  20214089.25546                  15755173.84943  24091813.2814   24091817.3324
  15912596.69246  12407955.40444  24038895.0784                   24038892.6054
  -9380266.79848  -7274653.56245  22188024.4454                   22188021.7704
 11  8 17 18 53 30.0000000  0  9G17G24G07G08G26G11G13G19G28
    -26691.51047     -9578.19245  22832505.4694                   22832504.9064
  -5936724.63647  -4614812.72444  22352440.8674                   22352440.8134
  -6129585.24447  -4756882.98646  20438705.6094                   20438703.1954
 -15635809.38548 -12162519.61546  20398118.1414                   20398116.3014
   6462381.22047   5048148.51544  23299845.5864                   23299844.1804
 -12619452.55347  -9793722.74645  21609450.5704                   21609448.2384
  20250431.81946                  15783492.40243  24098729.7814   24098734.0274
  15941801.85547  12430712.63443  24044453.5004                   24044449.3594
  -9479834.17948  -7352238.53045  22169077.4534                   22169074.3204
 11  8 17 18 54  0.0000000  0  9G17G24G07G08G26G11G13G19G28
   -186204.16347   -133873.72145  22802151.5784                   22802150.0554
  -6053707.92347  -4705968.50544  22330179.5944                   22330179.9534
  -6185566.86047  -4800505.05546  20428053.1414                   20428050.5784
 -15750273.86247 -12251712.72446  20376336.2504                   20376334.4884
   6333502.40546   4947723.47743  23275320.8134                   23275320.1024
 -12693991.35947  -9851804.92045  21595266.6334                   21595263.9494
  20286740.20846                  15811784.25443  24105638.9224   24105643.5434
  15971083.62146  12453529.54643  24050025.5164                   24050021.6884
  -9579373.47748  -7429801.61845  22150135.8834                   22150132.7664
 11  8 17 18 54 30.0000000  0  9G17G24G07G08G26G11G13G19G28
   -345442.95247   -257955.81245  22771848.5234                   22771848.2074
  -6170280.23047  -4796804.05544  22307996.7114                   22307996.1374
  -6241087.74448  -4843768.10546  20417487.7814                   20417484.9224
 -15864362.82148 -12340613.21846  20354625.8594                   20354624.4024
   6205158.18946   4847715.00343  23250897.8914                   23250897.4614
 -12767969.77447  -9909450.42245  21581188.6254                   21581186.1564
  20323021.74346                  15840055.14343  24112543.8444   24112546.8284
  16000448.95546  12476411.55543  24055612.5944                   24055609.9774
  -9678875.62447  -7507335.75745  22131201.3754                   22131198.7074
 11  8 17 18 55  0.0000000  0  9G17G24G07G08G26G11G13G19G28
   -504417.85647   -381832.27145  22741597.3674                   22741596.5234
  -6286450.59647  -4887326.37644  22285890.3364                   22285890.0664
  -6296158.67347  -4886680.55446  20407008.1484                   20407005.7274
 -15978085.38648 -12429228.21946  20332985.0314                   20332983.2774
   6077338.15346   4748115.01144  23226574.3444                   23226573.9384
 -12841398.95648  -9966667.97545  21567215.4924                   21567212.5864
  20359262.17846                  15868294.05843  24119440.3834   24119443.5394
  16029884.35546  12499348.14343  24061214.6174                   24061212.2464
  -9778352.72747  -7584850.37145  22112271.1724                   22112268.0124
 11  8 17 18 55 30.0000000  0  9G17G24G07G08G26G11G13G19G28
   -663123.38147   -505498.85445  22711396.4454                   22711396.7234
  -6402212.56247  -4977530.48144  22263861.3834                   22263861.3984
  -6350774.69048  -4929238.50746  20396614.9534                   20396612.8094
 -16091435.33048 -12517552.86046  20311415.5004                   20311413.2154
   5950048.30546   4648928.14943  23202351.7194                   23202350.1524
 -12914273.86648 -10023453.61345  21553347.8914                   21553345.4884
  20395462.48846                  15896501.79943  24126329.4144   24126332.1174
  16059391.97446  12522341.00244  24066829.7584                   24066827.0944
  -9877800.94848  -7662342.49045  22093347.1414                   22093344.3204
 11  8 17 18 56  0.0000000  0  9G17G24G07G08G26G11G13G19G28
   -821566.66947   -628961.06745  22681245.5944                   22681244.9774
  -6517572.54047  -5067421.35444  22241909.5314                   22241908.8914
  -6404943.83748  -4971448.26146  20386306.9064                   20386304.5744
 -16204418.69548 -12605591.84346  20289915.3204                   20289913.6524
   5823281.41047   4550148.72344  23178228.5314                   23178228.8874
 -12986602.95748 -10079813.93145  21539584.5864                   21539581.8554
  20431611.50246                  15924669.42642  24133207.4844   24133211.5044
  16088960.07546  12545381.02943  24072456.2584                   24072453.8524
  -9977229.65747  -7739819.39245  22074426.2034                   22074423.5204
 11  8 17 18 56 30.0000000  0  9G17G24G07G08G26G11G13G19G28
   -979741.48447   -752214.10045  22651146.0864                   22651145.4734
  -6632523.42147  -5156993.44444  22220034.0394                   22220034.4224
  -6458660.97547  -5013305.80346  20376085.2114                   20376082.7464
 -16317028.28448 -12693339.60546  20268486.4534                   20268485.3674
   5697043.73747   4451781.74144  23154207.9144                   23154206.0514
 -13058380.70648 -10135744.64345  21525925.0634                   21525922.6414
  20467710.65345                  15952798.19942  24140077.5704   24140081.7384
  16118590.61746  12568469.71443  24078094.3674                   24078092.1954
 -10076634.96247  -7817278.07945  22055510.2974                   22055507.6524
 11  8 17 18 57  0.0000000  0  9G17G24G07G08G26G11G13G19G28
  -1137645.23047   -875255.90545  22621097.3984                   22621097.6524
  -6747061.07647  -5246243.53544  22198239.1564                   22198238.5004
  -6511923.78747  -5054809.32846  20365949.5474                   20365946.7894
 -16429260.35548 -12780793.17446  20247129.3984                   20247127.7464
   5571338.59847   4353829.70744  23130286.0554                   23130285.1994
 -13129605.96647 -10191244.83845  21512371.4694                   21512368.7704
  20503758.89945                  15980887.28942  24146938.0234   24146942.9884
  16148282.86946  12591606.43843  24083744.8524                   24083742.4414
 -10176016.00347  -7894717.83245  22036598.0314                   22036595.6644
 11  8 17 18 57 30.0000000  0  9G17G24G07G08G26G11G13G19G28
  -1295278.21747   -998086.74045  22591100.7114                   22591100.5944
  -6861185.54747  -5335171.65645  22176522.1954                   22176521.7664
  -6564733.95847  -5095960.15046  20355899.9384                   20355897.9344
 -16541114.89247 -12867952.57546  20225844.0704                   20225842.1954
   5446165.34547   4256292.10444  23106467.0864                   23106466.1884
 -13200279.91447 -10246315.45545  21498922.7504                   21498920.1484
  20539751.63846                  16008933.15943  24153787.8284   24153792.6994
  16178032.18246  12614787.62843  24089406.2194                   24089403.4924
 -10275375.27947  -7972140.64845  22017690.8444                   22017688.6844
 11  8 17 18 58  0.0000000  0  9G17G24G07G08G26G11G13G19G28
  -1452643.06547  -1120708.63345  22561154.8834                   22561155.4264
  -6974897.96347  -5423778.70445  22154882.9534                   22154883.1914
  -6617094.53747  -5136760.63246  20345936.2814                   20345933.8444
 -16652592.77048 -12954818.45946  20204631.0394                   20204629.2704
   5321521.94047   4159167.40644  23082747.7194                   23082746.7304
 -13270405.81647 -10300958.99945  21485578.2894                   21485575.7584
  20575682.03946                  16036930.46943  24160625.2814   24160630.1294
  16207832.35946  12638008.46243  24095077.5474                   24095073.9024
 -10374717.06847  -8049549.83445  21998786.3914                   21998784.1884
 11  8 17 18 58 30.0000000  0  9G17G24G07G08G26G11G13G19G28
  -1609739.21247  -1243121.13145  22531261.1094                   22531260.8444
  -7088196.90147  -5512063.55145  22133322.9384                   22133323.0124
  -6669005.85047  -5177211.04646  20336057.5704                   20336055.2384
 -16763692.50748 -13041389.69546  20183489.7344                   20183488.0164
   5197408.90147   4062455.95544  23059129.3674                   23059129.0824
 -13339984.34847 -10355176.04445  21472338.2814                   21472335.2464
  20611546.49746                  16064876.35043  24167450.6484   24167455.1914
  16237680.29646  12661266.55443  24100757.4384                   24100753.6334
 -10474042.70147  -8126946.42145  21979885.5864                   21979882.9734
 11  8 17 18 59  0.0000000  0  9G17G24G07G08G26G11G13G19G28
  -1766560.33847  -1365319.34045  22501419.1024                   22501419.0664
  -7201075.12347  -5600020.57945  22111842.3834                   22111843.0354
  -6720462.34348  -5217307.05346  20326265.6804                   20326263.4614
 -16874407.12048 -13127660.83546  20162420.7974                   20162419.1334
   5073832.56247   3966162.71344  23035613.7584                   23035612.1294
 -13409010.13448 -10408962.35845  21459203.4454                   21459199.4414
  20647347.24946                  16092772.65244  24174263.3364   24174268.3134
  16267578.68946  12684563.91243  24106446.8594                   24106443.6524
 -10573347.78648  -8204327.00345  21960988.6414                   21960986.1214
 11  8 17 18 59 30.0000000  0  9G17G24G07G08G26G11G13G19G28
  -1923111.28047  -1487307.02945  22471628.1564                   22471627.6994
  -7313536.68547  -5687652.90745  22090441.9614                   22090442.1644
  -6771469.70147  -5257053.09446  20316559.6804                   20316557.3794
 -16984740.44848 -13213634.85946  20141425.2114                   20141423.5314
   4950788.40847   3870284.19444  23012199.0944                   23012198.6454
 -13477489.31147 -10462322.74945  21446171.4304                   21446168.8324
  20683075.27547                  16120612.23244  24181063.2814   24181067.5984
  16297518.72346  12707893.72843  24112144.5394                   24112141.6884
 -10672639.17047  -8281696.89645  21942093.9774                   21942091.3874
 11  8 17 19  0  0.0000000  0  9G17G24G07G08G26G11G13G19G28
  -2079392.28447  -1609084.35745  22441889.1804                   22441887.9534
  -7425580.77046  -5774959.96345  22069120.0394                   22069120.7034
  -6822028.97048  -5296449.96546  20306938.7814                   20306936.5234
 -17094691.44148 -13299310.96846  20120502.0864                   20120500.4304
   4828276.09147   3774820.03644  22988885.7584                   22988885.1764
 -13545423.09747 -10515258.16945  21433244.1804                   21433241.5634
  20718726.28047                  16148391.77544  24187846.7114   24187852.3284
  16327496.25746  12731252.77143  24117848.5394                   24117845.6764
 -10771918.81948  -8359057.65545  21923201.7034                   21923199.1724
 11  8 17 19  0 30.0000000  0  9G17G24G07G08G26G11G13G19G28
  -2235399.78347  -1730648.58545  22412201.7894                   22412201.2704
  -7537202.97147  -5861938.25745  22047879.0314                   22047879.6724
  -6872137.84947  -5335495.88146  20297403.3984                   20297400.6524
 -17204255.82348 -13384685.81646  20099653.0864                   20099651.0784
   4706299.34447   3679773.23044  22965674.4384                   22965674.3284
 -13612808.94447 -10567766.61245  21420420.9454                   21420418.8834
  20754299.51347                  16176110.73943  24194617.0084   24194621.6914
  16357511.38846  12754641.14043  24123560.4224                   24123558.7344
 -10871185.11348  -8436407.98445  21904311.7814                   21904309.3554
 11  8 17 19  1  0.0000000  0  9G17G24G07G08G26G11G13G19G28
   -815705.02747   -624392.87945  22682360.4844                   22682359.7274
  -6072975.25947  -4720981.57145  22326512.7894                   22326512.6134
  -5346371.66948  -4146587.21046  20587746.9064                   20587744.8204
 -15738005.18248 -12242152.86146  20378671.0164                   20378668.8914
   6160285.84047   4812749.75644  23242358.8054                   23242358.3364
 -12104222.02848  -9392244.31645  21707495.9694   21707492.8984   22365213.51946
  17431367.95943                  24501163.8754                   24501168.5984
  17962983.04046  14005657.86243  24429071.7664                   24429069.3324
  -9395013.21748  -7286144.16545  22185218.1334                   22185215.7544
 11  8 17 19  1 30.0000000  0  9G17G24G07G08G26G11G13G19G28
   -971165.05347   -745530.48645  22652777.4694                   22652777.1174
  -6183750.59947  -4807299.98145  22305432.7734                   22305433.0594
  -5395581.29347  -4184932.41546  20578382.8444                   20578380.5704
 -15846792.46748 -12326922.18046  20357969.6254                   20357967.7384
   6039380.85647   4718538.04644  23219351.8834                   23219350.5514
 -12170514.89447  -9443901.11545  21694880.3284   21694877.7504   22400619.83546
  17458956.89643                  24507901.7974                   24507907.2544
  17993062.40046  14029096.32843  24434795.1414                   24434793.3164
  -9494258.18648  -7363477.89245  22166332.3594                   22166330.0784
 11  8 17 19  2  0.0000000  0  9G17G24G07G08G26G11G13G19G28
  -1126356.50247   -866458.84145  22623245.5084                   22623244.7194
  -6294105.99947  -4893291.17045  22284433.2504                   22284433.0004
  -5444347.74248  -4222932.28746  20569102.6564                   20569100.0664
 -15955195.26948 -12411391.89646  20337341.5944                   20337339.2774
   5919006.65247   4624739.97944  23196445.7584                   23196444.5904
 -12236268.04548  -9495137.31445  21682368.1564   21682365.4064   22435931.44446
  17486472.00042                  24514620.8594                   24514626.6454
  18023163.39846  14052551.50943  24440523.2194                   24440521.8444
  -9593500.05948  -7440809.23745  22147447.0474                   22147444.7774
 11  8 17 19  2 30.0000000  0  9G17G24G07G08G26G11G13G19G28
  -1281275.91147   -987175.23045  22593765.2894                   22593764.5474
  -6404037.29247  -4978951.87245  22263513.8834                   22263514.3484
  -5492668.72347  -4260585.03646  20559907.5164                   20559905.5784
 -16063208.79948 -12495558.29646  20316786.9614                   20316785.0514
   5799166.86347   4531358.34244  23173640.9384                   23173638.4454
 -12301479.35748  -9545951.32245  21669958.7504   21669955.9884   22471148.02045
  17513912.96142                  24521322.8754                   24521327.5594
  18053285.57946  14076023.27343  24446255.8444                   24446253.1054
  -9692737.32748  -7518136.96145  22128562.9454                   22128560.3244
 11  8 17 19  3  0.0000000  0  9G17G24G07G08G26G11G13G19G28
  -1435924.82847  -1107680.82645  22564336.3754                   22564334.7974
  -6513545.15147  -5064282.64045  22242675.5234                   22242674.9414
  -5540546.33148  -4297892.30746  20550796.8204                   20550794.7814
 -16170833.48848 -12579421.69046  20296306.6334                   20296304.5354
   5679859.88247   4438391.87544  23150937.0554                   23150935.8674
 -12366151.15048  -9596344.93045  21657652.1254   21657649.8284   22506263.98445
  17541275.65242                  24528004.9774                   24528011.5704
  18083423.96246  14099507.67443  24451991.5234                   24451987.7304
  -9791973.19647  -7595463.59745  22109679.3054                   22109676.7934
 11  8 17 19  3 30.0000000  0  9G17G24G07G08G26G11G13G19G28
  -1590304.41847  -1227976.55845  22534958.7114                   22534958.2504
  -6622629.64747  -5149283.48445  22221917.1024                   22221917.0864
  -5587982.42748  -4334855.52446  20541769.7424                   20541767.3054
 -16278069.57048 -12662982.29946  20275900.5164                   20275897.9344
   5561084.50547   4345839.64044  23128334.8594                   23128334.2424
 -12430285.99048  -9646320.12045  21645447.8754   21645445.1254   22541274.33146
  17568556.04342                  24534668.3054                   24534673.7774
  18113573.98246  14123001.08843  24457727.8914                   24457725.0514
  -9891210.54848  -7672791.40846  22090795.2274                   22090793.0634
 11  8 17 19  4  0.0000000  0  9G17G24G07G08G26G11G13G19G28
  -1744409.89647  -1348058.70345  22505633.1174                   22505632.2464
  -6731285.37147  -5233950.26545  22201240.1024                   22201240.7704
  -5634973.10647  -4371471.67846  20532827.8754                   20532826.1334
 -16384911.41148 -12746235.69446  20255569.1804                   20255566.8324
   5442845.65647   4253705.47244  23105834.4844                   23105833.5354
 -12493880.48148  -9695874.27345  21633346.2734   21633343.8714   22576179.67246
  17595754.56342                  24541311.7344                   24541315.6844
  18143736.38646  14146504.19143  24463466.7114                   24463465.0514
  -9990446.82048  -7750118.36345  22071910.7274                   22071908.4184
 11  8 17 19  4 30.0000000  0  9G17G24G07G08G26G11G13G19G28
  -1898238.03347  -1467924.72445  22476360.6564                   22476360.6684
  -6839508.41047  -5318279.86645  22180646.3754                   22180646.2384
  -5681517.07148  -4407739.73646  20523971.1024                   20523968.6484
 -16491354.85348 -12829178.64346  20235313.7194                   20235311.6254
   5325145.95247   4161991.42644  23083437.1174                   23083436.1644
 -12556932.61247  -9745005.80145  21621347.5634   21621345.0274   22610979.23446
  17622870.65043                  24547933.9224                   24547939.4184
  18173910.95746  14170016.81642  24469210.2974                   24469207.1564
 -10089680.49648  -7827443.30645  22053027.6174                   22053025.0594
 11  8 17 19  5  0.0000000  0  9G17G24G07G08G26G11G13G19G28
  -2051790.28947  -1587575.79145  22447140.4224                   22447140.3554
  -6947298.95147  -5402272.45345  22160134.0554                   22160134.2854
  -5727615.71347  -4443660.79746  20515198.2424                   20515196.5864
 -16597399.91448 -12911811.17246  20215134.1564                   20215132.0434
   5207984.55247   4070696.84644  23061142.2034                   23061140.4454
 -12619444.80747  -9793716.60545  21609451.6644   21609449.4774   22645667.41246
  17649900.03942                  24554534.8364                   24554540.7544
  18204093.11446  14193535.29443  24474953.3444                   24474950.4344
 -10188913.90448  -7904768.02545  22034143.7584                   22034141.5864
 11  8 17 19  5 30.0000000  0  9G17G24G07G08G26G11G13G19G28
  -2205067.79547  -1707012.75145  22417973.4064                   22417972.3364
  -7054657.22747  -5485928.20745  22139704.6884                   22139705.2854
  -5773271.11648  -4479236.47246  20506510.7114                   20506508.6294
 -16703046.77848 -12994133.40746  20195029.9064                   20195027.7344
   5091360.08747   3979820.63144  23038948.9384                   23038948.0944
 -12681419.59247  -9842008.62845  21597658.4454   21597655.7854   22680239.39446
  17676838.85542                  24561114.4144                   24561120.0124
  18234277.80946  14217055.71943  24480697.5864                   24480694.3634
 -10288150.36248  -7982095.14645  22015259.7584                   22015256.9884
 11  8 17 19  6  0.0000000  0  9G17G24G07G08G26G11G13G19G28
  -2358062.85747  -1826229.62845  22388859.5864                   22388858.4104
  -7161574.85747  -5569240.59945  22119359.4224                   22119358.9494
  -5818477.14248  -4514461.98246  20497908.3444                   20497906.1484
 -16808286.68148 -13076138.53146  20175003.0004                   20175000.8874
   4975279.95747   3889368.58544  23016860.4304                   23016858.9924
 -12742850.39247  -9889876.80045  21585968.5864   21585966.3364   22714699.08646
  17703690.16543                  24567671.3204                   24567677.0274
  18264469.45046  14240581.64743  24486442.6724                   24486440.3754
 -10387383.64748  -8059419.76845  21996376.3834                   21996373.2584
 11  8 17 19  6 30.0000000  0  9G17G24G07G08G26G11G13G19G28
  -2510776.19347  -1945226.98245  22359798.4384                   22359798.1804
  -7268051.74747  -5652209.55145  22099096.7274                   22099097.3094
  -5863234.99347  -4549338.25846  20489391.5164                   20489389.3674
 -16913119.28248 -13157826.28646  20155054.2344                   20155052.4844
   4859743.92047   3799340.51844  22994874.1174                   22994872.7624
 -12803738.99247  -9937322.46145  21574381.7114   21574379.5394   22749041.88246
  17730450.31342                  24574208.4774                   24574213.2034
  18294663.71646  14264109.54943  24492189.0704                   24492185.6684
 -10486616.28148  -8136743.88845  21977493.1564                   21977490.2894
 11  8 17 19  7  0.0000000  0  9G17G24G07G08G26G11G13G19G28
  -2663200.44247  -2063999.08045  22330793.2894                   22330792.9304
  -7374079.66047  -5734828.66345  22078921.0864                   22078920.8634
  -5907538.18547  -4583860.26246  20480960.9614                   20480958.6994
 -17017536.19848 -13239190.14346  20135184.6254                   20135182.9924
   4744758.90247   3709741.79144  22972992.5944                   22972992.4654
 -12864079.64548  -9984341.15845  21562899.5864   21562896.8554   22783271.54646
  17757122.37142                  24580721.5554                   24580727.2424
  18324864.52746  14287642.58943  24497935.7034                   24497933.4184
 -10585842.48348  -8214063.01045  21958610.9304                   21958608.1454
 11  8 17 19  7 30.0000000  0  9G17G24G07G08G26G11G13G19G28
  -2815342.18547  -2182551.03545  22301841.7194                   22301840.7034
  -7479664.47047  -5817102.50545  22058828.4694                   22058827.6214
  -5951394.27648  -4618033.88046  20472615.0554                   20472613.0594
 -17121543.05148 -13320234.44546  20115392.7894                   20115390.8794
   4630318.09447   3620567.18744  22951215.9774                   22951214.8484
 -12923880.20248 -10030938.97745  21551519.6094   21551517.7154   22817377.32446
  17783697.84343                  24587211.5474                   24587218.4024
  18355061.87446  14311172.99243  24503682.7424                   24503679.7584
 -10685070.47248  -8291383.51945  21939728.4924                   21939726.2624
 11  8 17 19  8  0.0000000  0  9G17G24G07G08G26G11G13G19G28
  -2967191.27847  -2300874.95345  22272945.7974                   22272944.9574
  -7584795.09846  -5899022.45345  22038823.1094                   22038822.8634
  -5994794.27847  -4651852.09346  20464356.1484                   20464353.9804
 -17225128.90647 -13400950.71346  20095681.0394                   20095678.9574
   4516431.65347   3531824.50644  22929543.4534                   22929542.6254
 -12983131.73548 -10077109.00645  21540244.4064   21540242.2974   22851365.57146
  17810181.79943                  24593679.3984                   24593686.5234
  18385262.48346  14334705.81143  24509430.4774                   24509426.3524
 -10784291.52047  -8368698.62645  21920847.0004                   21920844.8204
 11  8 17 19  8 30.0000000  0  8G17G24G07G08G26G11G19G28
  -3118755.34947  -2418976.79245  22244103.1804                   22244102.8364
  -7689478.34246  -5980593.76245  22018902.1644                   22018901.7234
  -6037746.88948  -4685321.69946  20456183.5234                   20456181.3714
 -17328300.17848 -13481343.92146  20076047.9924                   20076046.1764
   4403091.72947   3443507.66144  22907975.6334                   22907974.9224
 -13041843.24448 -10122858.24145  21529071.9844   21529069.8554
  18415455.36345  14358232.64043  24515174.8524                   24515172.2624
 -10883514.93748  -8446015.56845  21901965.8984                   21901963.3244
 11  8 17 19  9  0.0000000  0  8G17G24G07G08G26G11G19G28
  -3270024.55947  -2536848.84245  22215317.7894                   22215317.9024
  -7793703.70647  -6061808.27645  21999068.2974                   21999068.2504
  -6080243.29247  -4718435.81346  20448096.1724                   20448094.0664
 -17431046.10948 -13561405.69946  20056496.3134                   20056493.8874
   4290308.06347   3355624.31044  22886513.4534                   22886512.5664
 -13100006.60148 -10168180.35045  21518004.3914   21518002.4614
  18445646.99746  14381758.56243  24520920.4774                   24520917.3164
 -10982732.53248  -8523327.97145  21883085.3914                   21883082.5044
 11  8 17 19  9 30.0000000  0  8G17G24G07G08G26G11G19G28
  -3420986.29947  -2654481.34745  22186591.2974                   22186590.0514
  -7897457.80146  -6142655.57745  21979325.0314                   21979324.8204
  -6122271.78447  -4751185.31346  20440098.5234                   20440096.1994
 -17533352.99247 -13641125.35046  20037027.8524                   20037026.2934
   4178092.97247   3268183.97044  22865159.5314                   22865158.6374
 -13157610.26348 -10213066.32545  21507042.7274   21507040.2464
  18475846.12945  14405290.25042  24526666.6644                   24526663.3794
 -11081933.49748  -8600627.44145  21864207.9534                   21864204.8874
 11  8 17 19 10  0.0000000  0  8G17G24G07G08G26G11G19G28
  -3571626.22647  -2771863.05345  22157925.0474                   22157924.6764
  -8000725.05547  -6223123.52345  21959673.1564                   21959673.4924
  -6163818.60648  -4783559.49446  20432192.4454                   20432190.2424
 -17635205.34948 -13720490.83746  20017645.8834                   20017644.0904
   4066460.84947   3181197.88244  22843917.6804                   22843916.2544
 -13214640.67148 -10257505.61845  21496189.9844   21496187.7034
  18506064.42345  14428836.92642  24532417.4614                   24532414.0824
 -11181104.42648  -8677903.47445  21845336.1644                   21845333.5274
 11  8 17 19 10 30.0000000  0  8G17G24G07G08G26G11G19G28
  -3721946.05847  -2888995.36545  22129320.2974                   22129319.1254
  -8103506.58246  -6303212.97845  21940114.7584                   21940114.8014
  -6204886.70948  -4815560.64646  20424377.5084                   20424375.0944
 -17736603.68847 -13799502.53446  19998350.8364                   19998349.3324
   3955410.00147   3094664.75644  22822784.4224                   22822783.2584
 -13271101.44647 -10301501.03145  21485445.8594   21485443.4024
  18536297.32245  14452394.93842  24538171.0394                   24538168.7274
 -11280248.19348  -8755158.35146  21826469.8834                   21826467.3054
 11  8 17 19 11  0.0000000  0  8G17G24G07G08G26G11G19G28
  -3871949.73847  -3005881.30945  22100775.3054                   22100775.0594
  -8205805.75447  -6382926.58045  21920647.9694                   21920647.9384
  -6245481.10347  -4847192.67746  20416652.8134                   20416650.4494
 -17837551.04648 -13878162.82346  19979140.8444                   19979139.2384
   3844936.20147   3008581.27144  22801761.8134                   22801761.6134
 -13326997.55648 -10345056.44745  21474809.2734   21474807.2384
  18566536.98645  14475958.23442  24543924.2194                   24543921.9694
 -11379370.51547  -8832396.51846  21807607.2504                   21807604.6294
 11  8 17 19 11 30.0000000  0  8G17G24G07G08G26G11G19G28
  -2446216.14247  -1894920.00545  22372083.7814                   22372083.2424
  -6732202.17847  -5234664.01045  22201065.2194                   22201065.0554
  -4710185.48647  -3650858.46146  20708809.5084                   20708807.5204
 -16362626.82048 -12728871.23946  20259809.9694                   20259808.2894
   5310458.60847   4150546.78644  23080642.5784                   23080641.4574
 -11806912.53548  -9160574.61845  21764071.6644   21764068.8634   20172195.30245
  15727120.53143                  24849471.8134                   24849469.3754
  -9903053.52447  -7682019.63046  22088541.2894                   22088539.3094
 11  8 17 19 12  0.0000000  0  8G17G24G07G08G26G11G19G28
  -2595594.03947  -2011318.31345  22343657.8364                   22343657.6094
  -6833540.89946  -5313629.20045  22181781.6644                   22181781.5864
  -4749842.30047  -3681759.91546  20701263.3674                   20701260.7974
 -16462675.76147 -12806831.45646  20240771.2664                   20240769.2774
   5201131.14147   4065356.57044  23059838.1804                   23059836.6644
 -11861690.88648  -9203259.07445  21753647.9144   21753645.1454   20202432.37245
  15750681.77742                  24855226.3284                   24855224.3444
 -10002144.43248  -7759233.32445  22069684.7424                   22069682.2704
 11  8 17 19 12 30.0000000  0  8G17G24G07G08G26G11G19G28
  -2744655.69547  -2127470.22045  22315291.9844                   22315291.6484
  -6934394.79847  -5392216.63445  22162589.3284                   22162589.0274
  -4789027.80548  -3712294.11746  20693806.6094                   20693804.5204
 -16562270.35047 -12884437.63846  20221818.5314                   20221816.8204
   5092380.00947   3980615.41144  23039142.8984                   23039141.5744
 -11915909.05147  -9245506.99445  21743330.3364   21743327.5634   20232666.90945
  15774241.04742                  24860978.9454                   24860976.8834
 -10101217.73248  -7836433.29246  22050831.9614                   22050829.4774
 11  8 17 19 13  0.0000000  0  8G17G24G07G08G26G11G19G28
  -2893402.71347  -2243376.93645  22286986.5314                   22286986.6054
  -7034764.58647  -5470426.79845  22143489.8984                   22143489.1174
  -4827745.38948  -3742463.69346  20686438.9224                   20686436.5984
 -16661411.59548 -12961690.56846  20202952.7034                   20202951.3444
   4984203.31347   3896321.89144  23018557.7114                   23018556.9454
 -11969569.86948  -9287320.61745  21733119.2114   21733116.2664   20262893.59545
  15797794.30542                  24866732.3594                   24866728.7704
 -10200276.97848  -7913622.31445  22031981.5784                   22031978.2464
 11  8 17 19 13 30.0000000  0  8G17G24G07G08G26G11G19G28
  -3041836.44347  -2359039.52445  22258740.2974                   22258739.2074
  -7134651.05347  -5548260.38445  22124481.6644                   22124481.8054
  -4865997.66247  -3772270.69546  20679159.9384                   20679157.4304
 -16760099.52548 -13038590.26746  20184173.2814                   20184171.8484
   4876599.41347   3812474.68944  22998081.5004                   22998079.9774
 -12022676.16148  -9328702.16745  21723013.3754   21723010.8874   20293108.33045
  15821338.16842                  24872481.1254                   24872478.2584
 -10299324.96248  -7990802.54546  22013133.3754                   22013130.5394
 11  8 17 19 14  0.0000000  0  7G17G24G07G08G26G11G28
  -3189953.69647  -2474455.51545  22230554.8594                   22230554.2934
  -7234050.31747  -5625714.33545  22105566.7034                   22105566.8204
  -4903781.96748  -3801713.04846  20671969.5394                   20671967.5824
 -16858330.04348 -13115133.53746  20165480.7274                   20165479.3164
   4769571.16847   3729076.05144  22977715.2034                   22977713.8244
 -12075226.61448  -9369650.57645  21713013.8054   21713011.4224
 -10398359.40447  -8067972.21845  21994287.8134                   21994284.8404
 11  8 17 19 14 30.0000000  0  7G17G24G07G08G26G11G28
  -3337755.69447  -2589625.86545  22202429.0474                   22202428.2894
  -7332962.73047  -5702788.90545  22086744.5704                   22086744.0554
  -4941100.46047  -3830792.43946  20664868.3134                   20664865.8284
 -16956103.32648 -13191320.52046  20146874.9924                   20146873.2234
   4663117.10247   3646124.85744  22957457.3054                   22957456.3244
 -12127223.43548  -9410167.59445  21703118.3984   21703116.3914
 -10497382.90747  -8145133.39945  21975443.9774                   21975441.3014
 11  8 17 19 15  0.0000000  0  7G17G24G07G08G26G11G28
  -3485232.03148  -2704542.45545  22174365.0004                   22174365.0124
  -7431377.24947  -5779475.52045  22068016.5394                   22068016.3404
  -4977944.28948  -3859501.95746  20657856.6094                   20657855.0434
 -17053407.73748 -13267142.14346  20128358.7734                   20128356.9534
   4557247.44547   3563628.99444  22937310.9384                   22937310.1764
 -12178658.01948  -9450246.49145  21693331.0704   21693328.7114
 -10596386.24048  -8222278.84246  21956604.1484                   21956601.2304
 11  8 17 19 15 30.0000000  0  7G17G24G07G08G26G11G28
  -3632364.51247  -2819191.09345  22146367.1094                   22146366.3714
  -7529275.06747  -5855759.50545  22049387.2974                   22049387.2934
  -5014296.22247  -3887828.18046  20650939.1804                   20650937.2034
 -17150224.28348 -13342583.62446  20109934.9304                   20109933.5004
   4451979.81547   3481602.27544  22917279.2274                   22917278.7544
 -12229513.57947  -9489874.21345  21683653.4304   21683650.6724
 -10695352.96348  -8299395.76546  21937771.7734                   21937769.3754
 11  8 17 19 16  0.0000000  0  7G17G24G07G08G26G11G28
  -3779154.67247  -2933573.00846  22118433.5474                   22118433.0274
  -7626656.91847  -5931641.44645  22030856.0314                   22030855.4264
  -5050158.40648  -3915772.78646  20644115.1724                   20644113.2344
 -17246553.23748 -13417645.14646  20091604.1884                   20091602.5434
   4347312.49047   3400043.34344  22897362.0634                   22897360.7274
 -12279792.98847  -9529052.98645  21674085.5314   21674083.2814
 -10794285.64448  -8376486.15846  21918945.5474                   21918942.4454
 11  8 17 19 16 30.0000000  0  7G17G24G07G08G26G11G28
  -3925606.89448  -3047691.58746  22090564.5004                   22090563.6954
  -7723526.67047  -6007124.32345  22012422.6024                   22012421.9414
  -5085536.78747  -3943340.40746  20637383.0864                   20637380.8634
 -17342398.00548 -13492329.39146  20073365.5474                   20073363.8874
   4243240.74047   3318948.47444  22877557.2424                   22877556.0744
 -12329502.28548  -9567787.50545  21664626.0704   21664624.0784
 -10893189.67247  -8453554.22946  21900124.7034                   21900121.5204
 11  8 17 19 17  0.0000000  0  7G17G24G07G08G26G11G28
  -4071726.28648  -3161550.82646  22062758.7344                   22062758.2734
  -7819888.86346  -6082211.73945  21994085.5554                   21994084.9144
  -5120437.40448  -3970535.73646  20630741.7114                   20630739.1954
 -17437762.96147 -13566639.76646  20055218.0704                   20055216.6954
   4139759.06247   3238313.41044  22857865.6954                   22857864.4104
 -12378648.18948  -9606083.02045  21655274.3594   21655272.3524
 -10992071.49548  -8530604.99746  21881307.9064                   21881305.4344
 11  8 17 19 17 30.0000000  0  7G17G24G07G08G26G11G28
  -4217510.03147  -3275148.51245  22035017.0944                   22035016.3554
  -7915739.80347  -6156900.74945  21975845.8674                   21975845.3554
  -5154858.58848  -3997357.47746  20624191.4454                   20624189.6914
 -17532644.11748 -13640573.15046  20037162.8834                   20037161.2814
   4036869.70947   3158139.88744  22838286.4304                   22838285.3444
 -12427229.57048  -9643938.64345  21646029.2814   21646026.8754
 -11090929.43248  -8607637.13345  21862495.8284                   21862492.5904
 11  8 17 19 18  0.0000000  0  7G17G24G07G08G26G11G28
  -4362962.03148  -3388487.69746  22007338.6024                   22007338.1294
  -8011082.35547  -6231193.62645  21957702.5084                   21957702.9534
  -5188805.19048  -4023809.42546  20617731.4924                   20617729.7584
 -17627043.99548 -13714131.49546  20019198.9304                   20019197.2584
   3934568.83447   3078424.91244  22818819.4924                   22818818.0234
 -12475251.25847  -9681358.15045  21636891.3364   21636888.9224
 -11189768.38447  -8684654.50945  21843687.4144                   21843684.9614
 11  8 17 19 18 30.0000000  0  7G17G24G07G08G26G11G28
  -4508081.70648  -3501567.92746  21979723.3204                   21979723.2034
  -8105915.84247  -6305089.83645  21939656.0554                   21939656.6054
  -5222277.74348  -4049891.97146  20611362.4774                   20611360.7114
 -17720961.31848 -13787313.83146  20001327.2424                   20001325.2074
   3832855.98347   2999168.12944  22799463.6254                   22799463.5394
 -12522714.91847  -9718342.82745  21627858.9774   21627856.7304
 -11288589.33847  -8761657.84645  21824882.5634                   21824879.4804
 11  8 17 19 19  0.0000000  0  7G17G24G07G08G26G11G28
  -4652871.50848  -3614391.10246  21952170.7664                   21952170.0314
  -8200241.96947  -6378590.69645  21921706.8914                   21921706.8134
  -5255279.96948  -4075608.03546  20605082.0554                   20605080.1024
 -17814397.38848 -13860121.17546  19983546.9694                   19983544.9344
   3731728.79247   2920367.71144  22780219.2584                   22780217.8674
 -12569624.35847  -9754895.63845  21618932.5784   21618930.1954
 -11387395.68747  -8838649.79445  21806079.7504                   21806077.4494
 11  8 17 19 19 30.0000000  0  7G17G24G07G08G26G11G28
  -4797336.14448  -3726960.91646  21924679.6954                   21924679.2274
  -8294064.73547  -6451699.32545  21903852.8674                   21903852.1024
  -5287818.16648  -4100962.52346  20598890.3054                   20598888.4104
 -17907356.35647 -13932556.74946  19965857.8674                   19965855.7074
   3631181.51847   2842019.16744  22761086.7814                   22761085.4144
 -12615986.06047  -9791021.64945  21610110.5634   21610107.4224
 -11486193.27848  -8915634.93345  21787279.9844                   21787276.5164
 11  8 17 19 20  0.0000000  0  7G17G24G07G08G26G11G28
  -4941472.85848  -3839275.16846  21897251.4384                   21897251.3134
  -8387380.53447  -6524412.91445  21886095.2114                   21886094.8524
  -5319890.18948  -4125953.74546  20592787.4454                   20592785.2464
 -17999833.81548 -14004617.12046  19948259.5164                   19948258.0784
   3531217.11547   2764124.83344  22742063.8524                   22742062.9774
 -12661798.58047  -9826719.71745  21601392.7974   21601389.6954
 -11584980.06848  -8992611.65746  21768481.3674                   21768478.9614
 11  8 17 19 20 30.0000000  0  7G17G24G07G08G26G11G28
  -5085278.08548  -3951331.15246  21869886.5864                   21869885.0314
  -8480185.47847  -6596728.42345  21868435.2974                   21868434.3794
  -5351493.23248  -4150579.52846  20586773.3754                   20586771.2344
 -18091825.29648 -14076298.80846  19930754.4224                   19930752.3284
   3431838.66947   2686687.07744  22723152.8754                   22723152.1454
 -12707059.92347  -9861988.31145  21592779.5784   21592777.5594
 -11683753.61348  -9069578.04945  21749684.9774                   21749682.5394
 11  8 17 19 21  0.0000000  0  7G17G24G07G08G26G11G28
  -5228756.13347  -4063132.16746  21842582.7584                   21842582.3834
  -8572483.27047  -6668648.77345  21850871.1954                   21850870.6914
  -5382633.08247  -4174844.39846  20580847.6804                   20580845.6804
 -18183334.45048 -14147604.65346  19913340.4064                   19913338.5744
   3333041.27447   2609702.10344  22704352.6564                   22704351.6844
 -12751776.17147  -9896832.13745  21584270.1644   21584267.5554
 -11782519.48548  -9146538.46945  21730890.8134                   21730888.1414
 11  8 17 19 21 30.0000000  0  7G17G24G07G08G26G11G28
  -3796482.06448  -2947074.39246  22115135.6254                   22115135.3954
  -7088850.04547  -5512570.93845  22133197.2504                   22133197.1174
  -3837889.88148  -2971148.43046  20874802.3754                   20874800.7194
 -16698936.53748 -12990930.96446  20195811.9144                   20195810.2894
   4810247.51847   3760771.85244  22985455.1174                   22985454.1294
 -11220527.29447  -8703651.20145  21875657.9064   21875654.4804
 -10305855.14248  -7995890.92046  22011890.2814                   22011887.7854
 11  8 17 19 22  0.0000000  0  7G17G24G07G08G26G11G28
  -3939304.49948  -3058364.55645  22087957.1174                   22087956.4224
  -7180130.72847  -5583698.71445  22115827.0704                   22115827.0474
  -3868105.58448  -2994693.18046  20869052.8364                   20869050.8204
 -16789476.28648 -13061481.44446  20178582.7344                   20178581.1054
   4712611.25947   3684691.65245  22966876.6174                   22966875.2194
 -11264157.24647  -8737648.58345  21867354.7424   21867352.4494
 -10404607.26148  -8072840.62246  21993098.5314                   21993096.0864
 11  8 17 19 22 30.0000000  0  7G17G24G07G08G26G11G28
  -4081799.37248  -3169399.47246  22060841.7114                   22060840.9804
  -7270902.28347  -5654429.75445  22098553.7974                   22098553.5164
  -3897861.49448  -3017879.64846  20863390.3834                   20863388.2584
 -16879530.03648 -13131653.20746  20161446.2424                   20161444.3134
   4615554.74547   3609063.20044  22948406.4844                   22948406.1254
 -11307246.71947  -8771224.79545  21859155.3284   21859152.7114
 -10503354.25548  -8149786.34046  21974307.8674                   21974304.7544
 11  8 17 19 23  0.0000000  0  7G17G24G07G08G26G11G28
  -4223966.30647  -3280178.85846  22033788.1484                   22033787.5044
  -7361163.82847  -5724763.40945  22081377.3914                   22081377.0434
  -3927158.39348  -3040708.45546  20857815.2504                   20857813.5514
 -16969096.66648 -13201445.39746  20144402.7424                   20144400.6454
   4519077.77147   3533886.33344  22930047.1564                   22930046.2774
 -11349797.14747  -8804380.97445  21851058.1024   21851055.7154
 -10602096.90448  -8226728.67246  21955517.6644                   21955514.8794
 11  8 17 19 23 30.0000000  0  7G17G24G07G08G26G11G28
  -4365805.06148  -3390702.51446  22006797.2194                   22006795.9494
  -7450914.32747  -5794698.86145  22064298.2344                   22064298.6994
  -3955997.16048  -3063180.26946  20852327.6024                   20852325.3954
 -17058174.95748 -13270857.06046  20127451.4304                   20127449.3834
   4423179.72047   3459160.58544  22911798.6414                   22911798.0394
 -11391809.86348  -8837118.17845  21843063.3834   21843060.9964
 -10700835.66348  -8303667.96746  21936728.4844                   21936724.9264
 11  8 17 19 24  0.0000000  0  7G17G24G07G08G26G11G28
  -4507323.76748  -3500976.78646  21979867.1024                   21979865.6844
  -7540161.08347  -5864241.78745  22047315.6644                   22047314.9454
  -3984386.37148  -3085301.76346  20846925.2894                   20846923.4804
 -17146771.78648 -13339893.56646  20110592.0314                   20110590.5864
   4327852.56347   3384879.64544  22893658.7274                   22893657.9064
 -11433294.19447  -8869443.64045  21835169.3204   21835167.1254
 -10799578.96448  -8380610.78446  21917938.4924                   21917935.4884
 11  8 17 19 24 30.0000000  0  7G17G24G07G08G26G11G28
  -4648514.30648  -3610995.32546  21952999.8914                   21952997.9384
  -7628895.94547  -5933385.82845  22030429.6174                   22030429.1374
  -4012319.86147  -3107068.17646  20841610.0474                   20841607.9574
 -17234878.04248 -13408547.80246  20093825.7424                   20093824.5864
   4233103.58147   3311049.26644  22875628.5234                   22875627.2704
 -11474244.12547  -8901352.68145  21827376.4774   21827374.0554
 -10898320.26248  -8457552.03945  21899148.1954                   21899145.1524
 11  8 17 19 25  0.0000000  0  7G17G24G07G08G26G11G28
  -4789381.60648  -3720762.00746  21926192.9384                   21926191.8634
  -7717123.32247  -6002134.42645  22013640.8834                   22013640.3754
  -4039803.39248  -3128483.96746  20836379.8754                   20836378.2344
 -17322497.63448 -13476822.82446  20077152.2974                   20077150.7894
   4138927.18847   3237665.04144  22857707.4064                   22857705.9384
 -11514666.46547  -8932850.62345  21819684.7974   21819682.3524
 -10997065.22248  -8534496.15945  21880357.5394                   21880355.1174
 11  8 17 19 25 30.0000000  0  7G17G24G07G08G26G11G28
  -4929926.92348  -3830277.78546  21899447.6024                   21899447.5514
  -7804843.94047  -6070488.15945  21996948.1174                   21996948.2114
  -4066839.64148  -3149551.21046  20831235.1884                   20831233.8094
 -17409630.98948 -13544718.96246  20060571.6884                   20060570.1214
   4045321.19347   3164725.28544  22839894.5944                   22839893.2074
 -11554563.88647  -8963939.53345  21812091.8054   21812089.8014
 -11095815.64247  -8611444.52346  21861565.9454                   21861563.4454
 11  8 17 19 26  0.0000000  0  7G17G24G07G08G26G11G28
  -5070147.51547  -3939540.53146  21872764.8984                   21872764.0314
  -7892054.54347  -6138444.44845  21980352.2974                   21980352.3444
  -4093427.11748  -3170268.77346  20826175.7894                   20826174.1804
 -17496274.44148 -13612233.34746  20044083.8754                   20044082.0234
   3952288.03247   3092231.89344  22822190.8914                   22822190.5744
 -11593935.54147  -8994618.74145  21804600.2584   21804597.7894
 -11194569.89948  -8688395.88946  21842773.8134                   21842771.6294
 11  8 17 19 26 30.0000000  0  7G17G24G07G08G26G11G28
  -5210041.60648  -4048548.85746  21846144.3914                   21846143.0944
  -7978753.01847  -6206001.69045  21963854.1724                   21963854.1804
  -4119565.37348  -3190636.30246  20821202.2344                   20821200.3554
 -17582425.10448 -13679363.75546  20027689.9614                   20027688.0704
   3859828.72547   3020185.66344  22804596.5164                   22804595.7704
 -11632781.55848  -9024888.39545  21797207.6334   21797205.3014
 -11293326.93148  -8765349.41046  21823980.8444                   21823978.2704
 11  8 17 19 27  0.0000000  0  7G17G24G07G08G26G11G28
  -5349601.43648  -4157296.72146  21819586.3834                   21819585.5084
  -8064930.69447  -6273153.12245  21947454.8054                   21947455.1024
  -4145247.47648  -3210648.35646  20816314.4304                   20816313.0514
 -17668074.24148 -13746103.35246  20011391.7274                   20011390.0664
   3767950.50547   2948592.23044  22787112.6804                   22787112.0274
 -11671095.66647  -9054743.55445  21789916.3914   21789914.3364
 -11392079.49848  -8842299.45446  21805188.7424                   21805186.8244
 11  8 17 19 27 30.0000000  0  7G17G24G07G08G26G11G28
  -5488831.34148  -4265787.51846  21793092.1254                   21793091.0044
  -8150591.89647  -6339902.09245  21931154.3674                   21931154.4734
  -4170479.29148  -3230309.56846  20811513.0944                   20811511.2234
 -17753225.43248 -13812454.95446  19995187.8914                   19995186.0704
   3676648.11647   2877447.49744  22769738.1254                   22769738.3054
 -11708884.04147  -9084189.04845  21782726.1174   21782723.6644
 -11490833.21447  -8919250.39846  21786396.8914                   21786394.6994
 11  8 17 19 28  0.0000000  0  7G17G24G07G08G26G11G28
  -5627729.55747  -4374019.84946  21766660.6884                   21766659.3244
  -8235734.17647  -6406246.70645  21914952.1414                   21914952.7504
  -4195260.26348  -3249619.46446  20806797.9064                   20806796.4224
 -17837875.96848 -13878416.42746  19979079.6174                   19979078.3954
   3585922.53647   2806752.24244  22752473.9144                   22752473.6804
 -11746146.76547  -9113224.95345  21775635.5784   21775633.4024
 -11589586.62948  -8996201.10446  21767604.1954                   21767601.3834
 11  8 17 19 28 30.0000000  0  7G17G24G07G08G26G11G28
  -5766286.06947  -4481985.92546  21740293.9454                   21740292.7074
  -8320347.10547  -6472178.85445  21898851.2274                   21898851.3054
  -4219581.17748  -3268570.86346  20802169.4144                   20802168.1094
 -17922014.60148 -13943979.01646  19963068.3984                   19963066.6844
   3495783.59447   2736514.06544  22735321.3054                   22735320.5554
 -11782875.21148  -9141844.54945  21768646.0554   21768643.8954
 -11688330.26248  -9073144.19446  21748813.7974                   21748811.4144
 11  8 17 19 29  0.0000000  0  7G17G24G07G08G26G11G28
  -5904503.51847  -4589687.78546  21713992.2034                   21713991.7624
  -8404432.80247  -6537700.17145  21882850.3054                   21882849.5744
  -4243446.14948  -3287166.99446  20797627.9694                   20797626.8674
 -18005643.10948 -14009144.10146  19947154.3984                   19947152.5864
   3406227.80047   2666730.32344  22718279.1174                   22718279.4104
 -11819074.32847  -9170051.65645  21761757.9064   21761755.0744
 -11787067.78348  -9150082.51346  21730025.1804                   21730022.6954
 11  8 17 19 29 30.0000000  0  7G17G24G07G08G26G11G28
  -6042373.90147  -4697119.19746  21687755.9384                   21687754.5234
  -8487983.11047  -6602804.28445  21866950.6804                   21866950.6174
  -4266848.76648  -3305402.83646  20793174.8444                   20793173.1024
 -18088752.76448 -14073904.89546  19931338.7274                   19931337.2814
   3317261.92547   2597406.24044  22701350.1954                   22701349.0744
 -11854737.78947  -9197841.37545  21754971.2584   21754968.7464
 -11885791.56848  -9227010.13046  21711238.5474                   21711235.9694
 11  8 17 19 30  0.0000000  0  7G17G24G07G08G26G11G28
  -6179899.62547  -4804282.05946  21661585.6484                   21661584.9184
  -8570999.95347  -6667492.72245  21851153.7114                   21851153.1684
  -4289792.34048  -3323281.00346  20788808.8914                   20788806.8094
 -18171345.20248 -14138262.65646  19915622.2584                   19915620.7504
   3228883.18847   2528539.68244  22684531.8054                   22684530.6454
 -11889869.18048  -9225216.50845  21748285.8364   21748283.4064
 -11984504.78248  -9303929.52346  21692453.7894                   21692451.4614
 11  8 17 19 30 30.0000000  0  7G17G24G07G08G26G11G28
  -6317079.27047  -4911175.23946  21635481.3754                   21635480.6024
  -8653481.49747  -6731764.06945  21835456.8834                   21835457.1374
  -4312276.67948  -3340801.30846  20784530.0084                   20784528.3834
 -18253417.71748 -14202215.28046  19900004.5474                   19900002.9304
   3141092.28647   2460131.17444  22667825.5234                   22667825.0704
 -11924469.57847  -9252177.86645  21741701.4774   21741699.3554
 -12083206.43648  -9380839.90646  21673671.7974                   21673668.9804
 11  8 17 19 31  0.0000000  0  7G17G24G07G08G26G11G28
  -6453915.01247  -5017800.46346  21609442.2034                   21609440.7154
  -8735429.65047  -6795619.72945  21819863.2664                   21819863.2194
  -4334305.36148  -3357966.57146  20780338.3524                   20780336.2234
 -18334971.30348 -14265763.54846  19884485.0784                   19884483.5744
   3053886.14247   2392178.32944  22651230.8444                   22651230.0084
 -11958543.26047  -9278728.79445  21735217.3754   21735215.0314
 -12181899.33948  -9457743.47446  21654891.2734                   21654888.7854
 11  8 17 19 31 30.0000000  0  7G17G24G07G08G26G11G28
  -6590405.63947  -5124156.76046  21583469.1094                   21583467.7894
  -8816843.11947  -6859058.79045  21804370.8204                   21804370.6954
  -4355878.82248  -3374777.10946  20776233.3754                   20776232.0704
 -18416004.70548 -14328906.47146  19869065.1804                   19869063.3874
   2967264.81247   2324681.14844  22634747.2734                   22634746.7854
 -11992090.67848  -9304869.66345  21728834.1254   21728831.8014
 -12280583.26248  -9534640.02646  21636112.1564                   21636109.3014
 11  8 17 19 32  0.0000000  0  7G17G24G07G08G26G11G28
  -5151126.93847  -4002640.84546  21857354.8204                   21857354.1724
  -7322298.35847  -5694478.42645  22088773.2584                   22088773.4064
  -2801577.30647  -2163633.11246  21072007.0474                   21072005.4774
 -16921093.66548 -13164040.74746  20153537.4924                   20153536.0634
   4456650.71247   3485241.58144  22918168.1334                   22918166.8954
 -10449691.75548  -8103000.38645  22022342.8594   22022340.5084
 -10803834.95648  -8383927.05146  21917128.3364                   21917125.5984
 11  8 17 19 32 30.0000000  0  7G17G24G07G08G26G11G28
  -5286929.54647  -4108461.02646  21831511.9534                   21831511.5004
  -7402642.38747  -5757084.16245  22073484.1724                   22073483.8714
  -2822245.42848  -2179738.19946  21068073.9694                   21068072.2584
 -17001084.82748 -13226371.53846  20138315.5784                   20138313.8014
   4371195.48847   3418653.06244  22901906.1884                   22901905.3054
 -10482193.01448  -8128326.04145  22016157.8914   22016155.2854
 -10902503.75548  -8460811.83746  21898352.0234                   21898349.4224
 11  8 17 19 33  0.0000000  0  7G17G24G07G08G26G11G28
  -5422390.93847  -4214015.33346  21805735.2274                   21805734.4064
  -7482454.03947  -5819275.07145  22058296.8204                   22058297.0084
  -2842465.45248  -2195494.11546  21064226.4304                   21064224.3554
 -17080556.28148 -13288297.36446  20123192.8914                   20123191.0704
   4286319.02847   3352515.56244  22885755.5394                   22885753.7424
 -10514176.92947  -8153248.58645  22010071.2814   22010069.0044
 -11001168.50748  -8537693.45946  21879576.7424                   21879574.0514
 11  8 17 19 33 30.0000000  0  7G17G24G07G08G26G11G28
  -5557510.25147  -4319303.08046  21780022.3524                   21780021.8954
  -7561732.11647  -5881050.17345  22043210.2274                   22043210.3914
  -2862237.98047  -2210901.32346  21060463.9844                   21060462.0594
 -17159506.63848 -13349817.13946  20108169.0164                   20108166.8364
   4202021.55147   3286829.17944  22869713.5234                   22869712.7464
 -10545644.82548  -8177769.03745  22004083.4454   22004081.1214
 -11099828.94848  -8614571.72646  21860802.2894                   21860799.6334
 11  8 17 19 34  0.0000000  0  7G17G24G07G08G26G11G28
  -5692289.13247  -4424325.55446  21754375.0784                   21754374.0744
  -7640477.97647  -5942410.56745  22028225.6644                   22028225.1524
  -2881566.23347  -2225962.35946  21056785.8594                   21056784.5124
 -17237936.45348 -13410931.30546  20093244.2114                   20093242.5044
   4118300.33647   3221591.86444  22853782.2504                   22853781.7734
 -10576600.04547  -8201889.99345  21998192.4694   21998190.0274
 -11198486.90048  -8691448.04846  21842028.3364                   21842026.0394
 11  8 17 19 34 30.0000000  0  7G17G24G07G08G26G11G28
  -5826727.98648  -4529083.07446  21728792.3754                   21728791.4414
  -7718691.91546  -6003356.47245  22013342.5634                   22013341.6644
  -2900451.91447  -2240678.53746  21053191.8444                   21053190.2664
 -17315845.58247 -13471639.72746  20078418.6414                   20078417.1604
   4035153.96547   3156802.42944  22837960.0394                   22837959.3164
 -10607045.09747  -8225613.42845  21992399.3594   21992397.0004
 -11297143.68248  -8768323.45746  21823254.4844                   21823252.0164
 11  8 17 19 35  0.0000000  0  7G17G24G07G08G26G11G28
  -5960836.98248  -4633583.56246  21703271.8594                   21703270.9304
  -7796383.85047  -6063895.64745  21998557.8134                   21998557.5204
  -2918906.18447  -2255058.53646  21049680.6334                   21049678.6454
 -17393242.98948 -13531949.41746  20063690.3984                   20063688.6484
   3952571.61847   3092452.53744  22822245.0474                   22822243.9654
 -10636991.89448  -8248948.60545  21986700.4924   21986698.1844
 -11395809.40348  -8845205.83646  21804479.3984                   21804476.7504
 11  8 17 19 35 30.0000000  0  7G17G24G07G08G26G11G28
  -6094606.54847  -4737819.56846  21677816.1414                   21677815.5234
  -7873543.88947  -6124020.34845  21983874.1954                   21983873.5984
  -2936920.80547  -2269095.95346  21046252.1174                   21046250.3524
 -17470118.18347 -13591852.18546  20049061.8674                   20049059.9104
   3870561.88347   3028548.82344  22806639.3364                   22806638.5634
 -10666432.54047  -8271889.37644  21981097.5004   21981096.1054
 -11494474.89648  -8922088.02246  21785703.7974                   21785701.3094
 11  8 17 19 36  0.0000000  0  7G17G24G07G08G26G11G28
  -6228038.72448  -4841792.65846  21652424.8204                   21652424.2774
  -7950173.95647  -6183732.07045  21969292.8054                   21969292.4844
  -2954499.35547  -2282793.57846  21042907.5004                   21042905.3674
 -17546472.59547 -13651349.14646  20034531.8524                   20034530.1174
   3789121.84446   2965089.03144  22791141.2814                   22791141.5824
 -10695370.74747  -8294438.64745  21975591.7424   21975589.4654
 -11593142.62948  -8998971.97546  21766927.6564                   21766925.5004
 11  8 17 19 36 30.0000000  0  7G17G24G07G08G26G11G28
  -6361140.30248  -4945508.12846  21627096.6954                   21627095.0744
  -8026280.53547  -6243035.86845  21954809.9454                   21954809.4184
  -2971649.92447  -2296157.71246  21039643.3204                   21039642.0634
 -17622312.12648 -13710444.90146  20020100.0004                   20020098.5204
   3708243.50147   2902066.91144  22775750.7734                   22775750.2384
 -10723815.96847  -8316603.78245  21970178.0394   21970176.1294
 -11691820.09548  -9075863.49846  21748150.1724                   21748147.7074
 11  8 17 19 37  0.0000000  0  7G17G24G07G08G26G11G28
  -6493912.61547  -5048967.04246  21601830.8444                   21601829.3674
  -8101864.77447  -6301932.66445  21940426.8364                   21940426.4064
  -2988375.39347  -2309190.60146  21036460.6884                   21036459.7774
 -17697637.59348 -13769140.09146  20005766.3284                   20005764.2584
   3627924.51347   2839480.66644  22760467.3444                   22760466.1174
 -10751771.40647  -8338387.22145  21964858.5004   21964856.4454
 -11790508.75048  -9152763.74746  21729370.4534                   21729367.7304
 11  8 17 19 37 30.0000000  0  7G17G24G07G08G26G11G28
  -6626357.10547  -5152170.50446  21576627.4304                   21576626.3014
  -8176927.32947  -6360422.95145  21926142.9304                   21926142.6214
  -3004677.68547  -2321893.74246  21033358.6954                   21033357.1764
 -17772448.92447 -13827434.64846  19991530.2504                   19991528.1954
   3548163.31247   2777329.02844  22745288.8594                   22745287.8364
 -10779239.61447  -8359791.02845  21959631.7734   21959629.4384
 -11889209.72448  -9229673.59346  21710588.2274                   21710584.6884
 11  8 17 19 38  0.0000000  0  7G17G24G07G08G26G11G28
  -6758470.17947  -5255115.71146  21551487.3914                   21551485.9534
  -8251464.65947  -6418503.99245  21911958.3834                   21911958.4844
  -3020555.09447  -2334265.79746  21030337.5784                   21030335.8134
 -17846742.09947 -13885325.45546  19977392.4924                   19977391.2504
   3468961.95147   2715613.67844  22730218.0164                   22730217.1844
 -10806219.22147  -8380814.12245  21954497.6724   21954495.0354
 -11987920.08948  -9306590.74946  21691804.1804                   21691801.5084
 11  8 17 19 38 30.0000000  0  7G17G24G07G08G26G11G28
  -6890251.73947  -5357802.58846  21526410.4144                   21526408.7734
  -8325476.70347  -6476175.73045  21897874.6884                   21897873.9224
  -3036008.96747  -2346307.82246  21027396.6334                   21027394.8714
 -17920516.21247 -13942811.79946  19963353.8524                   19963352.5084
   3390319.22447   2654333.61044  22715252.4614                   22715251.5784
 -10832712.31747  -8401458.09545  21949456.1724   21949453.8954
 -12086640.00848  -9383515.35946  21673018.1414                   21673015.4774
 11  8 17 19 39  0.0000000  0  7G17G24G07G08G26G11G28
  -7021701.50347  -5460230.93746  21501395.9924                   21501394.3794
  -8398962.93547  -6533437.70845  21883890.7664                   21883890.6454
  -3051040.15747  -2358020.49246  21024536.5164                   21024534.6094
 -17993770.22347 -13999892.85746  19949414.2504                   19949412.6054
   3312234.73447   2593488.53044  22700393.2274                   22700392.8204
 -10858720.27147  -8421724.04845  21944506.9774   21944504.6414
 -12185369.44248  -9460447.37646  21654231.0394                   21654227.9964
 11  8 17 19 39 30.0000000  0  7G17G24G07G08G26G11G28
  -7152825.40647  -5562405.33946  21476444.0234                   21476442.8404
  -8471929.01147  -6590294.39145  21870005.6954                   21870004.9694
  -3065655.86247  -2369409.40746  21021755.2344                   21021753.4844
 -18066509.18747 -14056572.58846  19935572.2664                   19935570.4844
   3234701.47147   2533072.98344  22685639.0784                   22685639.0944
 -10884250.89248  -8441618.01545  21939648.7664   21939646.1844
 -12284114.23647  -9537391.37246  21635440.6024                   21635437.3714
 11  8 17 19 40  0.0000000  0  7G17G24G07G08G26G11G28
  -7283614.55247  -5664318.92046  21451555.5474                   21451554.3484
  -8544365.83547  -6646738.66345  21856221.7424                   21856221.2034
  -3079848.74647  -2380468.83746  21019054.0704                   21019052.4264
 -18138723.47247 -14112843.48446  19921830.2974                   19921828.8244
   3157727.35746   2473093.09944  22670991.1724                   22670990.1564
 -10909297.27947  -8461134.69545  21934882.9924   21934880.2814
 -12382865.69647  -9614340.55846  21616648.5394                   21616646.0784
 11  8 17 19 40 30.0000000  0  7G17G24G07G08G26G11G28
  -7414069.52547  -5765972.08746  21426730.7194                   21426729.3914
  -8616273.88247  -6702770.92545  21842538.3984                   21842537.6294
  -3093620.69747  -2391200.28146  21016433.5704                   21016432.3444
 -18210412.95747 -14168705.43346  19908188.5634                   19908186.8094
   3081310.62147   2413547.55444  22656449.5864                   22656449.1254
 -10933862.10847  -8480276.12545  21930207.9774   21930206.0664
 -12481624.82247  -9691295.72846  21597855.4384                   21597852.5274
 11  8 17 19 41  0.0000000  0  7G17G24G07G08G26G11G28
  -7544191.80047  -5867366.02646  21401969.5084                   21401968.8324
  -8687654.49647  -6758392.14645  21828954.5234                   21828954.6484
  -3106974.79547  -2401606.12546  21013892.5394                   21013890.8324
 -18281578.22747 -14224158.91946  19894646.1254                   19894644.2384
   3005448.96647   2354434.57144  22642014.1414                   22642013.4144
 -10957948.82347  -8499044.99445  21925624.2814   21925622.2544
 -12580392.98248  -9768257.92046  21579060.4924                   21579057.7154
 11  8 17 19 41 30.0000000  0  7G17G24G07G08G26G11G28
  -7673969.58047  -5968491.52046  21377273.4304                   21377271.7154
  -8758495.45247  -6813592.88445  21815474.2584                   21815473.1294
  -3119900.19847  -2411677.90346  21011432.7734                   21011431.4304
 -18352206.41747 -14279193.88946  19881206.0784                   19881204.4064
   2930153.07947   2295762.39244  22627686.2584                   22627685.2464
 -10981547.34647  -8517433.46945  21921133.8594   21921131.6954
 -12679158.19047  -9845217.82746  21560266.0234                   21560262.7424
 11  8 17 19 42  0.0000000  0  7G17G24G07G08G26G11G28
  -6227987.95447  -4841752.54146  21652434.0864                   21652433.5824
  -7253383.88347  -5640778.68345  22101887.1174                   22101886.8204
  -1556987.69147  -1193824.05946  21308845.3524                   21308843.4884
 -16846884.04048 -13106215.44046  20167659.2504                   20167657.5864
   4430834.81547   3465124.75744  22913256.4064                   22913256.2074
  -9429248.43448  -7307849.91745  22216526.8984   22216524.3554
 -11202506.96647  -8694580.49346  21841263.4924                   21841260.5744
 11  8 17 19 42 30.0000000  0  7G17G24G07G08G26G11G28
  -6357090.83748  -4942352.14746  21627866.7584                   21627865.3834
  -7323159.94847  -5695149.62545  22088609.3914                   22088608.6174
  -1569074.15748  -1203242.14146  21306545.4694                   21306543.9384
 -16916450.67948 -13160423.22946  20154421.0004                   20154419.1804
   4356652.62546   3407320.40944  22899139.5474                   22899139.3014
  -9451891.10047  -7325493.53345  22212217.8754   22212215.4804
 -11301281.35947  -8771547.55946  21822466.8284                   21822464.3634
 11  8 17 19 43  0.0000000  0  7G17G24G07G08G26G11G28
  -6485849.72548  -5042683.70246  21603364.8134                   21603363.3324
  -7392396.84047  -5749100.44545  22075434.0554                   22075433.7504
  -1580736.87947  -1212330.03346  21304326.2814                   21304324.4804
 -16985478.92048 -13214211.48746  20141285.6564                   20141284.3094
   4283032.34046   3349953.93144  22885129.8364                   22885129.3634
  -9474051.74347  -7342761.57445  22208000.8984   22207998.9184
 -11400053.55048  -8848512.88146  21803671.5474                   21803668.6174
 11  8 17 19 43 30.0000000  0  7G17G24G07G08G26G11G28
  -6614263.95247  -5142746.70046  21578928.9614                   21578927.7504
  -7461093.70247  -5802630.45445  22062361.1174                   22062360.7934
  -1591976.50948  -1221088.23546  21302187.3914                   21302185.9344
 -17053967.49048 -13267579.22446  20128252.6334                   20128251.3324
   4209973.28347   3293024.75444  22871227.8834                   22871227.1484
  -9495732.10148  -7359655.36345  22203875.0634   22203873.2234
 -11498823.10647  -8925476.16846  21784876.5004                   21784873.4184
 11  8 17 19 44  0.0000000  0  7G17G24G07G08G26G11G28
  -6742321.52048  -5242531.77546  21554560.0784                   21554558.2544
  -7529238.48747  -5855730.28945  22049393.6094                   22049392.7974
  -1602782.14348  -1229508.27346  21300131.7424                   21300129.8094
 -17121903.61548 -13320516.49246  20115324.9064                   20115323.3674
   4137486.55346   3236541.54944  22857433.5314                   22857432.5904
  -9516921.78347  -7376166.82445  22199843.2344   22199840.7034
 -11597577.82747  -9002427.90246  21766083.7814                   21766080.9734
 11  8 17 19 44 30.0000000  0  7G17G24G07G08G26G11G28
  -6870021.53447  -5342038.23046  21530259.7194                   21530257.3794
  -7596830.31847  -5908399.23545  22036531.5944                   22036531.4224
  -1613154.63047  -1237590.78646  21298157.3444                   21298156.1214
 -17189285.49047 -13373021.86146  20102502.5784                   20102500.5274
   4065571.75546   3180504.01144  22843749.3364                   22843748.2194
  -9537622.32847  -7392297.11945  22195904.2194   22195901.9024
 -11696317.08347  -9079367.57546  21747294.0004                   21747291.2504
 11  8 17 19 45  0.0000000  0  7G17G24G07G08G26G11G28
  -6997355.27347  -5441259.29846  21506028.6484                   21506027.1484
  -7663860.45047  -5960630.48745  22023775.4924                   22023775.4024
  -1623086.66247  -1245330.08446  21296267.4694                   21296265.5784
 -17256103.87148 -13425088.15946  20089787.3674                   20089785.8524
   3994236.58947   3124918.14044  22830174.3524                   22830173.3554
  -9557826.63347  -7408040.76345  22192059.1024   22192056.3954
 -11795031.62547  -9156287.98246  21728509.4924                   21728506.7074
 11  8 17 19 45 30.0000000  0  7G17G24G07G08G26G11G28
  -7124317.27047  -5540190.67246  21481868.4064                   21481867.1254
  -7730322.94347  -6012419.43245  22011129.1644                   22011128.1484
  -1632573.43547  -1252722.44246  21294462.2274                   21294461.2074
 -17322352.26148 -13476710.29946  20077180.9304                   20077179.0824
   3923485.46646   3069787.33844  22816710.7814                   22816710.2854
  -9577531.01247  -7423394.82245  22188309.2584   22188307.0164
 -11893715.58547  -9233184.55946  21709730.6804                   21709727.7304
 11  8 17 19 46  0.0000000  0  7G17G24G07G08G26G11G28
  -7250891.81247  -5638820.15646  21457781.7274                   21457781.1054
  -7796202.59647  -6063754.23245  21998592.0164                   21998591.6024
  -1641601.21347  -1259757.13046  21292744.3444                   21292743.2814
 -17388014.70647 -13527875.85646  20064685.6484                   20064684.0434
   3853332.56946   3015122.70244  22803361.6564                   22803360.6134
  -9596722.30247  -7438349.08645  22184657.7424   22184654.2814
 -11992353.78248  -9310045.49246  21690960.4534                   21690957.3444
 11  8 17 19 46 30.0000000  0  7G17G24G07G08G26G11G28
  -7377078.92647  -5737147.72346  21433769.4924                   21433768.3094
  -7861499.47447  -6114634.88545  21986166.4844                   21986165.9024
  -1650171.69247  -1266435.48546  21291113.7424                   21291112.3164
 -17453090.40547 -13578584.21546  20052302.3984                   20052300.2974
   3783776.46246   2960923.09944  22790125.1334                   22790124.3284
  -9615402.44147  -7452905.03245  22181102.9224   22181100.2894
 -12090946.10848  -9386870.66746  21672198.5314                   21672195.8324
 11  8 17 19 47  0.0000000  0  7G17G24G07G08G26G11G28
  -7502872.24747  -5835168.45946  21409831.5944                   21409830.4734
  -7926207.33047  -6165056.57745  21973853.5004                   21973852.8554
  -1658279.90947  -1272753.63846  21289570.6024                   21289569.0474
 -17517573.04447 -13628830.44846  20040031.5634                   20040029.8404
   3714822.37747   2907192.62344  22777003.8594                   22777003.0124
  -9633567.15947  -7467059.38545  22177646.0784   22177643.8984
 -12189485.75447  -9463654.80546  21653447.3134                   21653444.6134
 11  8 17 19 47 30.0000000  0  7G17G24G07G08G26G11G28
  -7628261.04247  -5932873.97546  21385970.6484                   21385969.6604
  -7990314.90647  -6215010.50045  21961653.7344                   21961653.7274
  -1665915.89947  -1278703.82046  21288117.5004                   21288116.5474
 -17581450.38047 -13678605.02046  20027876.1094                   20027874.2114
   3646480.32646   2853939.01044  22763998.9454                   22763997.5904
  -9651207.08247  -7480804.75945  22174289.1644   22174286.5004
 -12287962.04247  -9540389.58846  21634707.5394                   21634704.6644
 11  8 17 19 48  0.0000000  0  7G17G24G07G08G26G11G28
  -7753241.75347  -6030261.48746  21362187.3674                   21362186.5984
  -8053818.66547  -6264493.93645  21949569.5004                   21949569.1604
  -1673077.48547  -1284284.34346  21286754.9614                   21286753.4534
 -17644718.29148 -13727904.70946  20015836.1644                   20015834.7974
   3578752.49646   2801164.05744  22751110.4694                   22751110.2734
  -9668320.88647  -7494140.21045  22171033.1804   22171030.4064
 -12386370.76247  -9617071.68246  21615981.0474                   21615978.8404
 11  8 17 19 48 30.0000000  0  7G17G24G07G08G26G11G28
  -7877808.20447  -6127326.19846  21338483.5234                   21338482.6094
  -8116712.86047  -6313502.37145  21937600.5234                   21937600.8404
  -1679760.69847  -1289492.08346  21285482.9614                   21285481.9534
 -17707370.07648 -13776724.29846  20003914.4144                   20003913.1524
   3511643.70646   2748871.46644  22738339.1804                   22738339.4304
  -9684904.68547  -7507062.66945  22167876.8674   22167874.7814
 -12484705.80947  -9693696.39746  21597268.8444                   21597266.0204
 11  8 17 19 49  0.0000000  0  7G17G24G07G08G26G11G28
  -8001964.61847  -6224071.41346  21314857.1804                   21314856.3714
  -8179001.74747  -6362039.15945  21925747.9924                   21925747.3164
  -1685970.87547  -1294331.24846  21284301.2114                   21284300.0354
 -17769409.72948 -13825066.90946  19992108.6724                   19992106.7624
   3445148.02846   2697056.61244  22725686.7814                   22725686.0434
  -9700964.44347  -7519576.77544  22164821.2584   22164817.9734
 -12582971.13548  -9770266.77046  21578569.6484                   21578566.8134
 11  8 17 19 49 30.0000000  0  7G17G24G07G08G26G11G28
  -8125708.26847  -6320495.00846  21291309.2814                   21291308.4144
  -8240682.51147  -6410102.07545  21914010.3054                   21914009.9104
  -1691706.54847  -1298800.67246  21283209.8134                   21283208.5314
 -17830833.80248 -13872929.84246  19980420.1094                   19980418.5904
   3379267.12646   2645720.80244  22713149.4454                   22713149.1604
  -9716499.71847  -7531682.19645  22161864.3444   22161862.1294
 -12681163.40248  -9846780.22146  21559884.2504                   21559882.0704
 11  8 17 19 50  0.0000000  0  7G17G24G07G08G26G11G28
  -8249034.09147  -6416593.00646  21267841.5944                   21267839.2734
  -8301750.27047  -6457687.32245  21902389.3754                   21902389.0554
  -1696964.12247  -1302897.53946  21282209.4144                   21282208.1564
 -17891636.41348 -13920308.51546  19968849.6334                   19968848.0084
   3314004.88947   2594867.08444  22700730.2504                   22700730.4924
  -9731507.22447  -7543376.37945  22159008.6024   22159005.9694
 -12779277.78348  -9923232.98546  21541213.7504                   21541210.8324
 11  8 17 19 50 30.0000000  0  7G17G24G07G08G26G11G28
  -8371942.94448  -6512366.08346  21244452.6644                   21244451.2274
  -8362205.82247  -6504795.52745  21890885.0084                   21890884.3054
  -1701745.70647  -1306623.51446  21281299.6334                   21281298.2854
 -17951817.50148 -13967202.90146  19957397.7424                   19957396.1294
   3249359.39247   2544493.91844  22688429.1094                   22688428.4264
  -9745989.41547  -7554661.21344  22156252.7034   22156250.5554
 -12877314.41148  -9999625.16446  21522558.1174                   21522555.1024
 11  8 17 19 51  0.0000000  0  7G17G24G07G08G26G11G28
  -8494441.23947  -6607819.27046  21221141.7974                   21221140.5704
  -8422055.63347  -6551431.73445  21879496.3444                   21879496.2664
  -1706059.73947  -1309985.15546  21280479.1094                   21280477.1374
 -18011383.52648 -14013618.00446  19946062.8284                   19946061.2344
   3185322.47247   2494594.98744  22676243.0084                   22676242.9104
  -9759955.30647  -7565543.75544  22153595.5474   22153593.2154
 -12975279.36348 -10075961.48446  21503915.5234                   21503913.0664
 11  8 17 19 51 30.0000000  0  7G17G24G07G08G26G11G28
  -8616529.58547  -6702953.01246  21197909.4064                   21197907.9454
  -8481300.38647  -6597596.45245  21868222.2424                   21868222.2464
  -1709907.75147  -1312983.67446  21279746.4614                   21279744.9774
 -18070334.19348 -14059553.61046  19934844.8284                   19934843.5944
   3121892.38747   2445168.89244  22664172.4304                   22664172.8054
  -9773407.44347  -7576025.91844  22151035.1414   22151032.6914
 -13073172.60948 -10152241.93446  21485287.1334                   21485284.5314
 11  8 17 19 52  0.0000000  0  7G17G24G07G08G26G11G28
  -8738206.82347  -6797766.41546  21174754.3204                   21174753.4494
  -8539939.06347  -6643288.92745  21857063.9144                   21857063.1334
  -1713289.94247  -1315619.21246  21279103.0314                   21279101.6094
 -18128667.87847 -14105008.45346  19923743.9304                   19923742.4884
   3059069.10846   2396215.65944  22652217.8204                   22652218.0044
  -9786346.31247  -7586108.18844  22148573.3284   22148570.1764
 -13170992.80448 -10228465.46546  21466672.6414                   21466669.8164
 11  8 17 19 52 30.0000000  0  7G17G24G07G08G26G11G28
  -7284051.55247  -5664658.37546  21451471.4144                   21451469.9184
  -7022552.63047  -5460909.85645  22145812.3364                   22145812.5944
   -140790.61647    -90295.13246  21578339.9924                   21578338.9574
 -16610965.24347 -12922383.05446  20212553.6644                   20212552.3204
   4572270.37646   3575333.49144  22940171.2194                   22940170.3324
  -8223356.34047  -6368193.93944  22446000.3284   22445998.2584
 -11693319.09848  -9077031.41146  21747865.0554                   21747862.0274
 11  8 17 19 53  0.0000000  0  7G17G24G07G08G26G11G28
  -7404917.41647  -5758839.52146  21428471.3914                   21428469.7774
  -7079990.46647  -5505666.59745  22134882.7734                   22134882.0824
   -143256.60248    -92216.73646  21577870.4454                   21577869.4884
 -16668074.61348 -12966883.88146  20201686.1334                   20201684.1214
   4510645.47947   3527314.02344  22928443.7734                   22928443.2464
  -8235286.12147  -6377489.90044  22443730.0234   22443727.7114
 -11791002.69648  -9153148.49346  21729276.3284                   21729273.1134
 11  8 17 19 53 30.0000000  0  7G17G24G07G08G26G11G28
  -7525381.89047  -5852707.90746  21405548.2424                   21405546.0274
  -7136832.43547  -5549959.05145  22124065.9144                   22124065.3204
   -145271.01347    -93786.48046  21577487.5084                   21577486.6454
 -16724575.55948 -13010910.61446  20190934.4064                   20190932.6294
   4449613.52147   3479756.62944  22916830.7734                   22916829.7424
  -8246718.58047  -6386398.35944  22441554.5084   22441552.8914
 -11888621.69548  -9229215.23146  21710699.9064                   21710696.9104
 11  8 17 19 54  0.0000000  0  7G17G24G07G08G26G11G28
  -7645451.00747  -5946268.23046  21382699.2734                   21382697.8834
  -7193085.03347  -5593792.20145  22113361.9064                   22113361.1054
   -146841.34447    -95010.18246  21577188.4224                   21577187.0824
 -16780473.56248 -13054467.52046  20180297.1024                   20180295.4494
   4389166.68047   3432655.15544  22905327.0634                   22905326.9304
  -8257662.01747  -6394925.69544  22439472.2194   22439470.4574
 -11986181.87348  -9305236.15346  21692134.7114                   21692131.8834
 11  8 17 19 54 30.0000000  0  7G17G24G07G08G26G11G28
  -7765124.12147  -6039519.97146  21359926.1954                   21359924.7734
  -7248747.45647  -5637165.50045  22102768.9844                   22102769.0004
   -147968.35347    -95888.43346  21576973.8524                   21576973.3594
 -16835767.37048 -13097553.62346  20169775.0394                   20169773.3524
   4329304.45247   3386009.22744  22893936.7664                   22893935.9224
  -8268117.32547  -6403072.71244  22437482.8674   22437480.2234
 -12083681.42148  -9381209.82346  21673581.2194                   21673578.8404
 11  8 17 19 55  0.0000000  0  7G17G24G07G08G26G11G28
  -7884408.32047  -6132468.65846  21337227.2814                   21337225.7774
  -7303827.39947  -5680084.94145  22092287.9924                   22092287.0434
   -148660.64047    -96427.95946  21576842.3444                   21576841.2234
 -16890463.50348 -13140174.02746  20159366.8204                   20159365.2384
   4270018.31747   3339812.19544  22882654.7974                   22882653.6604
  -8278093.98247  -6410846.76344  22435584.4224   22435582.0124
 -12181127.19548  -9457141.60146  21655038.1724                   21655035.1094
 11  8 17 19 55 30.0000000  0  7G17G24G07G08G26G11G28
  -8003303.54347  -6225114.23246  21314602.0704                   21314600.1884
  -7358324.92847  -5722550.52945  22081917.5944                   22081916.6024
   -148919.69947    -96629.87546  21576792.1724                   21576791.7544
 -16944561.60848 -13182328.40846  20149072.4064                   20149070.7624
   4211306.77447   3294062.90244  22871482.3754                   22871481.5204
  -8287593.97347  -6418249.36944  22433776.4064   22433774.1994
 -12278518.64948  -9533031.02446  21636504.6644                   21636502.1024
 11  8 17 19 56  0.0000000  0  7G17G24G07G08G26G11G28
  -8121814.69648  -6317460.55846  21292050.3284                   21292048.4694
  -7412245.06947  -5764566.20745  22071656.6254                   22071655.6024
   -148751.78247    -96499.10646  21576824.8524                   21576824.0124
 -16998065.90248 -13224020.08846  20138890.9304                   20138889.2814
   4153163.62547   3248756.49844  22860417.9384                   22860416.6454
  -8296623.95347  -6425285.69944  22432058.2734   22432055.6524
 -12375860.08848  -9608881.48946  21617981.3054                   21617978.3444
 11  8 17 19 56 30.0000000  0  7G17G24G07G08G26G11G28
  -8239948.54747  -6409512.86346  21269569.9224                   21269568.0434
  -7465594.42147  -5806137.14645  22061504.6254                   22061504.4414
   -148164.83147    -96041.81246  21576936.7894                   21576935.6724
 -17050982.63748 -13265253.94246  20128821.2424                   20128819.6214
   4095580.74546   3203886.68744  22849460.2814                   22849459.9734
  -8305192.64147  -6431962.64144  22430427.6174   22430425.3284
 -12473157.43748  -9684697.59646  21599466.3754                   21599463.5434
 11  8 17 19 57  0.0000000  0  7G17G24G07G08G26G11G28
  -8357705.97247  -6501271.86546  21247161.9144                   21247160.0664
  -7518374.29847  -5847264.30545  22051461.0084                   22051460.6174
   -147161.42447    -95260.00346  21577127.1954                   21577127.0314
 -17103312.61248 -13306030.57046  20118863.2194                   20118861.7074
   4038555.73347   3159451.57444  22838608.4384                   22838608.6374
  -8313303.13947  -6438282.53944  22428883.8284   22428881.6374
 -12570411.02848  -9760479.60246  21580959.6724                   21580957.2584
 11  8 17 19 57 30.0000000  0  7G17G24G07G08G26G11G28
  -8475084.75047  -6592735.79746  21224825.0164                   21224823.0044
  -7570582.95147  -5887946.32945  22041525.8364                   22041525.1844
   -145740.90347    -94153.17346  21577398.3444                   21577397.0904
 -17155053.07448 -13346347.83846  20109017.2194                   20109015.6804
   3982089.27347   3115451.70944  22827863.8284                   22827863.1094
  -8320955.21147  -6444245.22144  22427427.7584   22427426.2344
 -12667618.22548  -9836225.46746  21562461.5234                   21562458.7544
 11  8 17 19 58  0.0000000  0  7G17G24G07G08G26G11G28
  -8592093.33047  -6683911.27646  21202558.8444                   21202557.5204
  -7622228.98847  -5928189.99545  22031697.9534                   22031697.8364
   -143912.95847    -92728.87346  21577745.9384                   21577745.2544
 -17206212.10648 -13386212.04346  20099281.7974                   20099280.5274
   3926171.54147   3071879.43044  22817223.7114                   22817223.0124
  -8328159.28647  -6449858.79144  22426056.7584   22426054.7194
 -12764786.42648  -9911940.94846  21543970.8134                   21543968.7774
 11  8 17 19 58 30.0000000  0  7G17G24G07G08G26G11G28
  -8708729.85147  -6774796.83046  21180363.7114                   21180361.8674
  -7673310.67347  -5967993.88745  22021977.3914                   22021976.8954
   -141677.30847    -90986.87146  21578171.4924                   21578170.5274
 -17256787.72348 -13425621.63046  20089657.8444                   20089656.1564
   3870802.73547   3028734.85744  22806686.7034                   22806685.8244
  -8334915.38847  -6455123.29745  22424771.9534   22424769.5514
 -12861913.15648  -9987624.09746  21525488.6564                   21525485.8444
 11  8 17 19 59  0.0000000  0  7G17G24G07G08G26G11G28
  -8824998.61547  -6865395.83646  21158238.3134                   21158236.8134
  -7723832.77047  -6007361.72245  22012363.1954                   22012362.2344
   -139039.69947    -88931.66845  21578673.2424                   21578671.8594
 -17306783.26248 -13464579.22446  20080143.5394                   20080142.3794
   3815977.15147   2986013.58844  22796253.7584                   22796252.6764
  -8341229.96847  -6460043.78344  22423570.4304   22423567.9104
 -12959002.17748 -10063277.88246  21507013.2814                   21507010.5164
 11  8 17 19 59 30.0000000  0  7G17G24G07G08G26G11G28
  -8940904.44547  -6955712.01846  21136182.6884                   21136180.5744
  -7773800.35347  -6046297.49645  22002854.5554                   22002854.3674
   -136006.32447    -86568.07246  21579250.5004                   21579249.8404
 -17356203.24748 -13503088.32246  20070739.7344                   20070737.9534
   3761688.62947   2943710.81044  22785922.7424                   22785922.5554
  -8347109.71747  -6464625.41144  22422450.7274   22422449.1644
 -13056057.17548 -10138905.15046  21488544.3444                   21488541.3634
 11  8 17 20  0  0.0000000  0  8G17G24G07G08G26G11G04G28
  -9056454.35648  -7045750.87546  21114193.9694                   21114192.4694
  -7823221.12947  -6084807.19645  21993450.1564                   21993449.6134
   -132586.24247    -83903.14546  21579901.7814                   21579900.7934
 -17405055.53547 -13541155.06846  20061443.4064                   20061442.5394
   3707927.94247   2901819.31944  22775692.4304                   22775692.1024
  -8352564.23147  -6468875.71144  22421413.1484   22421410.9224
  26550153.18156  20702370.50452  24514407.4454                   24514414.4494
 -13153085.19348 -10214511.39446  21470080.4924                   21470076.9694
 11  8 17 20  0 30.0000000  0  8G17G24G07G08G26G11G04G28
  -9171661.69347  -7135522.79046  21092270.5864                   21092269.0084
  -7872108.04347  -6122900.89345  21984147.0004                   21984146.9414
   -128793.16547    -80947.58846  21580623.1804                   21580622.4924
 -17453352.06848 -13578788.75346  20052252.8444                   20052251.5044
   3654680.98546   2860328.15944  22765560.1254                   22765560.0514
  -8357607.98447  -6472805.94944  22420453.3524   22420450.7584
  26360742.73646  20554778.25543  24478364.4224                   24478371.5434
 -13250097.77148 -10290105.60246  21451619.6334                   21451616.9734
 11  8 17 20  1  0.0000000  0  8G17G24G07G08G26G11G04G28
  -9286538.58947  -7225037.22146  21070410.4304                   21070408.5664
  -7920473.87747  -6160588.55645  21974943.2584                   21974943.4064
   -124641.48947    -77712.60946  21581413.5234                   21581412.4694
 -17501104.68948 -13615998.61146  20043166.0314                   20043164.5744
   3601933.98947   2819226.52544  22755522.1414                   22755522.3594
  -8362255.59847  -6476427.48444  22419569.0864   22419566.5944
  26171227.48246  20407104.35543  24442299.9454                   24442308.9224
 -13347106.70048 -10365696.97746  21433159.1804                   21433156.2544
 11  8 17 20  1 30.0000000  0  8G17G24G07G08G26G11G04G28
  -9401095.61547  -7314302.40546  21048610.9144                   21048609.0984
  -7968329.50247  -6197878.62745  21965837.1954                   21965836.9884
   -120143.16947    -74207.48745  21582269.5004                   21582269.0664
 -17548323.88648 -13652792.81846  20034180.7504                   20034178.4734
   3549674.63047   2778504.91344  22745578.0704                   22745577.6644
  -8366519.57947  -6479750.10044  22418757.2894   22418755.3714
  25981599.92646  20259342.88443  24406215.4224                   24406223.6024
 -13444121.42848 -10441292.86746  21414698.2194                   21414694.5744
 11  8 17 20  2  0.0000000  0  8G17G24G07G08G26G11G04G28
  -9515328.97548  -7403315.37346  21026872.7274                   21026871.1094
  -8015671.86246  -6234768.77545  21956828.0164                   21956827.7544
   -115295.94247    -70430.50446  21583191.7504                   21583191.5824
 -17595005.89347 -13689168.43646  20025297.2974                   20025295.7304
   3497905.13647   2738165.00044  22735726.4614                   22735726.4224
  -8370398.16347  -6482772.39544  22418019.4614   22418017.2034
  25791866.21446  20111498.77543  24370110.8674                   24370118.3674
 -13541137.49048 -10516889.77946  21396236.2114                   21396233.4304
 11  8 17 20  2 30.0000000  0  8G17G24G07G08G26G11G04G28
  -8053813.05048  -6264471.75546  21304990.0314                   21304988.4304
  -6487077.48247  -5043656.25345  22247709.6804                   22247709.6414
   1465320.70347   1161218.73646  21883973.5474                   21883972.5084
 -16065726.58247 -12497522.23746  20316309.4304                   20316307.9734
   5022047.57247   3925808.39345  23025761.1884                   23025761.2734
  -6798471.18747  -5257894.24944  22717147.4224   22717145.3794
  27177457.82146  21191180.86243  24633779.1254                   24633786.4414
 -12062728.82448  -9364883.02146  21677567.9774                   21677564.9304
 11  8 17 20  3  0.0000000  0  8G17G24G07G08G26G11G04G28
  -8167395.42748  -6352977.48246  21283376.0234                   21283374.5394
  -6533389.87647  -5079743.83445  22238896.5474                   22238896.2854
   1470865.61247   1165539.37445  21885028.9224                   21885027.5124
 -16111328.77747 -12533056.44446  20307631.2034                   20307629.7344
   4971256.97747   3886231.26344  23016095.7424                   23016095.8634
  -6801580.85447  -5260317.41444  22716556.0164   22716553.2424   26987525.07646
  21043181.65843                  24597636.0944                   24597643.2544
 -12159740.95148  -9440476.87146  21659107.5634                   21659104.6174
 11  8 17 20  3 30.0000000  0  8G17G24G07G08G26G11G04G28
  -8280654.79348  -6441231.50346  21261823.8444                   21261822.1024
  -6579190.70447  -5115432.78745  22230181.3284                   22230180.8484
   1476754.42947   1170127.97545  21886149.3834                   21886148.4844
 -16156393.65748 -12568171.97446  20299056.0004                   20299054.3754
   4920950.85847   3847031.66144  23006523.4454                   23006523.7584
  -6804311.84747  -5262445.47544  22716035.4924   22716033.7034   26797494.41247
  20895106.09543                  24561474.1254                   24561482.0274
 -12256752.73048  -9516070.46046  21640646.8204                   21640643.8444
 11  8 17 20  4  0.0000000  0  8G17G24G07G08G26G11G04G28
  -8393595.15547  -6529236.95046  21240331.6644                   21240329.9804
  -6624484.13247  -5150726.37245  22221561.9454                   22221561.8094
   1482981.72547   1174980.33745  21887334.2194                   21887333.3954
 -16200924.50748 -12602871.35546  20290582.3134                   20290580.2774
   4871123.62947   3808205.18844  22997041.1804                   22997041.3244
  -6806670.11047  -5264283.09744  22715586.7424   22715584.8404   26607364.63547
  20746953.27443                  24525293.8364                   24525301.4614
 -12353766.98548  -9591665.99146  21622185.5554                   21622182.5044
 11  8 17 20  4 30.0000000  0  8G17G24G07G08G26G11G04G28
  -8506213.51248  -6616991.49746  21218901.2814                   21218898.9654
  -6669268.01447  -5185622.91545  22213040.5314                   22213039.3364
   1489548.29147   1180097.05145  21888583.9774                   21888583.4224
 -16244918.46248 -12637152.38846  20282210.3364                   20282208.9804
   4821776.23747   3769752.61344  22987651.0164                   22987650.5824
  -6808654.93647  -5265829.74644  22715209.0004   22715207.3134   26417141.39047
  20598727.56743                  24489095.2194                   24489102.0004
 -12450779.52748  -9667260.18146  21603724.8674                   21603722.0704
 11  8 17 20  5  0.0000000  0  8G17G24G07G08G26G11G04G28
  -8618511.32148  -6704496.24146  21197531.8674                   21197530.0394
  -6713543.68447  -5220123.42345  22204615.0164                   22204613.8714
   1496452.25547   1185476.69345  21889897.8754                   21889896.9184
 -16288376.69348 -12671015.97146  20273940.4454                   20273938.5664
   4772906.09747   3731671.92745  22978351.2194                   22978351.0554
  -6810269.02947  -5267087.50444  22714902.7194   22714900.4654   26226826.86147
  20450431.01943                  24452879.6094                   24452885.8244
 -12547790.66048  -9742853.26146  21585264.0634                   21585261.0704
 11  8 17 20  5 30.0000000  0  8G17G24G07G08G26G11G04G28
  -8730491.56348  -6791753.55046  21176222.6094                   21176220.3594
  -6757314.70647  -5254230.71945  22196285.1254                   22196285.1954
   1503689.15947   1191115.75245  21891274.9844                   21891273.4654
 -16331301.98148 -12704464.27446  20265772.1724                   20265771.1914
   4724508.67047   3693959.58844  22969141.4144                   22969141.3984
  -6811517.30647  -5268060.18344  22714664.9534   22714662.4184   26036421.20446
  20302063.20643                  24416646.2274                   24416652.5164
 -12644802.26748  -9818446.72946  21566803.4844                   21566800.5704
 11  8 17 20  6  0.0000000  0  8G17G24G07G08G26G11G04G28
  -8842154.47448  -6878763.58346  21154973.6884                   21154972.1994
  -6800581.83146  -5287945.34945  22188051.8204                   22188051.4454
   1511256.92947   1197012.63345  21892715.3914                   21892714.2384
 -16373694.40547 -12737497.37246  20257705.3914                   20257703.4574
   4676582.08647   3656614.13644  22960021.4454                   22960020.9734
  -6812402.59347  -5268750.04944  22714496.2734   22714494.0474   25845926.95546
  20153626.38342                  24380395.5084                   24380401.9304
 -12741813.97148  -9894040.24046  21548342.9224                   21548339.5594
 11  8 17 20  6 30.0000000  0  8G17G24G07G08G26G11G04G28
  -8953500.28548  -6965526.53346  21133785.4384                   21133783.6374
  -6843345.71747  -5321267.87245  22179913.6954                   22179913.8054
   1519153.97647   1203166.07445  21894217.9454                   21894217.1294
 -16415553.77048 -12770115.08646  20249739.9694                   20249738.3834
   4629124.49346   3619634.13644  22950991.0164                   22950991.0044
  -6812926.99047  -5269158.68944  22714396.8594   22714394.4184   25655346.76546
  20005122.65443                  24344129.7424                   24344135.0704
 -12838824.65348  -9969632.98246  21529882.4304                   21529878.6844
 11  8 17 20  7  0.0000000  0  8G17G24G07G08G26G11G04G28
  -9064525.49348  -7052039.66346  21112657.8134                   21112656.1024
  -6885603.56747  -5354196.06945  22171873.1804                   22171872.4964
   1527382.10747   1209577.53145  21895783.9384                   21895782.9144
 -16456876.76348 -12802314.85546  20241876.1884                   20241874.7704
   4582137.41547   3583020.78744  22942049.0554                   22942049.2074
  -6813088.89347  -5269284.88144  22714365.9924   22714363.7504   25464687.19345
  19856557.02342                  24307846.1724                   24307853.4064
 -12935830.20648 -10045221.71446  21511422.7344                   21511420.0434
 11  8 17 20  7 30.0000000  0  8G17G24G07G08G26G11G04G28
  -9175225.25248  -7138299.19646  21091592.3674                   21091590.8244
  -6927351.10547  -5386726.57745  22163929.2034                   22163927.6684
   1535944.74647   1216249.62945  21897413.6884                   21897412.5164
 -16497658.19848 -12834092.62046  20234115.4224                   20234114.0984
   4535624.15046   3546776.63344  22933198.1414                   22933198.0864
  -6812885.46947  -5269126.39544  22714404.3594   22714402.4304   25273956.21646
  19707935.73842                  24271552.8674                   24271558.5514
 -13032824.15848 -10120801.41446  21492965.3134                   21492962.5514
 11  8 17 20  8  0.0000000  0  8G17G24G07G08G26G11G04G28
  -9285601.59148  -7224306.69646  21070588.3134                   21070586.9414
  -6968590.59147  -5418861.25045  22156081.2424                   22156080.7304
   1544838.35047   1223179.61145  21899105.5084                   21899104.9024
 -16537900.03048 -12865449.92746  20226457.7894                   20226456.4304
   4489580.87147   3510898.69844  22924436.0474                   22924436.6884
  -6812320.59247  -5268686.24644  22714512.1334   22714510.5554   25083154.82446
  19559259.64143                  24235243.7194                   24235250.4844
 -13129807.45348 -10196372.79846  21474509.5634                   21474506.8014
 11  8 17 20  8 30.0000000  0  8G17G24G07G08G26G11G04G28
  -9395649.76347  -7310058.48546  21049646.7424                   21049645.0044
  -7009318.23247  -5450597.08045  22148331.0164                   22148330.8754
   1554066.07847   1230369.96845  21900861.8054                   21900861.6134
 -16577597.68948 -12896383.19846  20218903.6334                   20218902.5704
   4444010.68047   3475389.39244  22915765.3204                   22915764.9184
  -6811391.99347  -5267962.69444  22714689.1334   22714686.6294   24892290.94146
  19410534.80343                  24198923.5004                   24198929.4494
 -13226774.45748 -10271931.49346  21456057.5234                   21456054.6334
 11  8 17 20  9  0.0000000  0  8G17G24G07G08G26G11G04G28
  -9505365.80547  -7395551.47846  21028768.7734                   21028767.5434
  -7049529.95646  -5481930.88345  22140678.5004                   22140678.0514
   1563630.86547   1237822.95345  21902682.6724                   21902681.6994
 -16616746.69247 -12926888.93146  20211453.7034                   20211452.4264
   4398916.29847   3440250.83244  22907184.0784                   22907183.9104
  -6810096.66447  -5266953.33644  22714935.6254   22714933.1374   24701372.03446
  19261767.12944                  24162593.2274                   24162600.1134
 -13323719.53448 -10347473.10446  21437609.6644                   21437606.2384
 11  8 17 20  9 30.0000000  0  8G17G24G07G08G26G11G04G28
  -9614743.93448  -7480781.15046  21007954.2974                   21007953.0164
  -7089220.38647  -5512858.50445  22133125.8984                   22133125.1954
   1573537.05247   1245541.97145  21904567.6724                   21904566.8364
 -16655340.80847 -12956962.30846  20204109.9844                   20204108.5554
   4354301.71747   3405486.17244  22898694.0474                   22898692.9734
  -6808431.14247  -5265655.58944  22715252.0864   22715250.2034   24510406.98346
  19112963.49643                  24126252.4384                   24126260.0314
 -13420635.71847 -10422992.18746  21419167.3524                   21419163.8834
 11  8 17 20 10  0.0000000  0  8G17G24G07G08G26G11G04G28
  -9723778.96248  -7565743.48446  20987205.6334                   20987204.2424
  -7128385.07446  -5543376.43145  22125673.2664                   22125672.3094
   1583788.08447   1253529.69845  21906518.2194                   21906517.9144
 -16693375.43847 -12986599.71146  20196872.0084                   20196870.4414
   4310170.15647   3371097.89444  22890296.1564                   22890295.7304
  -6806392.37147  -5264066.95044  22715640.1024   22715638.6024   24319403.80146
  18964130.11644                  24089905.9774                   24089913.4654
 -13517516.99847 -10498484.09046  21400731.1024                   21400728.0354
 11  8 17 20 10 30.0000000  0  8G17G24G07G08G26G11G04G28
  -9832473.22347  -7650440.27746  20966522.0944                   20966520.2814
  -7167027.03847  -5573487.06145  22118320.0704                   22118319.6374
   1594380.05847   1261783.09145  21908533.8524                   21908533.1414
 -16730853.03548 -13015803.08046  20189740.2974                   20189738.7194
   4266517.81247   3337083.02344  22881989.2664                   22881988.6294
  -6803984.65547  -5262190.80944  22716098.2664   22716096.0744   24128363.43746
  18815267.79544                  24053552.8674                   24053559.4924
 -13614364.31547 -10573949.53146  21382302.0234                   21382298.4454
 11  8 17 20 11  0.0000000  0  8G17G24G07G08G26G11G04G28
  -9940825.63048  -7734870.70946  20945903.4924                   20945901.6564
  -7205146.03347  -5603190.14145  22111066.4224                   22111065.7074
   1605312.27347   1270301.60345  21910614.0084                   21910613.9924
 -16767772.42948 -13044571.46546  20182714.9844                   20182713.6844
   4223343.31047   3303440.53444  22873773.7734                   22873772.9884
  -6801209.12747  -5260028.10444  22716626.3594   22716623.9844   23937290.01546
  18666379.65643                  24017192.4064                   24017198.4344
 -13711175.63248 -10649386.92146  21363879.4694                   21363876.4064
 11  8 17 20 11 30.0000000  0  8G17G24G07G08G26G11G04G28
 -10048833.78548  -7819032.88046  20925350.2584                   20925348.1484
  -7242739.81347  -5632484.00545  22103911.7274                   22103911.3874
   1616586.10847   1279086.31545  21912759.6884                   21912759.5944
 -16804130.90548 -13072902.77946  20175796.0554                   20175794.8164
   4180647.97547   3270171.39344  22865649.2114                   22865648.3674
  -6798064.82847  -5257578.03344  22717224.6954   22717223.0204   23746189.25146
  18517470.26043                  23980826.6884                   23980833.1334
 -13807947.00948 -10724793.19746  21345464.3674                   21345461.4614
 11  8 17 20 12  0.0000000  0  8G17G24G07G08G26G11G04G28
 -10156505.38748  -7902932.80246  20904860.6024                   20904858.7344
  -7279816.70847  -5661375.10445  22096856.4304                   22096856.2934
   1628192.42447   1288130.10245  21914968.4534                   21914967.2894
 -16839936.12948 -13100802.99546  20168982.6724                   20168980.8364
   4138422.46147   3237268.29944  22857613.9614                   22857613.4964
  -6794561.45447  -5254848.14844  22717891.2194   22717890.1604   23555057.20946
  18368536.51143                  23944455.3444                   23944461.8754
 -13904684.68048 -10800173.20546  21327055.6724                   21327052.7734
 11  8 17 20 12 30.0000000  0  8G17G24G07G08G26G11G04G28
  -8688409.34947  -6758961.83946  21184230.1094                   21184228.2504
  -5740948.92747  -4462257.33445  22389693.0784                   22389691.9264
   3215556.41747   2525037.03145  22217033.6954                   22217033.3874
 -15299759.58348 -11900665.45946  20462068.2814                   20462067.5634
   5672093.45747   4432336.58644  23149461.8134                   23149461.0944
  -5215273.89647  -4024234.48944  23018419.6724   23018418.0904   24939330.19146
  19447191.13843                  24207873.9064                   24207879.7344
 -12425956.89247  -9647917.78246  21608448.2274                   21608445.7974
 11  8 17 20 13  0.0000000  0  8G17G24G07G08G26G11G04G28
  -8795403.41748  -6842333.79746  21163869.6804                   21163867.8594
  -5776989.79747  -4490341.12544  22382835.2194                   22382834.9884
   3227827.05047   2534598.44445  22219368.2584                   22219367.9384
 -15334454.25048 -11927700.29446  20455466.0394                   20455464.8524
   5630806.03147   4400164.50444  23141603.7034                   23141604.6684
  -5211054.25247  -4020946.49244  23019223.7504   23019221.3054   24748148.48246
  19298218.60543                  24171492.2194                   24171499.2734
 -12522619.30047  -9723239.14346  21590054.2974                   21590051.0394
 11  8 17 20 13 30.0000000  0  8G17G24G07G08G26G11G04G28
  -8902062.29147  -6925444.58546  21143573.1884                   21143570.9534
  -5812517.09747  -4518024.72345  22376074.7424                   22376073.4774
   3240424.36947   2544414.44945  22221766.1724                   22221766.3834
 -15368597.17048 -11954305.20446  20448968.6954                   20448967.1804
   5589981.79247   4368353.39244  23133836.1484                   23133835.7114
  -5206482.76347  -4017384.31744  23020092.8444   23020090.6414   24556943.55446
  19149228.11243                  24135107.1254                   24135113.2304
 -12619245.66848  -9798532.42546  21571666.5004                   21571663.6174
 11  8 17 20 14  0.0000000  0  8G17G24G07G08G26G11G04G28
  -9008385.57448  -7008293.86146  21123340.5554                   21123338.1024
  -5847531.33747  -4545308.53245  22369412.3284                   22369411.1024
   3253346.96747   2554483.89845  22224225.4694                   22224224.3984
 -15402187.96448 -11980479.88446  20442577.2734                   20442575.7704
   5549618.83447   4336901.60644  23126155.3594                   23126155.9804
  -5201561.11747  -4013549.31244  23021029.4534   23021027.1134   24365718.92746
  19000222.22843                  24098717.7504                   24098724.1214
 -12715833.95248  -9873796.01846  21553286.7734                   21553283.7504
 11  8 17 20 14 30.0000000  0  8G17G24G07G08G26G11G04G28
  -9114381.40148  -7090887.97546  21103169.7734                   21103168.2384
  -5882040.68948  -4572198.93445  22362844.7584                   22362844.3284
   3266585.33647   2564799.39645  22226744.8444                   22226744.6094
 -15435234.78748 -12006230.68946  20436288.7344                   20436287.0084
   5509707.73847   4305802.02144  23118560.5004                   23118561.0434
  -5196299.23547  -4009449.20344  23022030.8364   23022028.7624   24174470.06546
  18851197.39243                  24062324.1094                   24062330.3164
 -12812390.62548  -9949034.98846  21534912.1414                   21534909.3324
